<?xml version="1.0" encoding="UTF-8" standalone="no" ?>
<gpx xmlns="http://www.topografix.com/GPX/1/1" xmlns:xsi="http://www.w3.org/2001/XMLSchema-instance" xsi:schemaLocation="http://www.topografix.com/GPX/1/1 http://www.topografix.com/GPX/1/1/gpx.xsd" version="1.1" creator="VisuGPX - https://www.visugpx.com">
  <metadata>
    <name>balade chateau des roches</name>
    <desc><![CDATA[Petite balade a coté de Volvic]]></desc>
  </metadata>
  <wpt lat="46.0264" lon="3.20132">
    <ele>402.9</ele>
    <name><![CDATA[3 Allée des Peupliers Aigueperse (départ)]]></name>
  </wpt>
  <wpt lat="46.02631" lon="3.20308">
    <ele>406.4</ele>
    <name><![CDATA[3 Allée des Peupliers Aigueperse (fin)]]></name>
    <desc><![CDATA[Créé par Google Mes parcours sur Android  Nom : 3 Allée des Peupliers Aigueperse Type d'activité : marche Description : - Distance totale : 9,76 km (6,1 mi) Durée totale : 2:02:26 Durée du déplacement : 1:58:00 Vitesse moyenne : 4,78 km/h (3,0 mi/h) Vitesse moyenne de déplacement : 4,96 km/h (3,1 mi/h) Vitesse max. : 5,87 km/h (3,6 mi/h) Vitesse moyenne : 12:33 min/km (20:11 min/mi) Allure moyenne : 12:05 min/km (19:28 min/mi) Vitesse maximale : 10:14 min/km (16:28 min/mi) Élévation max. : 547 m (1795 pi) Élévation min. : 402 m (1318 pi) Dénivelé : 1150 m (3773 pi) Inclinaison max. : 20 % Inclinaison min. : -15 % Date d'enregistrement : 07/04/2014 14:41]]></desc>
  </wpt>
  <trk>
    <name><![CDATA[3 Allée des Peupliers Aigueperse]]></name>
    <trkseg>
      <trkpt lat="46.0264" lon="3.20132">
        <ele>402.879272461</ele>
        <time>2014-04-07T12:41:06.206Z</time>
      </trkpt>
      <trkpt lat="46.02638" lon="3.20121">
        <ele>402.33795166</ele>
        <time>2014-04-07T12:41:12.19Z</time>
      </trkpt>
      <trkpt lat="46.02638" lon="3.20119">
        <ele>402.233093262</ele>
        <time>2014-04-07T12:41:13.195Z</time>
      </trkpt>
      <trkpt lat="46.02638" lon="3.20108">
        <ele>401.952880859</ele>
        <time>2014-04-07T12:41:19.745Z</time>
      </trkpt>
      <trkpt lat="46.02638" lon="3.20106">
        <ele>401.881469727</ele>
        <time>2014-04-07T12:41:20.185Z</time>
      </trkpt>
      <trkpt lat="46.02637" lon="3.20093">
        <ele>401.250518799</ele>
        <time>2014-04-07T12:41:26.65Z</time>
      </trkpt>
      <trkpt lat="46.02637" lon="3.20092">
        <ele>401.203155518</ele>
        <time>2014-04-07T12:41:27.378Z</time>
      </trkpt>
      <trkpt lat="46.02637" lon="3.20079">
        <ele>401.033996582</ele>
        <time>2014-04-07T12:41:34.849Z</time>
      </trkpt>
      <trkpt lat="46.02637" lon="3.20077">
        <ele>401.04019165</ele>
        <time>2014-04-07T12:41:35.35Z</time>
      </trkpt>
      <trkpt lat="46.02636" lon="3.20065">
        <ele>401.454528809</ele>
        <time>2014-04-07T12:41:41.297Z</time>
      </trkpt>
      <trkpt lat="46.02637" lon="3.20063">
        <ele>401.576293945</ele>
        <time>2014-04-07T12:41:42.217Z</time>
      </trkpt>
      <trkpt lat="46.02638" lon="3.20051">
        <ele>402.178833008</ele>
        <time>2014-04-07T12:41:48.274Z</time>
      </trkpt>
      <trkpt lat="46.02638" lon="3.20049">
        <ele>402.27355957</ele>
        <time>2014-04-07T12:41:49.231Z</time>
      </trkpt>
      <trkpt lat="46.02639" lon="3.20037">
        <ele>402.576019287</ele>
        <time>2014-04-07T12:41:55.369Z</time>
      </trkpt>
      <trkpt lat="46.02639" lon="3.20034">
        <ele>402.678649902</ele>
        <time>2014-04-07T12:41:56.487Z</time>
      </trkpt>
      <trkpt lat="46.02639" lon="3.20023">
        <ele>403.011749268</ele>
        <time>2014-04-07T12:42:02.257Z</time>
      </trkpt>
      <trkpt lat="46.02639" lon="3.20021">
        <ele>403.03616333</ele>
        <time>2014-04-07T12:42:03.238Z</time>
      </trkpt>
      <trkpt lat="46.02638" lon="3.20009">
        <ele>403.37677002</ele>
        <time>2014-04-07T12:42:10.287Z</time>
      </trkpt>
      <trkpt lat="46.02638" lon="3.20008">
        <ele>403.30847168</ele>
        <time>2014-04-07T12:42:11.217Z</time>
      </trkpt>
      <trkpt lat="46.02637" lon="3.19996">
        <ele>403.068511963</ele>
        <time>2014-04-07T12:42:18.277Z</time>
      </trkpt>
      <trkpt lat="46.02637" lon="3.19994">
        <ele>403.089782715</ele>
        <time>2014-04-07T12:42:19.237Z</time>
      </trkpt>
      <trkpt lat="46.02636" lon="3.19981">
        <ele>402.74420166</ele>
        <time>2014-04-07T12:42:26.345Z</time>
      </trkpt>
      <trkpt lat="46.02636" lon="3.19979">
        <ele>402.710998535</ele>
        <time>2014-04-07T12:42:27.231Z</time>
      </trkpt>
      <trkpt lat="46.02636" lon="3.19967">
        <ele>402.292144775</ele>
        <time>2014-04-07T12:42:32.404Z</time>
      </trkpt>
      <trkpt lat="46.02636" lon="3.19965">
        <ele>402.281921387</ele>
        <time>2014-04-07T12:42:33.212Z</time>
      </trkpt>
      <trkpt lat="46.02637" lon="3.19953">
        <ele>402.199584961</ele>
        <time>2014-04-07T12:42:42.308Z</time>
      </trkpt>
      <trkpt lat="46.02638" lon="3.19951">
        <ele>402.252075195</ele>
        <time>2014-04-07T12:42:43.974Z</time>
      </trkpt>
      <trkpt lat="46.02637" lon="3.1994">
        <ele>402.619873047</ele>
        <time>2014-04-07T12:42:49.711Z</time>
      </trkpt>
      <trkpt lat="46.02637" lon="3.19938">
        <ele>402.674957275</ele>
        <time>2014-04-07T12:42:50.236Z</time>
      </trkpt>
      <trkpt lat="46.02637" lon="3.19928">
        <ele>402.961303711</ele>
        <time>2014-04-07T12:42:56.147Z</time>
      </trkpt>
      <trkpt lat="46.02637" lon="3.19924">
        <ele>403.129821777</ele>
        <time>2014-04-07T12:42:56.252Z</time>
      </trkpt>
      <trkpt lat="46.0264" lon="3.19914">
        <ele>403.376159668</ele>
        <time>2014-04-07T12:43:01.761Z</time>
      </trkpt>
      <trkpt lat="46.0264" lon="3.19908">
        <ele>403.534576416</ele>
        <time>2014-04-07T12:43:02.421Z</time>
      </trkpt>
      <trkpt lat="46.02643" lon="3.19896">
        <ele>404.276855469</ele>
        <time>2014-04-07T12:43:11.33Z</time>
      </trkpt>
      <trkpt lat="46.02644" lon="3.19895">
        <ele>404.351898193</ele>
        <time>2014-04-07T12:43:12.224Z</time>
      </trkpt>
      <trkpt lat="46.02652" lon="3.1989">
        <ele>404.87890625</ele>
        <time>2014-04-07T12:43:18.21Z</time>
      </trkpt>
      <trkpt lat="46.02652" lon="3.1989">
        <ele>404.94241333</ele>
        <time>2014-04-07T12:43:19.231Z</time>
      </trkpt>
      <trkpt lat="46.02659" lon="3.19881">
        <ele>405.318908691</ele>
        <time>2014-04-07T12:43:25.325Z</time>
      </trkpt>
      <trkpt lat="46.0266" lon="3.1988">
        <ele>405.371307373</ele>
        <time>2014-04-07T12:43:26.197Z</time>
      </trkpt>
      <trkpt lat="46.02665" lon="3.19871">
        <ele>405.856292725</ele>
        <time>2014-04-07T12:43:32.262Z</time>
      </trkpt>
      <trkpt lat="46.02666" lon="3.19869">
        <ele>405.977630615</ele>
        <time>2014-04-07T12:43:33.871Z</time>
      </trkpt>
      <trkpt lat="46.02671" lon="3.1986">
        <ele>406.898406982</ele>
        <time>2014-04-07T12:43:40.316Z</time>
      </trkpt>
      <trkpt lat="46.02672" lon="3.19858">
        <ele>407.032440186</ele>
        <time>2014-04-07T12:43:41.177Z</time>
      </trkpt>
      <trkpt lat="46.02677" lon="3.19848">
        <ele>407.707733154</ele>
        <time>2014-04-07T12:43:47.422Z</time>
      </trkpt>
      <trkpt lat="46.02678" lon="3.19847">
        <ele>407.834075928</ele>
        <time>2014-04-07T12:43:48.473Z</time>
      </trkpt>
      <trkpt lat="46.02684" lon="3.19837">
        <ele>408.479919434</ele>
        <time>2014-04-07T12:43:56.062Z</time>
      </trkpt>
      <trkpt lat="46.02685" lon="3.19835">
        <ele>408.526489258</ele>
        <time>2014-04-07T12:43:56.305Z</time>
      </trkpt>
      <trkpt lat="46.02691" lon="3.19826">
        <ele>408.850158691</ele>
        <time>2014-04-07T12:44:03.635Z</time>
      </trkpt>
      <trkpt lat="46.02692" lon="3.19825">
        <ele>408.879547119</ele>
        <time>2014-04-07T12:44:04.194Z</time>
      </trkpt>
      <trkpt lat="46.02698" lon="3.19816">
        <ele>408.853515625</ele>
        <time>2014-04-07T12:44:10.244Z</time>
      </trkpt>
      <trkpt lat="46.02698" lon="3.19815">
        <ele>408.864013672</ele>
        <time>2014-04-07T12:44:11.224Z</time>
      </trkpt>
      <trkpt lat="46.02704" lon="3.19806">
        <ele>408.811187744</ele>
        <time>2014-04-07T12:44:17.26Z</time>
      </trkpt>
      <trkpt lat="46.02705" lon="3.19805">
        <ele>408.842163086</ele>
        <time>2014-04-07T12:44:18.209Z</time>
      </trkpt>
      <trkpt lat="46.02711" lon="3.19799">
        <ele>408.968322754</ele>
        <time>2014-04-07T12:44:24.439Z</time>
      </trkpt>
      <trkpt lat="46.02712" lon="3.19797">
        <ele>408.989471436</ele>
        <time>2014-04-07T12:44:25.683Z</time>
      </trkpt>
      <trkpt lat="46.02718" lon="3.19787">
        <ele>408.991149902</ele>
        <time>2014-04-07T12:44:32.248Z</time>
      </trkpt>
      <trkpt lat="46.02718" lon="3.19786">
        <ele>408.943725586</ele>
        <time>2014-04-07T12:44:33.209Z</time>
      </trkpt>
      <trkpt lat="46.02724" lon="3.19777">
        <ele>408.957763672</ele>
        <time>2014-04-07T12:44:39.86Z</time>
      </trkpt>
      <trkpt lat="46.02725" lon="3.19775">
        <ele>408.967895508</ele>
        <time>2014-04-07T12:44:40.42Z</time>
      </trkpt>
      <trkpt lat="46.02729" lon="3.19764">
        <ele>409.079803467</ele>
        <time>2014-04-07T12:44:46.202Z</time>
      </trkpt>
      <trkpt lat="46.02729" lon="3.19763">
        <ele>409.052093506</ele>
        <time>2014-04-07T12:44:47.195Z</time>
      </trkpt>
      <trkpt lat="46.02735" lon="3.19754">
        <ele>408.973449707</ele>
        <time>2014-04-07T12:44:53.383Z</time>
      </trkpt>
      <trkpt lat="46.02736" lon="3.19753">
        <ele>409.016326904</ele>
        <time>2014-04-07T12:44:54.274Z</time>
      </trkpt>
      <trkpt lat="46.02741" lon="3.19744">
        <ele>409.075775146</ele>
        <time>2014-04-07T12:45:00.883Z</time>
      </trkpt>
      <trkpt lat="46.02742" lon="3.19743">
        <ele>409.14352417</ele>
        <time>2014-04-07T12:45:01.182Z</time>
      </trkpt>
      <trkpt lat="46.02747" lon="3.19735">
        <ele>409.639831543</ele>
        <time>2014-04-07T12:45:07.281Z</time>
      </trkpt>
      <trkpt lat="46.02748" lon="3.19733">
        <ele>409.777740479</ele>
        <time>2014-04-07T12:45:08.205Z</time>
      </trkpt>
      <trkpt lat="46.02754" lon="3.19725">
        <ele>409.780609131</ele>
        <time>2014-04-07T12:45:14.371Z</time>
      </trkpt>
      <trkpt lat="46.02756" lon="3.19721">
        <ele>409.665863037</ele>
        <time>2014-04-07T12:45:15.206Z</time>
      </trkpt>
      <trkpt lat="46.02761" lon="3.19712">
        <ele>409.956542969</ele>
        <time>2014-04-07T12:45:21.213Z</time>
      </trkpt>
      <trkpt lat="46.02762" lon="3.1971">
        <ele>410.016418457</ele>
        <time>2014-04-07T12:45:22.227Z</time>
      </trkpt>
      <trkpt lat="46.02767" lon="3.19701">
        <ele>410.58770752</ele>
        <time>2014-04-07T12:45:28.358Z</time>
      </trkpt>
      <trkpt lat="46.02768" lon="3.19699">
        <ele>410.714355469</ele>
        <time>2014-04-07T12:45:29.21Z</time>
      </trkpt>
      <trkpt lat="46.02773" lon="3.1969">
        <ele>411.048950195</ele>
        <time>2014-04-07T12:45:34.425Z</time>
      </trkpt>
      <trkpt lat="46.02774" lon="3.19689">
        <ele>411.143920898</ele>
        <time>2014-04-07T12:45:35.213Z</time>
      </trkpt>
      <trkpt lat="46.02779" lon="3.1968">
        <ele>411.583221436</ele>
        <time>2014-04-07T12:45:41.271Z</time>
      </trkpt>
      <trkpt lat="46.0278" lon="3.19679">
        <ele>411.650268555</ele>
        <time>2014-04-07T12:45:42.211Z</time>
      </trkpt>
      <trkpt lat="46.02785" lon="3.19669">
        <ele>411.97052002</ele>
        <time>2014-04-07T12:45:48.258Z</time>
      </trkpt>
      <trkpt lat="46.02786" lon="3.19667">
        <ele>412.003326416</ele>
        <time>2014-04-07T12:45:49.212Z</time>
      </trkpt>
      <trkpt lat="46.0279" lon="3.19656">
        <ele>412.148010254</ele>
        <time>2014-04-07T12:45:57.245Z</time>
      </trkpt>
      <trkpt lat="46.02791" lon="3.19654">
        <ele>412.126434326</ele>
        <time>2014-04-07T12:45:58.223Z</time>
      </trkpt>
      <trkpt lat="46.02795" lon="3.19644">
        <ele>412.113098145</ele>
        <time>2014-04-07T12:46:03.193Z</time>
      </trkpt>
      <trkpt lat="46.02796" lon="3.19643">
        <ele>412.175201416</ele>
        <time>2014-04-07T12:46:04.186Z</time>
      </trkpt>
      <trkpt lat="46.02801" lon="3.19633">
        <ele>412.714782715</ele>
        <time>2014-04-07T12:46:10.295Z</time>
      </trkpt>
      <trkpt lat="46.02801" lon="3.19632">
        <ele>412.788665771</ele>
        <time>2014-04-07T12:46:11.219Z</time>
      </trkpt>
      <trkpt lat="46.02807" lon="3.19624">
        <ele>413.163452148</ele>
        <time>2014-04-07T12:46:17.287Z</time>
      </trkpt>
      <trkpt lat="46.02808" lon="3.19622">
        <ele>413.196075439</ele>
        <time>2014-04-07T12:46:18.214Z</time>
      </trkpt>
      <trkpt lat="46.02813" lon="3.19614">
        <ele>413.3253479</ele>
        <time>2014-04-07T12:46:23.269Z</time>
      </trkpt>
      <trkpt lat="46.02814" lon="3.19612">
        <ele>413.321228027</ele>
        <time>2014-04-07T12:46:24.216Z</time>
      </trkpt>
      <trkpt lat="46.02819" lon="3.19603">
        <ele>413.405517578</ele>
        <time>2014-04-07T12:46:29.344Z</time>
      </trkpt>
      <trkpt lat="46.0282" lon="3.19601">
        <ele>413.440368652</ele>
        <time>2014-04-07T12:46:30.217Z</time>
      </trkpt>
      <trkpt lat="46.02825" lon="3.19592">
        <ele>413.796813965</ele>
        <time>2014-04-07T12:46:37.27Z</time>
      </trkpt>
      <trkpt lat="46.02825" lon="3.19591">
        <ele>413.819976807</ele>
        <time>2014-04-07T12:46:38.214Z</time>
      </trkpt>
      <trkpt lat="46.0283" lon="3.1958">
        <ele>413.748565674</ele>
        <time>2014-04-07T12:46:44.692Z</time>
      </trkpt>
      <trkpt lat="46.02831" lon="3.19579">
        <ele>413.746337891</ele>
        <time>2014-04-07T12:46:45.201Z</time>
      </trkpt>
      <trkpt lat="46.02836" lon="3.19571">
        <ele>413.928344727</ele>
        <time>2014-04-07T12:46:51.391Z</time>
      </trkpt>
      <trkpt lat="46.02837" lon="3.19569">
        <ele>413.971343994</ele>
        <time>2014-04-07T12:46:52.229Z</time>
      </trkpt>
      <trkpt lat="46.02841" lon="3.1956">
        <ele>414.277709961</ele>
        <time>2014-04-07T12:46:57.77Z</time>
      </trkpt>
      <trkpt lat="46.02842" lon="3.19558">
        <ele>414.344573975</ele>
        <time>2014-04-07T12:46:58.227Z</time>
      </trkpt>
      <trkpt lat="46.02847" lon="3.19548">
        <ele>414.456970215</ele>
        <time>2014-04-07T12:47:03.262Z</time>
      </trkpt>
      <trkpt lat="46.02847" lon="3.19547">
        <ele>414.533905029</ele>
        <time>2014-04-07T12:47:04.227Z</time>
      </trkpt>
      <trkpt lat="46.02852" lon="3.19536">
        <ele>415.062866211</ele>
        <time>2014-04-07T12:47:11.414Z</time>
      </trkpt>
      <trkpt lat="46.02853" lon="3.19533">
        <ele>415.270111084</ele>
        <time>2014-04-07T12:47:13.514Z</time>
      </trkpt>
      <trkpt lat="46.02857" lon="3.19526">
        <ele>415.530517578</ele>
        <time>2014-04-07T12:47:19.422Z</time>
      </trkpt>
      <trkpt lat="46.02859" lon="3.19523">
        <ele>415.602081299</ele>
        <time>2014-04-07T12:47:21.295Z</time>
      </trkpt>
      <trkpt lat="46.02864" lon="3.19513">
        <ele>415.584197998</ele>
        <time>2014-04-07T12:47:28.087Z</time>
      </trkpt>
      <trkpt lat="46.02865" lon="3.19512">
        <ele>415.628356934</ele>
        <time>2014-04-07T12:47:28.579Z</time>
      </trkpt>
      <trkpt lat="46.02871" lon="3.19505">
        <ele>415.743408203</ele>
        <time>2014-04-07T12:47:33.25Z</time>
      </trkpt>
      <trkpt lat="46.02872" lon="3.19503">
        <ele>415.767913818</ele>
        <time>2014-04-07T12:47:34.204Z</time>
      </trkpt>
      <trkpt lat="46.02877" lon="3.19497">
        <ele>416.014831543</ele>
        <time>2014-04-07T12:47:41.461Z</time>
      </trkpt>
      <trkpt lat="46.0288" lon="3.19494">
        <ele>416.09954834</ele>
        <time>2014-04-07T12:47:42.212Z</time>
      </trkpt>
      <trkpt lat="46.02886" lon="3.19486">
        <ele>416.460876465</ele>
        <time>2014-04-07T12:47:48.522Z</time>
      </trkpt>
      <trkpt lat="46.02886" lon="3.19486">
        <ele>416.566558838</ele>
        <time>2014-04-07T12:47:49.194Z</time>
      </trkpt>
      <trkpt lat="46.02892" lon="3.19475">
        <ele>416.918334961</ele>
        <time>2014-04-07T12:47:55.695Z</time>
      </trkpt>
      <trkpt lat="46.02893" lon="3.19473">
        <ele>416.935333252</ele>
        <time>2014-04-07T12:47:56.339Z</time>
      </trkpt>
      <trkpt lat="46.02896" lon="3.19462">
        <ele>417.265289307</ele>
        <time>2014-04-07T12:48:03.317Z</time>
      </trkpt>
      <trkpt lat="46.02897" lon="3.1946">
        <ele>417.318115234</ele>
        <time>2014-04-07T12:48:06.81Z</time>
      </trkpt>
      <trkpt lat="46.02901" lon="3.19454">
        <ele>417.71887207</ele>
        <time>2014-04-07T12:48:10.502Z</time>
      </trkpt>
      <trkpt lat="46.02903" lon="3.19449">
        <ele>417.748962402</ele>
        <time>2014-04-07T12:48:11.833Z</time>
      </trkpt>
      <trkpt lat="46.02908" lon="3.1944">
        <ele>417.926025391</ele>
        <time>2014-04-07T12:48:17.518Z</time>
      </trkpt>
      <trkpt lat="46.02909" lon="3.19438">
        <ele>418.059234619</ele>
        <time>2014-04-07T12:48:18.588Z</time>
      </trkpt>
      <trkpt lat="46.02914" lon="3.1943">
        <ele>418.076263428</ele>
        <time>2014-04-07T12:48:24.27Z</time>
      </trkpt>
      <trkpt lat="46.02916" lon="3.19429">
        <ele>418.122070312</ele>
        <time>2014-04-07T12:48:25.201Z</time>
      </trkpt>
      <trkpt lat="46.02921" lon="3.19421">
        <ele>418.584381104</ele>
        <time>2014-04-07T12:48:31.202Z</time>
      </trkpt>
      <trkpt lat="46.02923" lon="3.19419">
        <ele>418.696533203</ele>
        <time>2014-04-07T12:48:32.357Z</time>
      </trkpt>
      <trkpt lat="46.02926" lon="3.19408">
        <ele>419.345062256</ele>
        <time>2014-04-07T12:48:43.234Z</time>
      </trkpt>
      <trkpt lat="46.02928" lon="3.19407">
        <ele>419.423980713</ele>
        <time>2014-04-07T12:48:44.23Z</time>
      </trkpt>
      <trkpt lat="46.02933" lon="3.19399">
        <ele>419.980865479</ele>
        <time>2014-04-07T12:48:48.253Z</time>
      </trkpt>
      <trkpt lat="46.02934" lon="3.19397">
        <ele>420.070831299</ele>
        <time>2014-04-07T12:48:49.263Z</time>
      </trkpt>
      <trkpt lat="46.0294" lon="3.19387">
        <ele>420.41809082</ele>
        <time>2014-04-07T12:48:57.242Z</time>
      </trkpt>
      <trkpt lat="46.02941" lon="3.19385">
        <ele>420.41204834</ele>
        <time>2014-04-07T12:48:58.219Z</time>
      </trkpt>
      <trkpt lat="46.02946" lon="3.19377">
        <ele>420.387268066</ele>
        <time>2014-04-07T12:49:03.2Z</time>
      </trkpt>
      <trkpt lat="46.02947" lon="3.19375">
        <ele>420.321228027</ele>
        <time>2014-04-07T12:49:04.249Z</time>
      </trkpt>
      <trkpt lat="46.02952" lon="3.19366">
        <ele>420.137268066</ele>
        <time>2014-04-07T12:49:11.023Z</time>
      </trkpt>
      <trkpt lat="46.02953" lon="3.19364">
        <ele>420.126403809</ele>
        <time>2014-04-07T12:49:11.181Z</time>
      </trkpt>
      <trkpt lat="46.02958" lon="3.19355">
        <ele>420.22265625</ele>
        <time>2014-04-07T12:49:16.736Z</time>
      </trkpt>
      <trkpt lat="46.02959" lon="3.19353">
        <ele>420.249328613</ele>
        <time>2014-04-07T12:49:17.207Z</time>
      </trkpt>
      <trkpt lat="46.02964" lon="3.19344">
        <ele>420.490325928</ele>
        <time>2014-04-07T12:49:23.27Z</time>
      </trkpt>
      <trkpt lat="46.02965" lon="3.19342">
        <ele>420.535003662</ele>
        <time>2014-04-07T12:49:24.209Z</time>
      </trkpt>
      <trkpt lat="46.02972" lon="3.19334">
        <ele>421.005493164</ele>
        <time>2014-04-07T12:49:30.275Z</time>
      </trkpt>
      <trkpt lat="46.02973" lon="3.19333">
        <ele>421.124694824</ele>
        <time>2014-04-07T12:49:31.315Z</time>
      </trkpt>
      <trkpt lat="46.02978" lon="3.19324">
        <ele>421.555541992</ele>
        <time>2014-04-07T12:49:38.428Z</time>
      </trkpt>
      <trkpt lat="46.02979" lon="3.19323">
        <ele>421.583740234</ele>
        <time>2014-04-07T12:49:39.22Z</time>
      </trkpt>
      <trkpt lat="46.02985" lon="3.19315">
        <ele>421.975036621</ele>
        <time>2014-04-07T12:49:44.744Z</time>
      </trkpt>
      <trkpt lat="46.02986" lon="3.19313">
        <ele>422.076934814</ele>
        <time>2014-04-07T12:49:45.203Z</time>
      </trkpt>
      <trkpt lat="46.0299" lon="3.19303">
        <ele>422.865844727</ele>
        <time>2014-04-07T12:49:52.267Z</time>
      </trkpt>
      <trkpt lat="46.02991" lon="3.19302">
        <ele>422.951324463</ele>
        <time>2014-04-07T12:49:53.71Z</time>
      </trkpt>
      <trkpt lat="46.02998" lon="3.19294">
        <ele>423.671325684</ele>
        <time>2014-04-07T12:49:59.839Z</time>
      </trkpt>
      <trkpt lat="46.02998" lon="3.19293">
        <ele>423.829101562</ele>
        <time>2014-04-07T12:50:00.288Z</time>
      </trkpt>
      <trkpt lat="46.03003" lon="3.19283">
        <ele>424.473266602</ele>
        <time>2014-04-07T12:50:06.239Z</time>
      </trkpt>
      <trkpt lat="46.03003" lon="3.19281">
        <ele>424.561798096</ele>
        <time>2014-04-07T12:50:07.62Z</time>
      </trkpt>
      <trkpt lat="46.03003" lon="3.19269">
        <ele>425.538879395</ele>
        <time>2014-04-07T12:50:16.193Z</time>
      </trkpt>
      <trkpt lat="46.03002" lon="3.19267">
        <ele>425.641113281</ele>
        <time>2014-04-07T12:50:17.184Z</time>
      </trkpt>
      <trkpt lat="46.02996" lon="3.19259">
        <ele>425.977783203</ele>
        <time>2014-04-07T12:50:22.191Z</time>
      </trkpt>
      <trkpt lat="46.02995" lon="3.19257">
        <ele>426.029602051</ele>
        <time>2014-04-07T12:50:23.188Z</time>
      </trkpt>
      <trkpt lat="46.02989" lon="3.19249">
        <ele>426.03616333</ele>
        <time>2014-04-07T12:50:29.316Z</time>
      </trkpt>
      <trkpt lat="46.02988" lon="3.19247">
        <ele>426.098266602</ele>
        <time>2014-04-07T12:50:30.186Z</time>
      </trkpt>
      <trkpt lat="46.02983" lon="3.19238">
        <ele>426.625335693</ele>
        <time>2014-04-07T12:50:36.197Z</time>
      </trkpt>
      <trkpt lat="46.02982" lon="3.19237">
        <ele>426.731536865</ele>
        <time>2014-04-07T12:50:37.187Z</time>
      </trkpt>
      <trkpt lat="46.02977" lon="3.19227">
        <ele>426.899841309</ele>
        <time>2014-04-07T12:50:43.197Z</time>
      </trkpt>
      <trkpt lat="46.02976" lon="3.19226">
        <ele>426.917785645</ele>
        <time>2014-04-07T12:50:44.191Z</time>
      </trkpt>
      <trkpt lat="46.02971" lon="3.19216">
        <ele>427.151916504</ele>
        <time>2014-04-07T12:50:51.203Z</time>
      </trkpt>
      <trkpt lat="46.0297" lon="3.19215">
        <ele>427.234924316</ele>
        <time>2014-04-07T12:50:52.188Z</time>
      </trkpt>
      <trkpt lat="46.02964" lon="3.19207">
        <ele>427.336975098</ele>
        <time>2014-04-07T12:50:58.198Z</time>
      </trkpt>
      <trkpt lat="46.02963" lon="3.19205">
        <ele>427.313568115</ele>
        <time>2014-04-07T12:50:59.189Z</time>
      </trkpt>
      <trkpt lat="46.02958" lon="3.19198">
        <ele>427.120300293</ele>
        <time>2014-04-07T12:51:05.197Z</time>
      </trkpt>
      <trkpt lat="46.02957" lon="3.19196">
        <ele>427.118927002</ele>
        <time>2014-04-07T12:51:06.191Z</time>
      </trkpt>
      <trkpt lat="46.02951" lon="3.19187">
        <ele>426.90914917</ele>
        <time>2014-04-07T12:51:12.213Z</time>
      </trkpt>
      <trkpt lat="46.0295" lon="3.19186">
        <ele>426.83895874</ele>
        <time>2014-04-07T12:51:13.193Z</time>
      </trkpt>
      <trkpt lat="46.02945" lon="3.19177">
        <ele>426.526031494</ele>
        <time>2014-04-07T12:51:19.148Z</time>
      </trkpt>
      <trkpt lat="46.02944" lon="3.19175">
        <ele>426.420166016</ele>
        <time>2014-04-07T12:51:19.201Z</time>
      </trkpt>
      <trkpt lat="46.02937" lon="3.19167">
        <ele>426.314575195</ele>
        <time>2014-04-07T12:51:25.202Z</time>
      </trkpt>
      <trkpt lat="46.02936" lon="3.19165">
        <ele>426.422851562</ele>
        <time>2014-04-07T12:51:26.19Z</time>
      </trkpt>
      <trkpt lat="46.02931" lon="3.19156">
        <ele>426.679595947</ele>
        <time>2014-04-07T12:51:35.199Z</time>
      </trkpt>
      <trkpt lat="46.0293" lon="3.19154">
        <ele>426.669067383</ele>
        <time>2014-04-07T12:51:36.19Z</time>
      </trkpt>
      <trkpt lat="46.02929" lon="3.19142">
        <ele>426.929473877</ele>
        <time>2014-04-07T12:51:42.194Z</time>
      </trkpt>
      <trkpt lat="46.02929" lon="3.19141">
        <ele>426.911895752</ele>
        <time>2014-04-07T12:51:43.197Z</time>
      </trkpt>
      <trkpt lat="46.02932" lon="3.19129">
        <ele>426.623565674</ele>
        <time>2014-04-07T12:51:51.209Z</time>
      </trkpt>
      <trkpt lat="46.02933" lon="3.19128">
        <ele>426.587768555</ele>
        <time>2014-04-07T12:51:52.204Z</time>
      </trkpt>
      <trkpt lat="46.02938" lon="3.1912">
        <ele>426.544830322</ele>
        <time>2014-04-07T12:51:57.225Z</time>
      </trkpt>
      <trkpt lat="46.02939" lon="3.19118">
        <ele>426.562591553</ele>
        <time>2014-04-07T12:51:58.191Z</time>
      </trkpt>
      <trkpt lat="46.02944" lon="3.19109">
        <ele>426.673461914</ele>
        <time>2014-04-07T12:52:03.197Z</time>
      </trkpt>
      <trkpt lat="46.02945" lon="3.19108">
        <ele>426.624725342</ele>
        <time>2014-04-07T12:52:04.191Z</time>
      </trkpt>
      <trkpt lat="46.02951" lon="3.19099">
        <ele>427.074157715</ele>
        <time>2014-04-07T12:52:11.234Z</time>
      </trkpt>
      <trkpt lat="46.02952" lon="3.19097">
        <ele>427.137573242</ele>
        <time>2014-04-07T12:52:12.199Z</time>
      </trkpt>
      <trkpt lat="46.02958" lon="3.19089">
        <ele>427.277587891</ele>
        <time>2014-04-07T12:52:17.211Z</time>
      </trkpt>
      <trkpt lat="46.02959" lon="3.19088">
        <ele>427.333251953</ele>
        <time>2014-04-07T12:52:18.198Z</time>
      </trkpt>
      <trkpt lat="46.02963" lon="3.19077">
        <ele>427.644042969</ele>
        <time>2014-04-07T12:52:24.318Z</time>
      </trkpt>
      <trkpt lat="46.02964" lon="3.19075">
        <ele>427.659484863</ele>
        <time>2014-04-07T12:52:25.203Z</time>
      </trkpt>
      <trkpt lat="46.02969" lon="3.19065">
        <ele>427.595245361</ele>
        <time>2014-04-07T12:52:32.213Z</time>
      </trkpt>
      <trkpt lat="46.02969" lon="3.19063">
        <ele>427.608612061</ele>
        <time>2014-04-07T12:52:33.189Z</time>
      </trkpt>
      <trkpt lat="46.02974" lon="3.19054">
        <ele>427.916748047</ele>
        <time>2014-04-07T12:52:39.501Z</time>
      </trkpt>
      <trkpt lat="46.02975" lon="3.19052">
        <ele>427.947662354</ele>
        <time>2014-04-07T12:52:40.26Z</time>
      </trkpt>
      <trkpt lat="46.02981" lon="3.19043">
        <ele>428.128204346</ele>
        <time>2014-04-07T12:52:45.2Z</time>
      </trkpt>
      <trkpt lat="46.02982" lon="3.19042">
        <ele>428.158905029</ele>
        <time>2014-04-07T12:52:46.203Z</time>
      </trkpt>
      <trkpt lat="46.02987" lon="3.19033">
        <ele>428.100860596</ele>
        <time>2014-04-07T12:52:52.216Z</time>
      </trkpt>
      <trkpt lat="46.02988" lon="3.19032">
        <ele>428.133056641</ele>
        <time>2014-04-07T12:52:53.194Z</time>
      </trkpt>
      <trkpt lat="46.02997" lon="3.1903">
        <ele>428.0859375</ele>
        <time>2014-04-07T12:53:00.211Z</time>
      </trkpt>
      <trkpt lat="46.02999" lon="3.1903">
        <ele>427.973205566</ele>
        <time>2014-04-07T12:53:01.214Z</time>
      </trkpt>
      <trkpt lat="46.03006" lon="3.19035">
        <ele>427.643707275</ele>
        <time>2014-04-07T12:53:06.397Z</time>
      </trkpt>
      <trkpt lat="46.03007" lon="3.19035">
        <ele>427.611877441</ele>
        <time>2014-04-07T12:53:07.201Z</time>
      </trkpt>
      <trkpt lat="46.03015" lon="3.1904">
        <ele>427.5753479</ele>
        <time>2014-04-07T12:53:14.21Z</time>
      </trkpt>
      <trkpt lat="46.03016" lon="3.1904">
        <ele>427.541412354</ele>
        <time>2014-04-07T12:53:15.202Z</time>
      </trkpt>
      <trkpt lat="46.03024" lon="3.19041">
        <ele>427.020446777</ele>
        <time>2014-04-07T12:53:22.223Z</time>
      </trkpt>
      <trkpt lat="46.03025" lon="3.1904">
        <ele>426.952667236</ele>
        <time>2014-04-07T12:53:23.207Z</time>
      </trkpt>
      <trkpt lat="46.03032" lon="3.19032">
        <ele>426.578521729</ele>
        <time>2014-04-07T12:53:29.308Z</time>
      </trkpt>
      <trkpt lat="46.03033" lon="3.1903">
        <ele>426.496917725</ele>
        <time>2014-04-07T12:53:30.199Z</time>
      </trkpt>
      <trkpt lat="46.03037" lon="3.1902">
        <ele>426.287322998</ele>
        <time>2014-04-07T12:53:38.804Z</time>
      </trkpt>
      <trkpt lat="46.03037" lon="3.19019">
        <ele>426.25491333</ele>
        <time>2014-04-07T12:53:39.208Z</time>
      </trkpt>
      <trkpt lat="46.03041" lon="3.19009">
        <ele>425.970214844</ele>
        <time>2014-04-07T12:53:44.423Z</time>
      </trkpt>
      <trkpt lat="46.03042" lon="3.19007">
        <ele>425.920562744</ele>
        <time>2014-04-07T12:53:45.218Z</time>
      </trkpt>
      <trkpt lat="46.03045" lon="3.18997">
        <ele>425.75012207</ele>
        <time>2014-04-07T12:53:49.822Z</time>
      </trkpt>
      <trkpt lat="46.03046" lon="3.18995">
        <ele>425.724121094</ele>
        <time>2014-04-07T12:53:50.208Z</time>
      </trkpt>
      <trkpt lat="46.0305" lon="3.18983">
        <ele>425.192352295</ele>
        <time>2014-04-07T12:53:56.253Z</time>
      </trkpt>
      <trkpt lat="46.0305" lon="3.18981">
        <ele>425.104644775</ele>
        <time>2014-04-07T12:53:57.35Z</time>
      </trkpt>
      <trkpt lat="46.03043" lon="3.18974">
        <ele>424.251251221</ele>
        <time>2014-04-07T12:54:07.242Z</time>
      </trkpt>
      <trkpt lat="46.03042" lon="3.18974">
        <ele>424.166351318</ele>
        <time>2014-04-07T12:54:08.191Z</time>
      </trkpt>
      <trkpt lat="46.03034" lon="3.18969">
        <ele>423.258300781</ele>
        <time>2014-04-07T12:54:14.433Z</time>
      </trkpt>
      <trkpt lat="46.03033" lon="3.18969">
        <ele>422.993103027</ele>
        <time>2014-04-07T12:54:15.2Z</time>
      </trkpt>
      <trkpt lat="46.03026" lon="3.18961">
        <ele>421.419189453</ele>
        <time>2014-04-07T12:54:21.251Z</time>
      </trkpt>
      <trkpt lat="46.03025" lon="3.18959">
        <ele>421.157409668</ele>
        <time>2014-04-07T12:54:22.203Z</time>
      </trkpt>
      <trkpt lat="46.03021" lon="3.18952">
        <ele>420.257324219</ele>
        <time>2014-04-07T12:54:26.383Z</time>
      </trkpt>
      <trkpt lat="46.03019" lon="3.18949">
        <ele>419.996307373</ele>
        <time>2014-04-07T12:54:27.184Z</time>
      </trkpt>
      <trkpt lat="46.03013" lon="3.18941">
        <ele>419.292541504</ele>
        <time>2014-04-07T12:54:31.328Z</time>
      </trkpt>
      <trkpt lat="46.03012" lon="3.18938">
        <ele>419.176544189</ele>
        <time>2014-04-07T12:54:32.223Z</time>
      </trkpt>
      <trkpt lat="46.03009" lon="3.18926">
        <ele>418.813201904</ele>
        <time>2014-04-07T12:54:39.073Z</time>
      </trkpt>
      <trkpt lat="46.03009" lon="3.18924">
        <ele>418.654388428</ele>
        <time>2014-04-07T12:54:39.625Z</time>
      </trkpt>
      <trkpt lat="46.0301" lon="3.18912">
        <ele>417.847869873</ele>
        <time>2014-04-07T12:54:46.122Z</time>
      </trkpt>
      <trkpt lat="46.03011" lon="3.18911">
        <ele>417.775115967</ele>
        <time>2014-04-07T12:54:46.634Z</time>
      </trkpt>
      <trkpt lat="46.03013" lon="3.189">
        <ele>417.268859863</ele>
        <time>2014-04-07T12:54:53.91Z</time>
      </trkpt>
      <trkpt lat="46.03013" lon="3.18898">
        <ele>417.243286133</ele>
        <time>2014-04-07T12:54:54.645Z</time>
      </trkpt>
      <trkpt lat="46.03015" lon="3.18885">
        <ele>417.369262695</ele>
        <time>2014-04-07T12:55:00.656Z</time>
      </trkpt>
      <trkpt lat="46.03015" lon="3.18883">
        <ele>417.449645996</ele>
        <time>2014-04-07T12:55:01.634Z</time>
      </trkpt>
      <trkpt lat="46.03017" lon="3.18871">
        <ele>417.882263184</ele>
        <time>2014-04-07T12:55:06.762Z</time>
      </trkpt>
      <trkpt lat="46.03017" lon="3.18869">
        <ele>417.927856445</ele>
        <time>2014-04-07T12:55:07.637Z</time>
      </trkpt>
      <trkpt lat="46.0302" lon="3.18857">
        <ele>417.788208008</ele>
        <time>2014-04-07T12:55:13.672Z</time>
      </trkpt>
      <trkpt lat="46.0302" lon="3.18855">
        <ele>417.79385376</ele>
        <time>2014-04-07T12:55:14.645Z</time>
      </trkpt>
      <trkpt lat="46.03023" lon="3.18846">
        <ele>418.01864624</ele>
        <time>2014-04-07T12:55:19.939Z</time>
      </trkpt>
      <trkpt lat="46.03024" lon="3.18843">
        <ele>418.030670166</ele>
        <time>2014-04-07T12:55:20.642Z</time>
      </trkpt>
      <trkpt lat="46.03027" lon="3.18832">
        <ele>417.889678955</ele>
        <time>2014-04-07T12:55:26.673Z</time>
      </trkpt>
      <trkpt lat="46.03027" lon="3.1883">
        <ele>417.821838379</ele>
        <time>2014-04-07T12:55:27.642Z</time>
      </trkpt>
      <trkpt lat="46.03028" lon="3.18818">
        <ele>417.924804688</ele>
        <time>2014-04-07T12:55:34.999Z</time>
      </trkpt>
      <trkpt lat="46.03028" lon="3.18817">
        <ele>417.871490479</ele>
        <time>2014-04-07T12:55:35.636Z</time>
      </trkpt>
      <trkpt lat="46.03028" lon="3.18806">
        <ele>417.678436279</ele>
        <time>2014-04-07T12:55:42.238Z</time>
      </trkpt>
      <trkpt lat="46.03028" lon="3.18803">
        <ele>417.790802002</ele>
        <time>2014-04-07T12:55:42.63Z</time>
      </trkpt>
      <trkpt lat="46.03027" lon="3.18792">
        <ele>418.407958984</ele>
        <time>2014-04-07T12:55:50.411Z</time>
      </trkpt>
      <trkpt lat="46.03027" lon="3.1879">
        <ele>418.506072998</ele>
        <time>2014-04-07T12:55:50.606Z</time>
      </trkpt>
      <trkpt lat="46.03028" lon="3.18778">
        <ele>419.122894287</ele>
        <time>2014-04-07T12:55:56.609Z</time>
      </trkpt>
      <trkpt lat="46.03028" lon="3.18776">
        <ele>419.239776611</ele>
        <time>2014-04-07T12:55:57.605Z</time>
      </trkpt>
      <trkpt lat="46.03029" lon="3.18764">
        <ele>420.236755371</ele>
        <time>2014-04-07T12:56:05.447Z</time>
      </trkpt>
      <trkpt lat="46.0303" lon="3.18763">
        <ele>420.279266357</ele>
        <time>2014-04-07T12:56:06.161Z</time>
      </trkpt>
      <trkpt lat="46.03032" lon="3.18753">
        <ele>420.703430176</ele>
        <time>2014-04-07T12:56:10.835Z</time>
      </trkpt>
      <trkpt lat="46.03033" lon="3.1875">
        <ele>420.733734131</ele>
        <time>2014-04-07T12:56:11.64Z</time>
      </trkpt>
      <trkpt lat="46.03036" lon="3.18739">
        <ele>420.904571533</ele>
        <time>2014-04-07T12:56:18.055Z</time>
      </trkpt>
      <trkpt lat="46.03037" lon="3.18737">
        <ele>420.998321533</ele>
        <time>2014-04-07T12:56:18.643Z</time>
      </trkpt>
      <trkpt lat="46.03045" lon="3.18735">
        <ele>421.437866211</ele>
        <time>2014-04-07T12:56:26.991Z</time>
      </trkpt>
      <trkpt lat="46.03047" lon="3.18736">
        <ele>421.47479248</ele>
        <time>2014-04-07T12:56:27.829Z</time>
      </trkpt>
      <trkpt lat="46.03055" lon="3.18739">
        <ele>421.373565674</ele>
        <time>2014-04-07T12:56:34.739Z</time>
      </trkpt>
      <trkpt lat="46.03055" lon="3.18739">
        <ele>421.380645752</ele>
        <time>2014-04-07T12:56:35.646Z</time>
      </trkpt>
      <trkpt lat="46.03063" lon="3.18744">
        <ele>421.576080322</ele>
        <time>2014-04-07T12:56:42.888Z</time>
      </trkpt>
      <trkpt lat="46.03063" lon="3.18745">
        <ele>421.616485596</ele>
        <time>2014-04-07T12:56:43.65Z</time>
      </trkpt>
      <trkpt lat="46.0307" lon="3.18753">
        <ele>421.742645264</ele>
        <time>2014-04-07T12:56:54.943Z</time>
      </trkpt>
      <trkpt lat="46.0307" lon="3.18754">
        <ele>421.814575195</ele>
        <time>2014-04-07T12:56:56.303Z</time>
      </trkpt>
      <trkpt lat="46.03078" lon="3.18758">
        <ele>421.818115234</ele>
        <time>2014-04-07T12:57:00.648Z</time>
      </trkpt>
      <trkpt lat="46.0308" lon="3.18759">
        <ele>421.907897949</ele>
        <time>2014-04-07T12:57:01.675Z</time>
      </trkpt>
      <trkpt lat="46.03088" lon="3.18764">
        <ele>422.211883545</ele>
        <time>2014-04-07T12:57:05.81Z</time>
      </trkpt>
      <trkpt lat="46.0309" lon="3.18765">
        <ele>422.31338501</ele>
        <time>2014-04-07T12:57:06.658Z</time>
      </trkpt>
      <trkpt lat="46.03097" lon="3.18769">
        <ele>423.094421387</ele>
        <time>2014-04-07T12:57:12.661Z</time>
      </trkpt>
      <trkpt lat="46.03099" lon="3.1877">
        <ele>423.309875488</ele>
        <time>2014-04-07T12:57:13.663Z</time>
      </trkpt>
      <trkpt lat="46.03107" lon="3.18773">
        <ele>424.332244873</ele>
        <time>2014-04-07T12:57:19.742Z</time>
      </trkpt>
      <trkpt lat="46.0311" lon="3.18775">
        <ele>424.719268799</ele>
        <time>2014-04-07T12:57:20.648Z</time>
      </trkpt>
      <trkpt lat="46.03117" lon="3.18779">
        <ele>425.228302002</ele>
        <time>2014-04-07T12:57:26.178Z</time>
      </trkpt>
      <trkpt lat="46.03119" lon="3.1878">
        <ele>425.260528564</ele>
        <time>2014-04-07T12:57:26.651Z</time>
      </trkpt>
      <trkpt lat="46.03126" lon="3.18786">
        <ele>425.322906494</ele>
        <time>2014-04-07T12:57:34.71Z</time>
      </trkpt>
      <trkpt lat="46.03127" lon="3.18787">
        <ele>425.359375</ele>
        <time>2014-04-07T12:57:35.988Z</time>
      </trkpt>
      <trkpt lat="46.03134" lon="3.18793">
        <ele>425.736083984</ele>
        <time>2014-04-07T12:57:45.212Z</time>
      </trkpt>
      <trkpt lat="46.03135" lon="3.18793">
        <ele>425.825927734</ele>
        <time>2014-04-07T12:57:45.645Z</time>
      </trkpt>
      <trkpt lat="46.03144" lon="3.18795">
        <ele>426.226074219</ele>
        <time>2014-04-07T12:57:51.955Z</time>
      </trkpt>
      <trkpt lat="46.03145" lon="3.18795">
        <ele>426.275054932</ele>
        <time>2014-04-07T12:57:52.773Z</time>
      </trkpt>
      <trkpt lat="46.03154" lon="3.18796">
        <ele>426.525390625</ele>
        <time>2014-04-07T12:57:58.084Z</time>
      </trkpt>
      <trkpt lat="46.03155" lon="3.18797">
        <ele>426.483825684</ele>
        <time>2014-04-07T12:57:58.649Z</time>
      </trkpt>
      <trkpt lat="46.03163" lon="3.18797">
        <ele>426.64175415</ele>
        <time>2014-04-07T12:58:03.811Z</time>
      </trkpt>
      <trkpt lat="46.03165" lon="3.18798">
        <ele>426.73727417</ele>
        <time>2014-04-07T12:58:04.972Z</time>
      </trkpt>
      <trkpt lat="46.03173" lon="3.188">
        <ele>427.003356934</ele>
        <time>2014-04-07T12:58:12.411Z</time>
      </trkpt>
      <trkpt lat="46.03174" lon="3.18801">
        <ele>426.957489014</ele>
        <time>2014-04-07T12:58:12.617Z</time>
      </trkpt>
      <trkpt lat="46.03181" lon="3.18803">
        <ele>427.130828857</ele>
        <time>2014-04-07T12:58:16.867Z</time>
      </trkpt>
      <trkpt lat="46.03183" lon="3.18802">
        <ele>427.209686279</ele>
        <time>2014-04-07T12:58:18.077Z</time>
      </trkpt>
      <trkpt lat="46.03191" lon="3.18805">
        <ele>427.972442627</ele>
        <time>2014-04-07T12:58:23.323Z</time>
      </trkpt>
      <trkpt lat="46.03192" lon="3.18806">
        <ele>428.163970947</ele>
        <time>2014-04-07T12:58:23.646Z</time>
      </trkpt>
      <trkpt lat="46.032" lon="3.18811">
        <ele>429.253967285</ele>
        <time>2014-04-07T12:58:29.929Z</time>
      </trkpt>
      <trkpt lat="46.03201" lon="3.18812">
        <ele>429.436187744</ele>
        <time>2014-04-07T12:58:30.641Z</time>
      </trkpt>
      <trkpt lat="46.03208" lon="3.18818">
        <ele>429.945129395</ele>
        <time>2014-04-07T12:58:36.288Z</time>
      </trkpt>
      <trkpt lat="46.0321" lon="3.18819">
        <ele>430.032775879</ele>
        <time>2014-04-07T12:58:36.623Z</time>
      </trkpt>
      <trkpt lat="46.03218" lon="3.18823">
        <ele>430.789733887</ele>
        <time>2014-04-07T12:58:44.053Z</time>
      </trkpt>
      <trkpt lat="46.03219" lon="3.18823">
        <ele>430.881622314</ele>
        <time>2014-04-07T12:58:45.278Z</time>
      </trkpt>
      <trkpt lat="46.03226" lon="3.18825">
        <ele>430.983001709</ele>
        <time>2014-04-07T12:58:50.08Z</time>
      </trkpt>
      <trkpt lat="46.03228" lon="3.18825">
        <ele>431.018035889</ele>
        <time>2014-04-07T12:58:50.652Z</time>
      </trkpt>
      <trkpt lat="46.03236" lon="3.18829">
        <ele>431.183288574</ele>
        <time>2014-04-07T12:58:57.876Z</time>
      </trkpt>
      <trkpt lat="46.03237" lon="3.1883">
        <ele>431.219818115</ele>
        <time>2014-04-07T12:58:58.653Z</time>
      </trkpt>
      <trkpt lat="46.03246" lon="3.18832">
        <ele>431.377502441</ele>
        <time>2014-04-07T12:59:05.913Z</time>
      </trkpt>
      <trkpt lat="46.03247" lon="3.18833">
        <ele>431.387573242</ele>
        <time>2014-04-07T12:59:06.796Z</time>
      </trkpt>
      <trkpt lat="46.03256" lon="3.18836">
        <ele>431.386230469</ele>
        <time>2014-04-07T12:59:13.01Z</time>
      </trkpt>
      <trkpt lat="46.03257" lon="3.18836">
        <ele>431.404968262</ele>
        <time>2014-04-07T12:59:13.662Z</time>
      </trkpt>
      <trkpt lat="46.03265" lon="3.18837">
        <ele>431.383453369</ele>
        <time>2014-04-07T12:59:18.831Z</time>
      </trkpt>
      <trkpt lat="46.03267" lon="3.18837">
        <ele>431.396728516</ele>
        <time>2014-04-07T12:59:19.638Z</time>
      </trkpt>
      <trkpt lat="46.03274" lon="3.18842">
        <ele>431.122802734</ele>
        <time>2014-04-07T12:59:27.975Z</time>
      </trkpt>
      <trkpt lat="46.03275" lon="3.18842">
        <ele>431.082641602</ele>
        <time>2014-04-07T12:59:28.643Z</time>
      </trkpt>
      <trkpt lat="46.03283" lon="3.18846">
        <ele>430.801239014</ele>
        <time>2014-04-07T12:59:34.712Z</time>
      </trkpt>
      <trkpt lat="46.03285" lon="3.18846">
        <ele>430.836242676</ele>
        <time>2014-04-07T12:59:35.61Z</time>
      </trkpt>
      <trkpt lat="46.03292" lon="3.18848">
        <ele>430.916564941</ele>
        <time>2014-04-07T12:59:41.156Z</time>
      </trkpt>
      <trkpt lat="46.03293" lon="3.18849">
        <ele>430.906433105</ele>
        <time>2014-04-07T12:59:41.623Z</time>
      </trkpt>
      <trkpt lat="46.03301" lon="3.18851">
        <ele>430.796478271</ele>
        <time>2014-04-07T12:59:46.935Z</time>
      </trkpt>
      <trkpt lat="46.03302" lon="3.18851">
        <ele>430.752349854</ele>
        <time>2014-04-07T12:59:47.635Z</time>
      </trkpt>
      <trkpt lat="46.03311" lon="3.18854">
        <ele>430.819458008</ele>
        <time>2014-04-07T12:59:53.674Z</time>
      </trkpt>
      <trkpt lat="46.03312" lon="3.18854">
        <ele>430.901824951</ele>
        <time>2014-04-07T12:59:54.653Z</time>
      </trkpt>
      <trkpt lat="46.0332" lon="3.18857">
        <ele>431.172821045</ele>
        <time>2014-04-07T13:00:00.951Z</time>
      </trkpt>
      <trkpt lat="46.03322" lon="3.18857">
        <ele>431.221343994</ele>
        <time>2014-04-07T13:00:01.669Z</time>
      </trkpt>
      <trkpt lat="46.0333" lon="3.18859">
        <ele>431.178771973</ele>
        <time>2014-04-07T13:00:06.935Z</time>
      </trkpt>
      <trkpt lat="46.03331" lon="3.18859">
        <ele>431.149810791</ele>
        <time>2014-04-07T13:00:07.649Z</time>
      </trkpt>
      <trkpt lat="46.03339" lon="3.18861">
        <ele>431.192474365</ele>
        <time>2014-04-07T13:00:14.591Z</time>
      </trkpt>
      <trkpt lat="46.03341" lon="3.18861">
        <ele>431.177459717</ele>
        <time>2014-04-07T13:00:14.863Z</time>
      </trkpt>
      <trkpt lat="46.03348" lon="3.18865">
        <ele>431.241638184</ele>
        <time>2014-04-07T13:00:20.223Z</time>
      </trkpt>
      <trkpt lat="46.0335" lon="3.18866">
        <ele>431.29901123</ele>
        <time>2014-04-07T13:00:20.626Z</time>
      </trkpt>
      <trkpt lat="46.03357" lon="3.18869">
        <ele>431.851806641</ele>
        <time>2014-04-07T13:00:26.67Z</time>
      </trkpt>
      <trkpt lat="46.03359" lon="3.1887">
        <ele>431.927856445</ele>
        <time>2014-04-07T13:00:27.639Z</time>
      </trkpt>
      <trkpt lat="46.03365" lon="3.18873">
        <ele>432.397247314</ele>
        <time>2014-04-07T13:00:32.796Z</time>
      </trkpt>
      <trkpt lat="46.03368" lon="3.18874">
        <ele>432.56942749</ele>
        <time>2014-04-07T13:00:33.642Z</time>
      </trkpt>
      <trkpt lat="46.03376" lon="3.18877">
        <ele>433.027832031</ele>
        <time>2014-04-07T13:00:38.67Z</time>
      </trkpt>
      <trkpt lat="46.03378" lon="3.18878">
        <ele>433.14944458</ele>
        <time>2014-04-07T13:00:39.687Z</time>
      </trkpt>
      <trkpt lat="46.03386" lon="3.18882">
        <ele>433.514984131</ele>
        <time>2014-04-07T13:00:45.817Z</time>
      </trkpt>
      <trkpt lat="46.03387" lon="3.18882">
        <ele>433.61239624</ele>
        <time>2014-04-07T13:00:46.619Z</time>
      </trkpt>
      <trkpt lat="46.03395" lon="3.18886">
        <ele>434.364654541</ele>
        <time>2014-04-07T13:00:52.671Z</time>
      </trkpt>
      <trkpt lat="46.03397" lon="3.18887">
        <ele>434.498535156</ele>
        <time>2014-04-07T13:00:53.661Z</time>
      </trkpt>
      <trkpt lat="46.03404" lon="3.18892">
        <ele>435.020111084</ele>
        <time>2014-04-07T13:00:59.998Z</time>
      </trkpt>
      <trkpt lat="46.03406" lon="3.18893">
        <ele>435.112487793</ele>
        <time>2014-04-07T13:01:00.61Z</time>
      </trkpt>
      <trkpt lat="46.03414" lon="3.18894">
        <ele>435.459075928</ele>
        <time>2014-04-07T13:01:09.573Z</time>
      </trkpt>
      <trkpt lat="46.03415" lon="3.18893">
        <ele>435.55670166</ele>
        <time>2014-04-07T13:01:09.987Z</time>
      </trkpt>
      <trkpt lat="46.0342" lon="3.18884">
        <ele>436.283996582</ele>
        <time>2014-04-07T13:01:15.82Z</time>
      </trkpt>
      <trkpt lat="46.03421" lon="3.18883">
        <ele>436.432861328</ele>
        <time>2014-04-07T13:01:16.772Z</time>
      </trkpt>
      <trkpt lat="46.03425" lon="3.18871">
        <ele>436.766601562</ele>
        <time>2014-04-07T13:01:22.672Z</time>
      </trkpt>
      <trkpt lat="46.03426" lon="3.18869">
        <ele>436.746490479</ele>
        <time>2014-04-07T13:01:23.622Z</time>
      </trkpt>
      <trkpt lat="46.03428" lon="3.18858">
        <ele>437.06918335</ele>
        <time>2014-04-07T13:01:30.403Z</time>
      </trkpt>
      <trkpt lat="46.03429" lon="3.18856">
        <ele>437.126525879</ele>
        <time>2014-04-07T13:01:30.649Z</time>
      </trkpt>
      <trkpt lat="46.03431" lon="3.18844">
        <ele>437.533447266</ele>
        <time>2014-04-07T13:01:37.9Z</time>
      </trkpt>
      <trkpt lat="46.03431" lon="3.18842">
        <ele>437.532318115</ele>
        <time>2014-04-07T13:01:38.66Z</time>
      </trkpt>
      <trkpt lat="46.03433" lon="3.1883">
        <ele>437.421020508</ele>
        <time>2014-04-07T13:01:43.708Z</time>
      </trkpt>
      <trkpt lat="46.03434" lon="3.18828">
        <ele>437.417724609</ele>
        <time>2014-04-07T13:01:44.636Z</time>
      </trkpt>
      <trkpt lat="46.03435" lon="3.18817">
        <ele>437.620727539</ele>
        <time>2014-04-07T13:01:50.514Z</time>
      </trkpt>
      <trkpt lat="46.03435" lon="3.18815">
        <ele>437.681518555</ele>
        <time>2014-04-07T13:01:50.768Z</time>
      </trkpt>
      <trkpt lat="46.03436" lon="3.18802">
        <ele>438.111541748</ele>
        <time>2014-04-07T13:01:55.951Z</time>
      </trkpt>
      <trkpt lat="46.03436" lon="3.18801">
        <ele>438.190032959</ele>
        <time>2014-04-07T13:01:56.629Z</time>
      </trkpt>
      <trkpt lat="46.03437" lon="3.18789">
        <ele>438.844665527</ele>
        <time>2014-04-07T13:02:02.913Z</time>
      </trkpt>
      <trkpt lat="46.03438" lon="3.18787">
        <ele>438.973571777</ele>
        <time>2014-04-07T13:02:03.646Z</time>
      </trkpt>
      <trkpt lat="46.03437" lon="3.18776">
        <ele>440.102722168</ele>
        <time>2014-04-07T13:02:11.83Z</time>
      </trkpt>
      <trkpt lat="46.03437" lon="3.18774">
        <ele>440.200256348</ele>
        <time>2014-04-07T13:02:12.647Z</time>
      </trkpt>
      <trkpt lat="46.03438" lon="3.18763">
        <ele>441.306854248</ele>
        <time>2014-04-07T13:02:19.652Z</time>
      </trkpt>
      <trkpt lat="46.03439" lon="3.18757">
        <ele>441.737854004</ele>
        <time>2014-04-07T13:02:20.65Z</time>
      </trkpt>
      <trkpt lat="46.0344" lon="3.18746">
        <ele>442.192687988</ele>
        <time>2014-04-07T13:02:26.083Z</time>
      </trkpt>
      <trkpt lat="46.03441" lon="3.18744">
        <ele>442.210510254</ele>
        <time>2014-04-07T13:02:26.644Z</time>
      </trkpt>
      <trkpt lat="46.03441" lon="3.18732">
        <ele>442.254150391</ele>
        <time>2014-04-07T13:02:33.402Z</time>
      </trkpt>
      <trkpt lat="46.03442" lon="3.1873">
        <ele>442.352783203</ele>
        <time>2014-04-07T13:02:33.619Z</time>
      </trkpt>
      <trkpt lat="46.03444" lon="3.18718">
        <ele>443.423095703</ele>
        <time>2014-04-07T13:02:40.262Z</time>
      </trkpt>
      <trkpt lat="46.03444" lon="3.18716">
        <ele>443.569244385</ele>
        <time>2014-04-07T13:02:40.65Z</time>
      </trkpt>
      <trkpt lat="46.03447" lon="3.18706">
        <ele>444.35647583</ele>
        <time>2014-04-07T13:02:46.651Z</time>
      </trkpt>
      <trkpt lat="46.03447" lon="3.18704">
        <ele>444.492919922</ele>
        <time>2014-04-07T13:02:47.653Z</time>
      </trkpt>
      <trkpt lat="46.03449" lon="3.18691">
        <ele>445.041900635</ele>
        <time>2014-04-07T13:02:53.46Z</time>
      </trkpt>
      <trkpt lat="46.03449" lon="3.1869">
        <ele>445.118164062</ele>
        <time>2014-04-07T13:02:54.008Z</time>
      </trkpt>
      <trkpt lat="46.03449" lon="3.18678">
        <ele>445.8125</ele>
        <time>2014-04-07T13:03:00.557Z</time>
      </trkpt>
      <trkpt lat="46.03449" lon="3.18676">
        <ele>445.873748779</ele>
        <time>2014-04-07T13:03:00.638Z</time>
      </trkpt>
      <trkpt lat="46.03448" lon="3.18668">
        <ele>446.011627197</ele>
        <time>2014-04-07T13:03:05.644Z</time>
      </trkpt>
      <trkpt lat="46.03447" lon="3.18663">
        <ele>446.037567139</ele>
        <time>2014-04-07T13:03:06.624Z</time>
      </trkpt>
      <trkpt lat="46.03445" lon="3.18652">
        <ele>446.505126953</ele>
        <time>2014-04-07T13:03:14.09Z</time>
      </trkpt>
      <trkpt lat="46.03445" lon="3.1865">
        <ele>446.627716064</ele>
        <time>2014-04-07T13:03:15.201Z</time>
      </trkpt>
      <trkpt lat="46.03443" lon="3.18639">
        <ele>447.420715332</ele>
        <time>2014-04-07T13:03:20.624Z</time>
      </trkpt>
      <trkpt lat="46.03443" lon="3.18636">
        <ele>447.453399658</ele>
        <time>2014-04-07T13:03:21.618Z</time>
      </trkpt>
      <trkpt lat="46.03441" lon="3.18624">
        <ele>447.867797852</ele>
        <time>2014-04-07T13:03:29.903Z</time>
      </trkpt>
      <trkpt lat="46.03442" lon="3.18622">
        <ele>447.98324585</ele>
        <time>2014-04-07T13:03:30.647Z</time>
      </trkpt>
      <trkpt lat="46.03449" lon="3.18615">
        <ele>448.840576172</ele>
        <time>2014-04-07T13:03:38.872Z</time>
      </trkpt>
      <trkpt lat="46.0345" lon="3.18616">
        <ele>448.896209717</ele>
        <time>2014-04-07T13:03:39.656Z</time>
      </trkpt>
      <trkpt lat="46.03457" lon="3.1862">
        <ele>449.096832275</ele>
        <time>2014-04-07T13:03:45.165Z</time>
      </trkpt>
      <trkpt lat="46.03459" lon="3.1862">
        <ele>449.104705811</ele>
        <time>2014-04-07T13:03:45.652Z</time>
      </trkpt>
      <trkpt lat="46.03467" lon="3.18625">
        <ele>449.12512207</ele>
        <time>2014-04-07T13:03:52.028Z</time>
      </trkpt>
      <trkpt lat="46.03468" lon="3.18625">
        <ele>449.125946045</ele>
        <time>2014-04-07T13:03:52.663Z</time>
      </trkpt>
      <trkpt lat="46.03475" lon="3.18632">
        <ele>449.068237305</ele>
        <time>2014-04-07T13:04:02.234Z</time>
      </trkpt>
      <trkpt lat="46.03476" lon="3.18633">
        <ele>449.026733398</ele>
        <time>2014-04-07T13:04:02.655Z</time>
      </trkpt>
      <trkpt lat="46.03484" lon="3.18638">
        <ele>448.935089111</ele>
        <time>2014-04-07T13:04:12.812Z</time>
      </trkpt>
      <trkpt lat="46.03485" lon="3.18638">
        <ele>448.91784668</ele>
        <time>2014-04-07T13:04:14.153Z</time>
      </trkpt>
      <trkpt lat="46.03494" lon="3.18641">
        <ele>448.567108154</ele>
        <time>2014-04-07T13:04:20.856Z</time>
      </trkpt>
      <trkpt lat="46.03495" lon="3.18641">
        <ele>448.522888184</ele>
        <time>2014-04-07T13:04:21.793Z</time>
      </trkpt>
      <trkpt lat="46.03502" lon="3.18646">
        <ele>447.807403564</ele>
        <time>2014-04-07T13:04:27.815Z</time>
      </trkpt>
      <trkpt lat="46.03504" lon="3.18646">
        <ele>447.664459229</ele>
        <time>2014-04-07T13:04:28.645Z</time>
      </trkpt>
      <trkpt lat="46.03512" lon="3.1865">
        <ele>447.257049561</ele>
        <time>2014-04-07T13:04:35.753Z</time>
      </trkpt>
      <trkpt lat="46.03513" lon="3.18651">
        <ele>447.18838501</ele>
        <time>2014-04-07T13:04:37.209Z</time>
      </trkpt>
      <trkpt lat="46.0352" lon="3.18657">
        <ele>446.899505615</ele>
        <time>2014-04-07T13:04:45.92Z</time>
      </trkpt>
      <trkpt lat="46.03522" lon="3.18658">
        <ele>446.874938965</ele>
        <time>2014-04-07T13:04:46.626Z</time>
      </trkpt>
      <trkpt lat="46.0353" lon="3.18661">
        <ele>446.823822021</ele>
        <time>2014-04-07T13:04:53.8Z</time>
      </trkpt>
      <trkpt lat="46.03531" lon="3.18662">
        <ele>446.78125</ele>
        <time>2014-04-07T13:04:54.826Z</time>
      </trkpt>
      <trkpt lat="46.03539" lon="3.18666">
        <ele>446.723083496</ele>
        <time>2014-04-07T13:05:01.959Z</time>
      </trkpt>
      <trkpt lat="46.0354" lon="3.18667">
        <ele>446.690887451</ele>
        <time>2014-04-07T13:05:02.636Z</time>
      </trkpt>
      <trkpt lat="46.03548" lon="3.18672">
        <ele>446.451202393</ele>
        <time>2014-04-07T13:05:10.006Z</time>
      </trkpt>
      <trkpt lat="46.03549" lon="3.18672">
        <ele>446.446075439</ele>
        <time>2014-04-07T13:05:10.798Z</time>
      </trkpt>
      <trkpt lat="46.03557" lon="3.18676">
        <ele>445.952148438</ele>
        <time>2014-04-07T13:05:18.675Z</time>
      </trkpt>
      <trkpt lat="46.03558" lon="3.18677">
        <ele>445.891723633</ele>
        <time>2014-04-07T13:05:19.665Z</time>
      </trkpt>
      <trkpt lat="46.03567" lon="3.18679">
        <ele>445.946563721</ele>
        <time>2014-04-07T13:05:26.928Z</time>
      </trkpt>
      <trkpt lat="46.03568" lon="3.1868">
        <ele>446.097015381</ele>
        <time>2014-04-07T13:05:27.633Z</time>
      </trkpt>
      <trkpt lat="46.03575" lon="3.18684">
        <ele>446.965820312</ele>
        <time>2014-04-07T13:05:33.982Z</time>
      </trkpt>
      <trkpt lat="46.03577" lon="3.18685">
        <ele>447.309051514</ele>
        <time>2014-04-07T13:05:34.652Z</time>
      </trkpt>
      <trkpt lat="46.03584" lon="3.18688">
        <ele>448.977142334</ele>
        <time>2014-04-07T13:05:38.948Z</time>
      </trkpt>
      <trkpt lat="46.03586" lon="3.18689">
        <ele>449.330932617</ele>
        <time>2014-04-07T13:05:39.634Z</time>
      </trkpt>
      <trkpt lat="46.03593" lon="3.1869">
        <ele>451.140167236</ele>
        <time>2014-04-07T13:05:43.82Z</time>
      </trkpt>
      <trkpt lat="46.03595" lon="3.18691">
        <ele>451.625762939</ele>
        <time>2014-04-07T13:05:44.779Z</time>
      </trkpt>
      <trkpt lat="46.03602" lon="3.18694">
        <ele>452.867004395</ele>
        <time>2014-04-07T13:05:47.886Z</time>
      </trkpt>
      <trkpt lat="46.03604" lon="3.18695">
        <ele>453.22354126</ele>
        <time>2014-04-07T13:05:48.632Z</time>
      </trkpt>
      <trkpt lat="46.03612" lon="3.18696">
        <ele>455.279418945</ele>
        <time>2014-04-07T13:05:53.674Z</time>
      </trkpt>
      <trkpt lat="46.03613" lon="3.18696">
        <ele>455.668914795</ele>
        <time>2014-04-07T13:05:54.651Z</time>
      </trkpt>
      <trkpt lat="46.0362" lon="3.18696">
        <ele>457.011352539</ele>
        <time>2014-04-07T13:05:58.995Z</time>
      </trkpt>
      <trkpt lat="46.03623" lon="3.18696">
        <ele>457.272888184</ele>
        <time>2014-04-07T13:05:59.676Z</time>
      </trkpt>
      <trkpt lat="46.03632" lon="3.18696">
        <ele>458.695709229</ele>
        <time>2014-04-07T13:06:05.528Z</time>
      </trkpt>
      <trkpt lat="46.03633" lon="3.18696">
        <ele>458.928039551</ele>
        <time>2014-04-07T13:06:05.657Z</time>
      </trkpt>
      <trkpt lat="46.03642" lon="3.18696">
        <ele>460.099029541</ele>
        <time>2014-04-07T13:06:12.885Z</time>
      </trkpt>
      <trkpt lat="46.03642" lon="3.18696">
        <ele>460.252960205</ele>
        <time>2014-04-07T13:06:13.867Z</time>
      </trkpt>
      <trkpt lat="46.03651" lon="3.18696">
        <ele>462.447479248</ele>
        <time>2014-04-07T13:06:29.004Z</time>
      </trkpt>
      <trkpt lat="46.03652" lon="3.18695">
        <ele>462.587188721</ele>
        <time>2014-04-07T13:06:29.624Z</time>
      </trkpt>
      <trkpt lat="46.03661" lon="3.18695">
        <ele>464.030456543</ele>
        <time>2014-04-07T13:06:39.767Z</time>
      </trkpt>
      <trkpt lat="46.03662" lon="3.18695">
        <ele>464.089538574</ele>
        <time>2014-04-07T13:06:40.639Z</time>
      </trkpt>
      <trkpt lat="46.03671" lon="3.18694">
        <ele>464.662353516</ele>
        <time>2014-04-07T13:06:46.897Z</time>
      </trkpt>
      <trkpt lat="46.03672" lon="3.18694">
        <ele>464.812927246</ele>
        <time>2014-04-07T13:06:47.713Z</time>
      </trkpt>
      <trkpt lat="46.0368" lon="3.18693">
        <ele>466.591217041</ele>
        <time>2014-04-07T13:06:58.878Z</time>
      </trkpt>
      <trkpt lat="46.03681" lon="3.18693">
        <ele>466.740875244</ele>
        <time>2014-04-07T13:06:59.626Z</time>
      </trkpt>
      <trkpt lat="46.03689" lon="3.18692">
        <ele>468.117034912</ele>
        <time>2014-04-07T13:07:07.96Z</time>
      </trkpt>
      <trkpt lat="46.03691" lon="3.18691">
        <ele>468.286529541</ele>
        <time>2014-04-07T13:07:08.656Z</time>
      </trkpt>
      <trkpt lat="46.03698" lon="3.18689">
        <ele>470.183135986</ele>
        <time>2014-04-07T13:07:11.656Z</time>
      </trkpt>
      <trkpt lat="46.037" lon="3.1869">
        <ele>470.242156982</ele>
        <time>2014-04-07T13:07:12.988Z</time>
      </trkpt>
      <trkpt lat="46.03708" lon="3.18692">
        <ele>470.767028809</ele>
        <time>2014-04-07T13:07:21.821Z</time>
      </trkpt>
      <trkpt lat="46.0371" lon="3.18693">
        <ele>470.718505859</ele>
        <time>2014-04-07T13:07:22.712Z</time>
      </trkpt>
      <trkpt lat="46.03714" lon="3.18702">
        <ele>470.881713867</ele>
        <time>2014-04-07T13:07:30.794Z</time>
      </trkpt>
      <trkpt lat="46.03715" lon="3.18703">
        <ele>470.891601562</ele>
        <time>2014-04-07T13:07:31.768Z</time>
      </trkpt>
      <trkpt lat="46.03723" lon="3.18709">
        <ele>470.840698242</ele>
        <time>2014-04-07T13:07:40.408Z</time>
      </trkpt>
      <trkpt lat="46.03724" lon="3.18709">
        <ele>470.958068848</ele>
        <time>2014-04-07T13:07:40.651Z</time>
      </trkpt>
      <trkpt lat="46.03733" lon="3.18712">
        <ele>471.74911499</ele>
        <time>2014-04-07T13:07:49.371Z</time>
      </trkpt>
      <trkpt lat="46.03733" lon="3.18712">
        <ele>471.792419434</ele>
        <time>2014-04-07T13:07:49.649Z</time>
      </trkpt>
      <trkpt lat="46.0374" lon="3.18714">
        <ele>472.338989258</ele>
        <time>2014-04-07T13:07:58.962Z</time>
      </trkpt>
      <trkpt lat="46.03743" lon="3.18713">
        <ele>472.287231445</ele>
        <time>2014-04-07T13:07:59.773Z</time>
      </trkpt>
      <trkpt lat="46.03751" lon="3.18713">
        <ele>472.017364502</ele>
        <time>2014-04-07T13:08:05.748Z</time>
      </trkpt>
      <trkpt lat="46.03753" lon="3.18713">
        <ele>472.00994873</ele>
        <time>2014-04-07T13:08:06.177Z</time>
      </trkpt>
      <trkpt lat="46.03762" lon="3.18714">
        <ele>472.610992432</ele>
        <time>2014-04-07T13:08:12.221Z</time>
      </trkpt>
      <trkpt lat="46.03764" lon="3.18714">
        <ele>472.747955322</ele>
        <time>2014-04-07T13:08:12.857Z</time>
      </trkpt>
      <trkpt lat="46.03772" lon="3.18714">
        <ele>474.169311523</ele>
        <time>2014-04-07T13:08:20.143Z</time>
      </trkpt>
      <trkpt lat="46.03773" lon="3.18714">
        <ele>474.361968994</ele>
        <time>2014-04-07T13:08:20.759Z</time>
      </trkpt>
      <trkpt lat="46.03782" lon="3.18714">
        <ele>475.388763428</ele>
        <time>2014-04-07T13:08:26.97Z</time>
      </trkpt>
      <trkpt lat="46.03783" lon="3.18714">
        <ele>475.544219971</ele>
        <time>2014-04-07T13:08:27.748Z</time>
      </trkpt>
      <trkpt lat="46.03792" lon="3.18717">
        <ele>476.810272217</ele>
        <time>2014-04-07T13:08:36.801Z</time>
      </trkpt>
      <trkpt lat="46.03792" lon="3.18718">
        <ele>477.008178711</ele>
        <time>2014-04-07T13:08:37.667Z</time>
      </trkpt>
      <trkpt lat="46.03799" lon="3.18723">
        <ele>478.294006348</ele>
        <time>2014-04-07T13:08:51.643Z</time>
      </trkpt>
      <trkpt lat="46.03802" lon="3.18724">
        <ele>478.337280273</ele>
        <time>2014-04-07T13:08:52.631Z</time>
      </trkpt>
      <trkpt lat="46.03809" lon="3.18725">
        <ele>478.481292725</ele>
        <time>2014-04-07T13:08:56.596Z</time>
      </trkpt>
      <trkpt lat="46.03811" lon="3.18724">
        <ele>478.535888672</ele>
        <time>2014-04-07T13:08:56.65Z</time>
      </trkpt>
      <trkpt lat="46.03819" lon="3.18721">
        <ele>486.94744873</ele>
        <time>2014-04-07T13:09:52.191Z</time>
      </trkpt>
      <trkpt lat="46.03822" lon="3.18721">
        <ele>487.653991699</ele>
        <time>2014-04-07T13:09:52.66Z</time>
      </trkpt>
      <trkpt lat="46.0383" lon="3.1872">
        <ele>490.663024902</ele>
        <time>2014-04-07T13:10:02.343Z</time>
      </trkpt>
      <trkpt lat="46.03832" lon="3.1872">
        <ele>490.937866211</ele>
        <time>2014-04-07T13:10:03.092Z</time>
      </trkpt>
      <trkpt lat="46.0384" lon="3.18724">
        <ele>492.788482666</ele>
        <time>2014-04-07T13:10:09.977Z</time>
      </trkpt>
      <trkpt lat="46.03841" lon="3.18724">
        <ele>493.118713379</ele>
        <time>2014-04-07T13:10:10.842Z</time>
      </trkpt>
      <trkpt lat="46.03849" lon="3.18727">
        <ele>494.65625</ele>
        <time>2014-04-07T13:10:16.436Z</time>
      </trkpt>
      <trkpt lat="46.0385" lon="3.18728">
        <ele>494.906219482</ele>
        <time>2014-04-07T13:10:16.661Z</time>
      </trkpt>
      <trkpt lat="46.03858" lon="3.1873">
        <ele>496.115570068</ele>
        <time>2014-04-07T13:10:23.102Z</time>
      </trkpt>
      <trkpt lat="46.0386" lon="3.18731">
        <ele>496.379089355</ele>
        <time>2014-04-07T13:10:23.988Z</time>
      </trkpt>
      <trkpt lat="46.03866" lon="3.18734">
        <ele>497.603485107</ele>
        <time>2014-04-07T13:10:29.938Z</time>
      </trkpt>
      <trkpt lat="46.03869" lon="3.18735">
        <ele>497.941345215</ele>
        <time>2014-04-07T13:10:30.935Z</time>
      </trkpt>
      <trkpt lat="46.03876" lon="3.18732">
        <ele>498.650909424</ele>
        <time>2014-04-07T13:10:36.079Z</time>
      </trkpt>
      <trkpt lat="46.03878" lon="3.1873">
        <ele>498.746124268</ele>
        <time>2014-04-07T13:10:36.84Z</time>
      </trkpt>
      <trkpt lat="46.03879" lon="3.18718">
        <ele>499.709472656</ele>
        <time>2014-04-07T13:10:43.14Z</time>
      </trkpt>
      <trkpt lat="46.03879" lon="3.18716">
        <ele>499.842254639</ele>
        <time>2014-04-07T13:10:44.045Z</time>
      </trkpt>
      <trkpt lat="46.03881" lon="3.18703">
        <ele>500.959503174</ele>
        <time>2014-04-07T13:10:50.798Z</time>
      </trkpt>
      <trkpt lat="46.03881" lon="3.18699">
        <ele>501.307556152</ele>
        <time>2014-04-07T13:10:51.816Z</time>
      </trkpt>
      <trkpt lat="46.03882" lon="3.18691">
        <ele>501.805267334</ele>
        <time>2014-04-07T13:10:55.802Z</time>
      </trkpt>
      <trkpt lat="46.03883" lon="3.18687">
        <ele>502.064361572</ele>
        <time>2014-04-07T13:10:56.856Z</time>
      </trkpt>
      <trkpt lat="46.03885" lon="3.18676">
        <ele>503.062194824</ele>
        <time>2014-04-07T13:11:04.175Z</time>
      </trkpt>
      <trkpt lat="46.03885" lon="3.18674">
        <ele>503.177703857</ele>
        <time>2014-04-07T13:11:04.814Z</time>
      </trkpt>
      <trkpt lat="46.03888" lon="3.18662">
        <ele>503.709289551</ele>
        <time>2014-04-07T13:11:10.786Z</time>
      </trkpt>
      <trkpt lat="46.03888" lon="3.18659">
        <ele>503.76739502</ele>
        <time>2014-04-07T13:11:11.968Z</time>
      </trkpt>
      <trkpt lat="46.0389" lon="3.18647">
        <ele>504.176208496</ele>
        <time>2014-04-07T13:11:19.693Z</time>
      </trkpt>
      <trkpt lat="46.0389" lon="3.18645">
        <ele>504.259552002</ele>
        <time>2014-04-07T13:11:19.901Z</time>
      </trkpt>
      <trkpt lat="46.03891" lon="3.18634">
        <ele>504.855285645</ele>
        <time>2014-04-07T13:11:25.062Z</time>
      </trkpt>
      <trkpt lat="46.03892" lon="3.18632">
        <ele>504.926116943</ele>
        <time>2014-04-07T13:11:26.212Z</time>
      </trkpt>
      <trkpt lat="46.03894" lon="3.1862">
        <ele>505.102325439</ele>
        <time>2014-04-07T13:11:33.047Z</time>
      </trkpt>
      <trkpt lat="46.03894" lon="3.18619">
        <ele>505.10055542</ele>
        <time>2014-04-07T13:11:34.326Z</time>
      </trkpt>
      <trkpt lat="46.03896" lon="3.18608">
        <ele>505.285766602</ele>
        <time>2014-04-07T13:11:39.831Z</time>
      </trkpt>
      <trkpt lat="46.03896" lon="3.18604">
        <ele>505.364562988</ele>
        <time>2014-04-07T13:11:40.657Z</time>
      </trkpt>
      <trkpt lat="46.039" lon="3.18592">
        <ele>505.588623047</ele>
        <time>2014-04-07T13:11:47.011Z</time>
      </trkpt>
      <trkpt lat="46.039" lon="3.1859">
        <ele>505.651672363</ele>
        <time>2014-04-07T13:11:47.846Z</time>
      </trkpt>
      <trkpt lat="46.03901" lon="3.18578">
        <ele>505.839752197</ele>
        <time>2014-04-07T13:11:53.179Z</time>
      </trkpt>
      <trkpt lat="46.03901" lon="3.18575">
        <ele>505.846313477</ele>
        <time>2014-04-07T13:11:54.014Z</time>
      </trkpt>
      <trkpt lat="46.03901" lon="3.18563">
        <ele>506.189819336</ele>
        <time>2014-04-07T13:12:00.763Z</time>
      </trkpt>
      <trkpt lat="46.03902" lon="3.18562">
        <ele>506.245849609</ele>
        <time>2014-04-07T13:12:01.974Z</time>
      </trkpt>
      <trkpt lat="46.03903" lon="3.1855">
        <ele>506.491119385</ele>
        <time>2014-04-07T13:12:09.572Z</time>
      </trkpt>
      <trkpt lat="46.03903" lon="3.18548">
        <ele>506.564086914</ele>
        <time>2014-04-07T13:12:09.949Z</time>
      </trkpt>
      <trkpt lat="46.03901" lon="3.18536">
        <ele>507.227416992</ele>
        <time>2014-04-07T13:12:15.666Z</time>
      </trkpt>
      <trkpt lat="46.039" lon="3.18534">
        <ele>507.299865723</ele>
        <time>2014-04-07T13:12:17.09Z</time>
      </trkpt>
      <trkpt lat="46.03899" lon="3.18522">
        <ele>507.680084229</ele>
        <time>2014-04-07T13:12:25.863Z</time>
      </trkpt>
      <trkpt lat="46.03899" lon="3.18521">
        <ele>507.681243896</ele>
        <time>2014-04-07T13:12:26.894Z</time>
      </trkpt>
      <trkpt lat="46.039" lon="3.18525">
        <ele>507.338623047</ele>
        <time>2014-04-07T13:15:18.673Z</time>
      </trkpt>
      <trkpt lat="46.03903" lon="3.18522">
        <ele>506.874328613</ele>
        <time>2014-04-07T13:24:42.657Z</time>
      </trkpt>
      <trkpt lat="46.03899" lon="3.18529">
        <ele>501.739868164</ele>
        <time>2014-04-07T13:24:48.038Z</time>
      </trkpt>
      <trkpt lat="46.03903" lon="3.18538">
        <ele>505.596618652</ele>
        <time>2014-04-07T13:24:49.05Z</time>
      </trkpt>
      <trkpt lat="46.03907" lon="3.18527">
        <ele>501.846130371</ele>
        <time>2014-04-07T13:24:56.112Z</time>
      </trkpt>
      <trkpt lat="46.03907" lon="3.18525">
        <ele>504.350158691</ele>
        <time>2014-04-07T13:24:57.054Z</time>
      </trkpt>
      <trkpt lat="46.03906" lon="3.18513">
        <ele>504.038146973</ele>
        <time>2014-04-07T13:25:03.163Z</time>
      </trkpt>
      <trkpt lat="46.03906" lon="3.18511">
        <ele>505.065155029</ele>
        <time>2014-04-07T13:25:04.048Z</time>
      </trkpt>
      <trkpt lat="46.03906" lon="3.18499">
        <ele>506.689880371</ele>
        <time>2014-04-07T13:25:10.047Z</time>
      </trkpt>
      <trkpt lat="46.03906" lon="3.18497">
        <ele>506.443817139</ele>
        <time>2014-04-07T13:25:11.049Z</time>
      </trkpt>
      <trkpt lat="46.03907" lon="3.18485">
        <ele>506.668212891</ele>
        <time>2014-04-07T13:25:17.329Z</time>
      </trkpt>
      <trkpt lat="46.03907" lon="3.18483">
        <ele>506.65826416</ele>
        <time>2014-04-07T13:25:18.014Z</time>
      </trkpt>
      <trkpt lat="46.03907" lon="3.18471">
        <ele>506.894042969</ele>
        <time>2014-04-07T13:25:23.251Z</time>
      </trkpt>
      <trkpt lat="46.03907" lon="3.18469">
        <ele>506.864135742</ele>
        <time>2014-04-07T13:25:24.054Z</time>
      </trkpt>
      <trkpt lat="46.0391" lon="3.18457">
        <ele>506.017883301</ele>
        <time>2014-04-07T13:25:41.011Z</time>
      </trkpt>
      <trkpt lat="46.0391" lon="3.18454">
        <ele>505.947906494</ele>
        <time>2014-04-07T13:25:42.058Z</time>
      </trkpt>
      <trkpt lat="46.0391" lon="3.18442">
        <ele>505.909942627</ele>
        <time>2014-04-07T13:25:48.289Z</time>
      </trkpt>
      <trkpt lat="46.0391" lon="3.18441">
        <ele>505.933776855</ele>
        <time>2014-04-07T13:25:49.238Z</time>
      </trkpt>
      <trkpt lat="46.03909" lon="3.18429">
        <ele>506.162261963</ele>
        <time>2014-04-07T13:25:54.089Z</time>
      </trkpt>
      <trkpt lat="46.03909" lon="3.18427">
        <ele>506.213653564</ele>
        <time>2014-04-07T13:25:55.035Z</time>
      </trkpt>
      <trkpt lat="46.03907" lon="3.18414">
        <ele>506.386993408</ele>
        <time>2014-04-07T13:26:01.24Z</time>
      </trkpt>
      <trkpt lat="46.03907" lon="3.18412">
        <ele>506.4034729</ele>
        <time>2014-04-07T13:26:02.033Z</time>
      </trkpt>
      <trkpt lat="46.03906" lon="3.184">
        <ele>506.855377197</ele>
        <time>2014-04-07T13:26:09.291Z</time>
      </trkpt>
      <trkpt lat="46.03906" lon="3.18398">
        <ele>506.931915283</ele>
        <time>2014-04-07T13:26:10.043Z</time>
      </trkpt>
      <trkpt lat="46.03905" lon="3.18387">
        <ele>507.028167725</ele>
        <time>2014-04-07T13:26:16.101Z</time>
      </trkpt>
      <trkpt lat="46.03905" lon="3.18385">
        <ele>507.104858398</ele>
        <time>2014-04-07T13:26:17.028Z</time>
      </trkpt>
      <trkpt lat="46.03904" lon="3.18373">
        <ele>507.387695312</ele>
        <time>2014-04-07T13:26:23.201Z</time>
      </trkpt>
      <trkpt lat="46.03904" lon="3.18371">
        <ele>507.468902588</ele>
        <time>2014-04-07T13:26:24.035Z</time>
      </trkpt>
      <trkpt lat="46.03902" lon="3.1836">
        <ele>507.881286621</ele>
        <time>2014-04-07T13:26:30.822Z</time>
      </trkpt>
      <trkpt lat="46.03902" lon="3.18358">
        <ele>507.859771729</ele>
        <time>2014-04-07T13:26:31.098Z</time>
      </trkpt>
      <trkpt lat="46.03902" lon="3.18347">
        <ele>507.685516357</ele>
        <time>2014-04-07T13:26:36.126Z</time>
      </trkpt>
      <trkpt lat="46.03902" lon="3.18345">
        <ele>507.724761963</ele>
        <time>2014-04-07T13:26:37.035Z</time>
      </trkpt>
      <trkpt lat="46.03903" lon="3.18332">
        <ele>508.603179932</ele>
        <time>2014-04-07T13:26:49.104Z</time>
      </trkpt>
      <trkpt lat="46.03902" lon="3.18328">
        <ele>508.627258301</ele>
        <time>2014-04-07T13:26:50.034Z</time>
      </trkpt>
      <trkpt lat="46.03902" lon="3.18317">
        <ele>508.704345703</ele>
        <time>2014-04-07T13:26:55.032Z</time>
      </trkpt>
      <trkpt lat="46.03902" lon="3.18315">
        <ele>508.735656738</ele>
        <time>2014-04-07T13:26:56.042Z</time>
      </trkpt>
      <trkpt lat="46.03904" lon="3.18303">
        <ele>508.590118408</ele>
        <time>2014-04-07T13:27:02.36Z</time>
      </trkpt>
      <trkpt lat="46.03904" lon="3.18301">
        <ele>508.621063232</ele>
        <time>2014-04-07T13:27:03.004Z</time>
      </trkpt>
      <trkpt lat="46.03903" lon="3.18289">
        <ele>508.600952148</ele>
        <time>2014-04-07T13:27:08.094Z</time>
      </trkpt>
      <trkpt lat="46.03903" lon="3.18287">
        <ele>508.59197998</ele>
        <time>2014-04-07T13:27:09.046Z</time>
      </trkpt>
      <trkpt lat="46.03903" lon="3.18275">
        <ele>508.802612305</ele>
        <time>2014-04-07T13:27:15.372Z</time>
      </trkpt>
      <trkpt lat="46.03903" lon="3.18273">
        <ele>508.834533691</ele>
        <time>2014-04-07T13:27:16.121Z</time>
      </trkpt>
      <trkpt lat="46.03902" lon="3.18261">
        <ele>509.030731201</ele>
        <time>2014-04-07T13:27:22.127Z</time>
      </trkpt>
      <trkpt lat="46.03902" lon="3.18259">
        <ele>509.002410889</ele>
        <time>2014-04-07T13:27:22.994Z</time>
      </trkpt>
      <trkpt lat="46.03901" lon="3.18247">
        <ele>508.804290771</ele>
        <time>2014-04-07T13:27:28.163Z</time>
      </trkpt>
      <trkpt lat="46.03901" lon="3.18245">
        <ele>508.832061768</ele>
        <time>2014-04-07T13:27:29.035Z</time>
      </trkpt>
      <trkpt lat="46.03902" lon="3.18232">
        <ele>507.958404541</ele>
        <time>2014-04-07T13:27:36.618Z</time>
      </trkpt>
      <trkpt lat="46.03902" lon="3.18231">
        <ele>507.846191406</ele>
        <time>2014-04-07T13:27:36.992Z</time>
      </trkpt>
      <trkpt lat="46.03902" lon="3.18219">
        <ele>507.230804443</ele>
        <time>2014-04-07T13:27:43.332Z</time>
      </trkpt>
      <trkpt lat="46.03902" lon="3.18216">
        <ele>507.155975342</ele>
        <time>2014-04-07T13:27:44.038Z</time>
      </trkpt>
      <trkpt lat="46.03902" lon="3.18203">
        <ele>506.766845703</ele>
        <time>2014-04-07T13:27:50.073Z</time>
      </trkpt>
      <trkpt lat="46.03902" lon="3.18201">
        <ele>506.691619873</ele>
        <time>2014-04-07T13:27:51.395Z</time>
      </trkpt>
      <trkpt lat="46.03901" lon="3.18189">
        <ele>506.454772949</ele>
        <time>2014-04-07T13:27:57.042Z</time>
      </trkpt>
      <trkpt lat="46.03901" lon="3.18186">
        <ele>506.461334229</ele>
        <time>2014-04-07T13:27:58.045Z</time>
      </trkpt>
      <trkpt lat="46.03901" lon="3.18174">
        <ele>506.697723389</ele>
        <time>2014-04-07T13:28:04.125Z</time>
      </trkpt>
      <trkpt lat="46.03901" lon="3.18172">
        <ele>506.711120605</ele>
        <time>2014-04-07T13:28:05.037Z</time>
      </trkpt>
      <trkpt lat="46.03899" lon="3.1816">
        <ele>507.270904541</ele>
        <time>2014-04-07T13:28:11.025Z</time>
      </trkpt>
      <trkpt lat="46.03899" lon="3.18158">
        <ele>507.37689209</ele>
        <time>2014-04-07T13:28:12.255Z</time>
      </trkpt>
      <trkpt lat="46.03899" lon="3.18147">
        <ele>508.144775391</ele>
        <time>2014-04-07T13:28:17.281Z</time>
      </trkpt>
      <trkpt lat="46.03899" lon="3.18145">
        <ele>508.250244141</ele>
        <time>2014-04-07T13:28:18.14Z</time>
      </trkpt>
      <trkpt lat="46.03899" lon="3.18134">
        <ele>508.888275146</ele>
        <time>2014-04-07T13:28:23.129Z</time>
      </trkpt>
      <trkpt lat="46.03899" lon="3.18132">
        <ele>508.918823242</ele>
        <time>2014-04-07T13:28:24.033Z</time>
      </trkpt>
      <trkpt lat="46.039" lon="3.1812">
        <ele>509.024810791</ele>
        <time>2014-04-07T13:28:29.091Z</time>
      </trkpt>
      <trkpt lat="46.039" lon="3.18118">
        <ele>509.077636719</ele>
        <time>2014-04-07T13:28:30.045Z</time>
      </trkpt>
      <trkpt lat="46.039" lon="3.18107">
        <ele>509.314849854</ele>
        <time>2014-04-07T13:28:36.053Z</time>
      </trkpt>
      <trkpt lat="46.039" lon="3.18105">
        <ele>509.375915527</ele>
        <time>2014-04-07T13:28:37.021Z</time>
      </trkpt>
      <trkpt lat="46.03902" lon="3.18093">
        <ele>509.511688232</ele>
        <time>2014-04-07T13:28:42.113Z</time>
      </trkpt>
      <trkpt lat="46.03902" lon="3.18091">
        <ele>509.572845459</ele>
        <time>2014-04-07T13:28:43.046Z</time>
      </trkpt>
      <trkpt lat="46.03901" lon="3.18079">
        <ele>509.602416992</ele>
        <time>2014-04-07T13:28:48.106Z</time>
      </trkpt>
      <trkpt lat="46.03901" lon="3.18078">
        <ele>509.629577637</ele>
        <time>2014-04-07T13:28:49.005Z</time>
      </trkpt>
      <trkpt lat="46.03902" lon="3.18066">
        <ele>510.168640137</ele>
        <time>2014-04-07T13:28:55.936Z</time>
      </trkpt>
      <trkpt lat="46.03902" lon="3.18064">
        <ele>510.270355225</ele>
        <time>2014-04-07T13:28:56.13Z</time>
      </trkpt>
      <trkpt lat="46.03902" lon="3.18053">
        <ele>510.689239502</ele>
        <time>2014-04-07T13:29:02.1Z</time>
      </trkpt>
      <trkpt lat="46.03902" lon="3.18051">
        <ele>510.839294434</ele>
        <time>2014-04-07T13:29:03.044Z</time>
      </trkpt>
      <trkpt lat="46.03902" lon="3.18038">
        <ele>511.616790771</ele>
        <time>2014-04-07T13:29:09.249Z</time>
      </trkpt>
      <trkpt lat="46.03902" lon="3.18036">
        <ele>511.700927734</ele>
        <time>2014-04-07T13:29:10.048Z</time>
      </trkpt>
      <trkpt lat="46.03903" lon="3.18023">
        <ele>512.619018555</ele>
        <time>2014-04-07T13:29:16.046Z</time>
      </trkpt>
      <trkpt lat="46.03903" lon="3.18021">
        <ele>512.780578613</ele>
        <time>2014-04-07T13:29:17.05Z</time>
      </trkpt>
      <trkpt lat="46.03904" lon="3.18009">
        <ele>513.575866699</ele>
        <time>2014-04-07T13:29:23.305Z</time>
      </trkpt>
      <trkpt lat="46.03904" lon="3.18007">
        <ele>513.729431152</ele>
        <time>2014-04-07T13:29:24.069Z</time>
      </trkpt>
      <trkpt lat="46.03904" lon="3.17995">
        <ele>514.364501953</ele>
        <time>2014-04-07T13:29:30.796Z</time>
      </trkpt>
      <trkpt lat="46.03904" lon="3.17994">
        <ele>514.419311523</ele>
        <time>2014-04-07T13:29:31.008Z</time>
      </trkpt>
      <trkpt lat="46.03904" lon="3.17982">
        <ele>515.024841309</ele>
        <time>2014-04-07T13:29:37.095Z</time>
      </trkpt>
      <trkpt lat="46.03903" lon="3.1798">
        <ele>515.047485352</ele>
        <time>2014-04-07T13:29:38.004Z</time>
      </trkpt>
      <trkpt lat="46.03902" lon="3.17968">
        <ele>515.20501709</ele>
        <time>2014-04-07T13:29:44.232Z</time>
      </trkpt>
      <trkpt lat="46.03902" lon="3.17967">
        <ele>515.33416748</ele>
        <time>2014-04-07T13:29:45.05Z</time>
      </trkpt>
      <trkpt lat="46.03901" lon="3.17955">
        <ele>515.853393555</ele>
        <time>2014-04-07T13:29:51.233Z</time>
      </trkpt>
      <trkpt lat="46.039" lon="3.17952">
        <ele>515.890625</ele>
        <time>2014-04-07T13:29:52.048Z</time>
      </trkpt>
      <trkpt lat="46.039" lon="3.1794">
        <ele>516.259765625</ele>
        <time>2014-04-07T13:29:58.082Z</time>
      </trkpt>
      <trkpt lat="46.039" lon="3.17938">
        <ele>516.38470459</ele>
        <time>2014-04-07T13:29:59.048Z</time>
      </trkpt>
      <trkpt lat="46.039" lon="3.17926">
        <ele>516.824707031</ele>
        <time>2014-04-07T13:30:04.131Z</time>
      </trkpt>
      <trkpt lat="46.039" lon="3.17924">
        <ele>516.85760498</ele>
        <time>2014-04-07T13:30:05.011Z</time>
      </trkpt>
      <trkpt lat="46.03901" lon="3.17912">
        <ele>517.272766113</ele>
        <time>2014-04-07T13:30:11.425Z</time>
      </trkpt>
      <trkpt lat="46.039" lon="3.1791">
        <ele>517.280822754</ele>
        <time>2014-04-07T13:30:12.099Z</time>
      </trkpt>
      <trkpt lat="46.039" lon="3.17899">
        <ele>517.456542969</ele>
        <time>2014-04-07T13:30:18.21Z</time>
      </trkpt>
      <trkpt lat="46.039" lon="3.17897">
        <ele>517.543640137</ele>
        <time>2014-04-07T13:30:19.052Z</time>
      </trkpt>
      <trkpt lat="46.039" lon="3.17885">
        <ele>517.447753906</ele>
        <time>2014-04-07T13:30:25.77Z</time>
      </trkpt>
      <trkpt lat="46.03901" lon="3.17882">
        <ele>517.439819336</ele>
        <time>2014-04-07T13:30:26.009Z</time>
      </trkpt>
      <trkpt lat="46.03899" lon="3.17869">
        <ele>517.655761719</ele>
        <time>2014-04-07T13:30:32.103Z</time>
      </trkpt>
      <trkpt lat="46.03899" lon="3.17867">
        <ele>517.762390137</ele>
        <time>2014-04-07T13:30:33.049Z</time>
      </trkpt>
      <trkpt lat="46.03898" lon="3.17855">
        <ele>518.336975098</ele>
        <time>2014-04-07T13:30:40.953Z</time>
      </trkpt>
      <trkpt lat="46.03898" lon="3.17853">
        <ele>518.39831543</ele>
        <time>2014-04-07T13:30:41.206Z</time>
      </trkpt>
      <trkpt lat="46.03896" lon="3.17841">
        <ele>518.528564453</ele>
        <time>2014-04-07T13:30:47.046Z</time>
      </trkpt>
      <trkpt lat="46.03896" lon="3.1784">
        <ele>518.582702637</ele>
        <time>2014-04-07T13:30:48.014Z</time>
      </trkpt>
      <trkpt lat="46.03892" lon="3.1783">
        <ele>518.770874023</ele>
        <time>2014-04-07T13:30:53.039Z</time>
      </trkpt>
      <trkpt lat="46.03891" lon="3.17827">
        <ele>518.817810059</ele>
        <time>2014-04-07T13:30:54.021Z</time>
      </trkpt>
      <trkpt lat="46.0389" lon="3.17815">
        <ele>519.088500977</ele>
        <time>2014-04-07T13:31:00.19Z</time>
      </trkpt>
      <trkpt lat="46.0389" lon="3.17813">
        <ele>519.107849121</ele>
        <time>2014-04-07T13:31:00.977Z</time>
      </trkpt>
      <trkpt lat="46.0389" lon="3.17801">
        <ele>519.77746582</ele>
        <time>2014-04-07T13:31:07.037Z</time>
      </trkpt>
      <trkpt lat="46.0389" lon="3.17799">
        <ele>519.796630859</ele>
        <time>2014-04-07T13:31:08.153Z</time>
      </trkpt>
      <trkpt lat="46.03889" lon="3.17787">
        <ele>519.688781738</ele>
        <time>2014-04-07T13:31:13.476Z</time>
      </trkpt>
      <trkpt lat="46.03889" lon="3.17785">
        <ele>519.696472168</ele>
        <time>2014-04-07T13:31:14.033Z</time>
      </trkpt>
      <trkpt lat="46.03889" lon="3.17775">
        <ele>519.401428223</ele>
        <time>2014-04-07T13:31:19.102Z</time>
      </trkpt>
      <trkpt lat="46.03888" lon="3.17772">
        <ele>519.315185547</ele>
        <time>2014-04-07T13:31:20.033Z</time>
      </trkpt>
      <trkpt lat="46.03886" lon="3.1776">
        <ele>519.227294922</ele>
        <time>2014-04-07T13:31:25.833Z</time>
      </trkpt>
      <trkpt lat="46.03886" lon="3.17758">
        <ele>519.286254883</ele>
        <time>2014-04-07T13:31:25.995Z</time>
      </trkpt>
      <trkpt lat="46.03884" lon="3.17746">
        <ele>519.576721191</ele>
        <time>2014-04-07T13:31:32.198Z</time>
      </trkpt>
      <trkpt lat="46.03884" lon="3.17744">
        <ele>519.618652344</ele>
        <time>2014-04-07T13:31:33.023Z</time>
      </trkpt>
      <trkpt lat="46.03881" lon="3.17732">
        <ele>519.968078613</ele>
        <time>2014-04-07T13:31:40.926Z</time>
      </trkpt>
      <trkpt lat="46.03881" lon="3.1773">
        <ele>520.027526855</ele>
        <time>2014-04-07T13:31:41.116Z</time>
      </trkpt>
      <trkpt lat="46.0388" lon="3.17717">
        <ele>520.316467285</ele>
        <time>2014-04-07T13:31:46.162Z</time>
      </trkpt>
      <trkpt lat="46.0388" lon="3.17715">
        <ele>520.414001465</ele>
        <time>2014-04-07T13:31:47.063Z</time>
      </trkpt>
      <trkpt lat="46.03878" lon="3.17705">
        <ele>521.069702148</ele>
        <time>2014-04-07T13:31:53.093Z</time>
      </trkpt>
      <trkpt lat="46.03878" lon="3.17702">
        <ele>521.164794922</ele>
        <time>2014-04-07T13:31:54.034Z</time>
      </trkpt>
      <trkpt lat="46.03877" lon="3.1769">
        <ele>521.401062012</ele>
        <time>2014-04-07T13:32:01.014Z</time>
      </trkpt>
      <trkpt lat="46.03876" lon="3.17688">
        <ele>521.436462402</ele>
        <time>2014-04-07T13:32:01.136Z</time>
      </trkpt>
      <trkpt lat="46.03874" lon="3.17676">
        <ele>521.584411621</ele>
        <time>2014-04-07T13:32:07.093Z</time>
      </trkpt>
      <trkpt lat="46.03873" lon="3.17675">
        <ele>521.620605469</ele>
        <time>2014-04-07T13:32:08.04Z</time>
      </trkpt>
      <trkpt lat="46.0387" lon="3.17663">
        <ele>522.150817871</ele>
        <time>2014-04-07T13:32:15.118Z</time>
      </trkpt>
      <trkpt lat="46.0387" lon="3.17661">
        <ele>522.185668945</ele>
        <time>2014-04-07T13:32:16.038Z</time>
      </trkpt>
      <trkpt lat="46.03869" lon="3.1765">
        <ele>522.530212402</ele>
        <time>2014-04-07T13:32:21.107Z</time>
      </trkpt>
      <trkpt lat="46.03868" lon="3.17647">
        <ele>522.528198242</ele>
        <time>2014-04-07T13:32:21.997Z</time>
      </trkpt>
      <trkpt lat="46.03867" lon="3.17635">
        <ele>522.59362793</ele>
        <time>2014-04-07T13:32:27.133Z</time>
      </trkpt>
      <trkpt lat="46.03866" lon="3.17632">
        <ele>522.66418457</ele>
        <time>2014-04-07T13:32:28.039Z</time>
      </trkpt>
      <trkpt lat="46.03866" lon="3.17621">
        <ele>522.968139648</ele>
        <time>2014-04-07T13:32:33.107Z</time>
      </trkpt>
      <trkpt lat="46.03866" lon="3.17619">
        <ele>523.021118164</ele>
        <time>2014-04-07T13:32:34.038Z</time>
      </trkpt>
      <trkpt lat="46.03864" lon="3.17607">
        <ele>523.100463867</ele>
        <time>2014-04-07T13:32:40.889Z</time>
      </trkpt>
      <trkpt lat="46.03863" lon="3.17604">
        <ele>523.130859375</ele>
        <time>2014-04-07T13:32:41.034Z</time>
      </trkpt>
      <trkpt lat="46.0386" lon="3.17594">
        <ele>523.366271973</ele>
        <time>2014-04-07T13:32:47.315Z</time>
      </trkpt>
      <trkpt lat="46.03859" lon="3.17592">
        <ele>523.422546387</ele>
        <time>2014-04-07T13:32:48.034Z</time>
      </trkpt>
      <trkpt lat="46.03858" lon="3.1758">
        <ele>523.938537598</ele>
        <time>2014-04-07T13:32:54.153Z</time>
      </trkpt>
      <trkpt lat="46.03858" lon="3.17578">
        <ele>524.057373047</ele>
        <time>2014-04-07T13:32:55.032Z</time>
      </trkpt>
      <trkpt lat="46.03856" lon="3.17566">
        <ele>524.535949707</ele>
        <time>2014-04-07T13:33:01.126Z</time>
      </trkpt>
      <trkpt lat="46.03856" lon="3.17563">
        <ele>524.590148926</ele>
        <time>2014-04-07T13:33:02.035Z</time>
      </trkpt>
      <trkpt lat="46.03853" lon="3.17552">
        <ele>524.751037598</ele>
        <time>2014-04-07T13:33:08.136Z</time>
      </trkpt>
      <trkpt lat="46.03852" lon="3.1755">
        <ele>524.79107666</ele>
        <time>2014-04-07T13:33:09.075Z</time>
      </trkpt>
      <trkpt lat="46.03849" lon="3.17539">
        <ele>524.821594238</ele>
        <time>2014-04-07T13:33:15.209Z</time>
      </trkpt>
      <trkpt lat="46.03849" lon="3.17537">
        <ele>524.815979004</ele>
        <time>2014-04-07T13:33:16.039Z</time>
      </trkpt>
      <trkpt lat="46.03848" lon="3.17526">
        <ele>525.035461426</ele>
        <time>2014-04-07T13:33:23.127Z</time>
      </trkpt>
      <trkpt lat="46.03848" lon="3.17524">
        <ele>525.113891602</ele>
        <time>2014-04-07T13:33:24.043Z</time>
      </trkpt>
      <trkpt lat="46.03848" lon="3.17511">
        <ele>525.753662109</ele>
        <time>2014-04-07T13:33:29.083Z</time>
      </trkpt>
      <trkpt lat="46.03848" lon="3.17508">
        <ele>525.863342285</ele>
        <time>2014-04-07T13:33:29.987Z</time>
      </trkpt>
      <trkpt lat="46.03848" lon="3.17496">
        <ele>526.43572998</ele>
        <time>2014-04-07T13:33:37.002Z</time>
      </trkpt>
      <trkpt lat="46.03847" lon="3.17494">
        <ele>526.539611816</ele>
        <time>2014-04-07T13:33:37.997Z</time>
      </trkpt>
      <trkpt lat="46.03844" lon="3.17484">
        <ele>526.131591797</ele>
        <time>2014-04-07T13:33:45.05Z</time>
      </trkpt>
      <trkpt lat="46.03842" lon="3.17483">
        <ele>526.060180664</ele>
        <time>2014-04-07T13:33:46.038Z</time>
      </trkpt>
      <trkpt lat="46.03834" lon="3.1748">
        <ele>525.84185791</ele>
        <time>2014-04-07T13:33:51.038Z</time>
      </trkpt>
      <trkpt lat="46.03833" lon="3.17481">
        <ele>525.870178223</ele>
        <time>2014-04-07T13:33:51.991Z</time>
      </trkpt>
      <trkpt lat="46.03826" lon="3.17482">
        <ele>526.365966797</ele>
        <time>2014-04-07T13:33:56.996Z</time>
      </trkpt>
      <trkpt lat="46.03824" lon="3.17483">
        <ele>526.516174316</ele>
        <time>2014-04-07T13:33:57.99Z</time>
      </trkpt>
      <trkpt lat="46.03816" lon="3.17484">
        <ele>526.991088867</ele>
        <time>2014-04-07T13:34:03.993Z</time>
      </trkpt>
      <trkpt lat="46.03815" lon="3.17485">
        <ele>527.045715332</ele>
        <time>2014-04-07T13:34:04.989Z</time>
      </trkpt>
      <trkpt lat="46.03806" lon="3.17485">
        <ele>527.226135254</ele>
        <time>2014-04-07T13:34:10Z</time>
      </trkpt>
      <trkpt lat="46.03805" lon="3.17485">
        <ele>527.260864258</ele>
        <time>2014-04-07T13:34:10.99Z</time>
      </trkpt>
      <trkpt lat="46.03796" lon="3.1749">
        <ele>528.057006836</ele>
        <time>2014-04-07T13:34:42.046Z</time>
      </trkpt>
      <trkpt lat="46.03796" lon="3.17491">
        <ele>527.99206543</ele>
        <time>2014-04-07T13:34:43.034Z</time>
      </trkpt>
      <trkpt lat="46.03792" lon="3.17501">
        <ele>527.662902832</ele>
        <time>2014-04-07T13:34:50.79Z</time>
      </trkpt>
      <trkpt lat="46.03792" lon="3.17504">
        <ele>527.617004395</ele>
        <time>2014-04-07T13:34:51.106Z</time>
      </trkpt>
      <trkpt lat="46.03789" lon="3.17516">
        <ele>527.402832031</ele>
        <time>2014-04-07T13:34:58.21Z</time>
      </trkpt>
      <trkpt lat="46.03789" lon="3.17517">
        <ele>527.345092773</ele>
        <time>2014-04-07T13:34:59.071Z</time>
      </trkpt>
      <trkpt lat="46.03787" lon="3.17528">
        <ele>527.252197266</ele>
        <time>2014-04-07T13:35:05.208Z</time>
      </trkpt>
      <trkpt lat="46.03787" lon="3.1753">
        <ele>527.206970215</ele>
        <time>2014-04-07T13:35:06.093Z</time>
      </trkpt>
      <trkpt lat="46.03785" lon="3.17542">
        <ele>527.133605957</ele>
        <time>2014-04-07T13:35:12.205Z</time>
      </trkpt>
      <trkpt lat="46.03785" lon="3.17544">
        <ele>527.117675781</ele>
        <time>2014-04-07T13:35:13.042Z</time>
      </trkpt>
      <trkpt lat="46.03785" lon="3.17556">
        <ele>526.769165039</ele>
        <time>2014-04-07T13:35:19.402Z</time>
      </trkpt>
      <trkpt lat="46.03786" lon="3.17558">
        <ele>526.706359863</ele>
        <time>2014-04-07T13:35:20.581Z</time>
      </trkpt>
      <trkpt lat="46.03786" lon="3.17569">
        <ele>526.529541016</ele>
        <time>2014-04-07T13:35:25.908Z</time>
      </trkpt>
      <trkpt lat="46.03786" lon="3.17571">
        <ele>526.452331543</ele>
        <time>2014-04-07T13:35:26.431Z</time>
      </trkpt>
      <trkpt lat="46.03784" lon="3.17582">
        <ele>526.34753418</ele>
        <time>2014-04-07T13:35:32.365Z</time>
      </trkpt>
      <trkpt lat="46.03784" lon="3.17584">
        <ele>526.214355469</ele>
        <time>2014-04-07T13:35:33.1Z</time>
      </trkpt>
      <trkpt lat="46.03783" lon="3.17596">
        <ele>525.68170166</ele>
        <time>2014-04-07T13:35:39.194Z</time>
      </trkpt>
      <trkpt lat="46.03783" lon="3.17598">
        <ele>525.595703125</ele>
        <time>2014-04-07T13:35:40.154Z</time>
      </trkpt>
      <trkpt lat="46.03781" lon="3.17611">
        <ele>525.004577637</ele>
        <time>2014-04-07T13:35:47.239Z</time>
      </trkpt>
      <trkpt lat="46.03781" lon="3.17613">
        <ele>524.895874023</ele>
        <time>2014-04-07T13:35:48.101Z</time>
      </trkpt>
      <trkpt lat="46.0378" lon="3.17625">
        <ele>524.457275391</ele>
        <time>2014-04-07T13:35:54.347Z</time>
      </trkpt>
      <trkpt lat="46.0378" lon="3.17627">
        <ele>524.363586426</ele>
        <time>2014-04-07T13:35:55.192Z</time>
      </trkpt>
      <trkpt lat="46.03777" lon="3.17636">
        <ele>523.926452637</ele>
        <time>2014-04-07T13:36:01.138Z</time>
      </trkpt>
      <trkpt lat="46.03776" lon="3.1764">
        <ele>523.716247559</ele>
        <time>2014-04-07T13:36:02.089Z</time>
      </trkpt>
      <trkpt lat="46.03774" lon="3.17651">
        <ele>523.54498291</ele>
        <time>2014-04-07T13:36:08.236Z</time>
      </trkpt>
      <trkpt lat="46.03774" lon="3.17653">
        <ele>523.492980957</ele>
        <time>2014-04-07T13:36:09.138Z</time>
      </trkpt>
      <trkpt lat="46.03773" lon="3.17665">
        <ele>522.664123535</ele>
        <time>2014-04-07T13:36:17.172Z</time>
      </trkpt>
      <trkpt lat="46.03773" lon="3.17668">
        <ele>522.487976074</ele>
        <time>2014-04-07T13:36:18.208Z</time>
      </trkpt>
      <trkpt lat="46.03771" lon="3.17679">
        <ele>522.145324707</ele>
        <time>2014-04-07T13:36:23.264Z</time>
      </trkpt>
      <trkpt lat="46.0377" lon="3.17681">
        <ele>522.002624512</ele>
        <time>2014-04-07T13:36:24.188Z</time>
      </trkpt>
      <trkpt lat="46.03769" lon="3.17694">
        <ele>521.625427246</ele>
        <time>2014-04-07T13:36:30.985Z</time>
      </trkpt>
      <trkpt lat="46.03769" lon="3.17696">
        <ele>521.53894043</ele>
        <time>2014-04-07T13:36:31.163Z</time>
      </trkpt>
      <trkpt lat="46.03768" lon="3.17708">
        <ele>520.817504883</ele>
        <time>2014-04-07T13:36:37.126Z</time>
      </trkpt>
      <trkpt lat="46.03768" lon="3.1771">
        <ele>520.70513916</ele>
        <time>2014-04-07T13:36:38.133Z</time>
      </trkpt>
      <trkpt lat="46.03771" lon="3.17721">
        <ele>519.691833496</ele>
        <time>2014-04-07T13:36:46.326Z</time>
      </trkpt>
      <trkpt lat="46.03772" lon="3.17724">
        <ele>519.540588379</ele>
        <time>2014-04-07T13:36:47.094Z</time>
      </trkpt>
      <trkpt lat="46.03773" lon="3.17735">
        <ele>518.497680664</ele>
        <time>2014-04-07T13:36:54.469Z</time>
      </trkpt>
      <trkpt lat="46.03774" lon="3.17736">
        <ele>518.344299316</ele>
        <time>2014-04-07T13:36:55.157Z</time>
      </trkpt>
      <trkpt lat="46.03777" lon="3.17746">
        <ele>517.513366699</ele>
        <time>2014-04-07T13:37:01.092Z</time>
      </trkpt>
      <trkpt lat="46.03777" lon="3.17748">
        <ele>517.405273438</ele>
        <time>2014-04-07T13:37:02.175Z</time>
      </trkpt>
      <trkpt lat="46.03781" lon="3.1776">
        <ele>516.833007812</ele>
        <time>2014-04-07T13:37:08.168Z</time>
      </trkpt>
      <trkpt lat="46.03781" lon="3.17762">
        <ele>516.762756348</ele>
        <time>2014-04-07T13:37:09.1Z</time>
      </trkpt>
      <trkpt lat="46.0378" lon="3.17775">
        <ele>515.828186035</ele>
        <time>2014-04-07T13:37:15.312Z</time>
      </trkpt>
      <trkpt lat="46.0378" lon="3.17777">
        <ele>515.712158203</ele>
        <time>2014-04-07T13:37:16.069Z</time>
      </trkpt>
      <trkpt lat="46.03771" lon="3.17777">
        <ele>514.351074219</ele>
        <time>2014-04-07T13:37:28.218Z</time>
      </trkpt>
      <trkpt lat="46.0377" lon="3.17776">
        <ele>514.241516113</ele>
        <time>2014-04-07T13:37:29.098Z</time>
      </trkpt>
      <trkpt lat="46.03764" lon="3.17767">
        <ele>513.306335449</ele>
        <time>2014-04-07T13:37:35.83Z</time>
      </trkpt>
      <trkpt lat="46.03764" lon="3.17766">
        <ele>513.256408691</ele>
        <time>2014-04-07T13:37:36.126Z</time>
      </trkpt>
      <trkpt lat="46.03757" lon="3.17758">
        <ele>512.447021484</ele>
        <time>2014-04-07T13:37:45.959Z</time>
      </trkpt>
      <trkpt lat="46.03756" lon="3.17757">
        <ele>512.276123047</ele>
        <time>2014-04-07T13:37:46.236Z</time>
      </trkpt>
      <trkpt lat="46.03751" lon="3.17747">
        <ele>511.051391602</ele>
        <time>2014-04-07T13:37:52.231Z</time>
      </trkpt>
      <trkpt lat="46.0375" lon="3.17746">
        <ele>510.859649658</ele>
        <time>2014-04-07T13:37:53.096Z</time>
      </trkpt>
      <trkpt lat="46.03744" lon="3.17737">
        <ele>509.896820068</ele>
        <time>2014-04-07T13:38:00.223Z</time>
      </trkpt>
      <trkpt lat="46.03744" lon="3.17736">
        <ele>509.791015625</ele>
        <time>2014-04-07T13:38:01.065Z</time>
      </trkpt>
      <trkpt lat="46.03738" lon="3.17727">
        <ele>509.09564209</ele>
        <time>2014-04-07T13:38:07.752Z</time>
      </trkpt>
      <trkpt lat="46.03736" lon="3.17726">
        <ele>508.959716797</ele>
        <time>2014-04-07T13:38:08.247Z</time>
      </trkpt>
      <trkpt lat="46.0373" lon="3.17718">
        <ele>507.557495117</ele>
        <time>2014-04-07T13:38:15.234Z</time>
      </trkpt>
      <trkpt lat="46.03729" lon="3.17716">
        <ele>507.306182861</ele>
        <time>2014-04-07T13:38:16.133Z</time>
      </trkpt>
      <trkpt lat="46.03722" lon="3.17708">
        <ele>505.070709229</ele>
        <time>2014-04-07T13:38:27.221Z</time>
      </trkpt>
      <trkpt lat="46.03721" lon="3.17707">
        <ele>504.774383545</ele>
        <time>2014-04-07T13:38:28.175Z</time>
      </trkpt>
      <trkpt lat="46.03715" lon="3.17701">
        <ele>502.900054932</ele>
        <time>2014-04-07T13:38:34.272Z</time>
      </trkpt>
      <trkpt lat="46.03714" lon="3.177">
        <ele>502.554443359</ele>
        <time>2014-04-07T13:38:35.086Z</time>
      </trkpt>
      <trkpt lat="46.03707" lon="3.17697">
        <ele>501.169219971</ele>
        <time>2014-04-07T13:38:41.234Z</time>
      </trkpt>
      <trkpt lat="46.03705" lon="3.17694">
        <ele>500.602325439</ele>
        <time>2014-04-07T13:38:42.305Z</time>
      </trkpt>
      <trkpt lat="46.03699" lon="3.17689">
        <ele>499.444610596</ele>
        <time>2014-04-07T13:38:47.262Z</time>
      </trkpt>
      <trkpt lat="46.03697" lon="3.17688">
        <ele>499.314300537</ele>
        <time>2014-04-07T13:38:48.292Z</time>
      </trkpt>
      <trkpt lat="46.0369" lon="3.17682">
        <ele>498.507751465</ele>
        <time>2014-04-07T13:38:53.2Z</time>
      </trkpt>
      <trkpt lat="46.03689" lon="3.1768">
        <ele>498.327148438</ele>
        <time>2014-04-07T13:38:54.106Z</time>
      </trkpt>
      <trkpt lat="46.03681" lon="3.17674">
        <ele>497.536773682</ele>
        <time>2014-04-07T13:39:00.555Z</time>
      </trkpt>
      <trkpt lat="46.0368" lon="3.17674">
        <ele>497.371734619</ele>
        <time>2014-04-07T13:39:01.09Z</time>
      </trkpt>
      <trkpt lat="46.03676" lon="3.17666">
        <ele>496.492004395</ele>
        <time>2014-04-07T13:39:07.173Z</time>
      </trkpt>
      <trkpt lat="46.03674" lon="3.17662">
        <ele>496.191955566</ele>
        <time>2014-04-07T13:39:08.714Z</time>
      </trkpt>
      <trkpt lat="46.03669" lon="3.17652">
        <ele>495.045440674</ele>
        <time>2014-04-07T13:39:16.349Z</time>
      </trkpt>
      <trkpt lat="46.03668" lon="3.1765">
        <ele>494.860534668</ele>
        <time>2014-04-07T13:39:17.085Z</time>
      </trkpt>
      <trkpt lat="46.03662" lon="3.17642">
        <ele>493.52935791</ele>
        <time>2014-04-07T13:39:24.345Z</time>
      </trkpt>
      <trkpt lat="46.0366" lon="3.17641">
        <ele>493.284606934</ele>
        <time>2014-04-07T13:39:25.2Z</time>
      </trkpt>
      <trkpt lat="46.03652" lon="3.17639">
        <ele>491.991760254</ele>
        <time>2014-04-07T13:39:33.099Z</time>
      </trkpt>
      <trkpt lat="46.03651" lon="3.1764">
        <ele>491.841461182</ele>
        <time>2014-04-07T13:39:34.145Z</time>
      </trkpt>
      <trkpt lat="46.03642" lon="3.17642">
        <ele>490.727630615</ele>
        <time>2014-04-07T13:39:41.248Z</time>
      </trkpt>
      <trkpt lat="46.0364" lon="3.17643">
        <ele>490.559173584</ele>
        <time>2014-04-07T13:39:42.105Z</time>
      </trkpt>
      <trkpt lat="46.03632" lon="3.17641">
        <ele>489.596710205</ele>
        <time>2014-04-07T13:39:49.256Z</time>
      </trkpt>
      <trkpt lat="46.0363" lon="3.17641">
        <ele>489.496246338</ele>
        <time>2014-04-07T13:39:50.132Z</time>
      </trkpt>
      <trkpt lat="46.03622" lon="3.1764">
        <ele>488.88079834</ele>
        <time>2014-04-07T13:39:56.57Z</time>
      </trkpt>
      <trkpt lat="46.0362" lon="3.1764">
        <ele>488.7890625</ele>
        <time>2014-04-07T13:39:57.093Z</time>
      </trkpt>
      <trkpt lat="46.03612" lon="3.1764">
        <ele>488.199401855</ele>
        <time>2014-04-07T13:40:02.527Z</time>
      </trkpt>
      <trkpt lat="46.03611" lon="3.1764">
        <ele>488.103546143</ele>
        <time>2014-04-07T13:40:03.125Z</time>
      </trkpt>
      <trkpt lat="46.03604" lon="3.17635">
        <ele>487.598388672</ele>
        <time>2014-04-07T13:40:10.349Z</time>
      </trkpt>
      <trkpt lat="46.03602" lon="3.17633">
        <ele>487.473724365</ele>
        <time>2014-04-07T13:40:11.151Z</time>
      </trkpt>
      <trkpt lat="46.03595" lon="3.17626">
        <ele>487.133331299</ele>
        <time>2014-04-07T13:40:17.146Z</time>
      </trkpt>
      <trkpt lat="46.03594" lon="3.17625">
        <ele>487.050994873</ele>
        <time>2014-04-07T13:40:18.042Z</time>
      </trkpt>
      <trkpt lat="46.03586" lon="3.17621">
        <ele>486.897827148</ele>
        <time>2014-04-07T13:40:24.264Z</time>
      </trkpt>
      <trkpt lat="46.03585" lon="3.17621">
        <ele>486.844238281</ele>
        <time>2014-04-07T13:40:25.386Z</time>
      </trkpt>
      <trkpt lat="46.03577" lon="3.17614">
        <ele>485.816650391</ele>
        <time>2014-04-07T13:40:34.1Z</time>
      </trkpt>
      <trkpt lat="46.03576" lon="3.17613">
        <ele>485.712982178</ele>
        <time>2014-04-07T13:40:35.095Z</time>
      </trkpt>
      <trkpt lat="46.03569" lon="3.17608">
        <ele>484.985168457</ele>
        <time>2014-04-07T13:40:41.134Z</time>
      </trkpt>
      <trkpt lat="46.03567" lon="3.17607">
        <ele>484.688659668</ele>
        <time>2014-04-07T13:40:42.165Z</time>
      </trkpt>
      <trkpt lat="46.03561" lon="3.176">
        <ele>483.894165039</ele>
        <time>2014-04-07T13:40:49.035Z</time>
      </trkpt>
      <trkpt lat="46.03559" lon="3.17599">
        <ele>483.780822754</ele>
        <time>2014-04-07T13:40:50.115Z</time>
      </trkpt>
      <trkpt lat="46.03551" lon="3.17595">
        <ele>483.221466064</ele>
        <time>2014-04-07T13:41:03.233Z</time>
      </trkpt>
      <trkpt lat="46.0355" lon="3.17595">
        <ele>483.206756592</ele>
        <time>2014-04-07T13:41:04.02Z</time>
      </trkpt>
      <trkpt lat="46.03542" lon="3.17595">
        <ele>481.464752197</ele>
        <time>2014-04-07T13:41:16.724Z</time>
      </trkpt>
      <trkpt lat="46.03541" lon="3.17594">
        <ele>481.456481934</ele>
        <time>2014-04-07T13:41:17.055Z</time>
      </trkpt>
      <trkpt lat="46.03534" lon="3.17587">
        <ele>481.685089111</ele>
        <time>2014-04-07T13:41:27.054Z</time>
      </trkpt>
      <trkpt lat="46.03534" lon="3.17586">
        <ele>481.741638184</ele>
        <time>2014-04-07T13:41:28.069Z</time>
      </trkpt>
      <trkpt lat="46.03527" lon="3.1758">
        <ele>481.521240234</ele>
        <time>2014-04-07T13:41:34.782Z</time>
      </trkpt>
      <trkpt lat="46.03526" lon="3.17579">
        <ele>481.535736084</ele>
        <time>2014-04-07T13:41:35.034Z</time>
      </trkpt>
      <trkpt lat="46.03518" lon="3.17574">
        <ele>481.537506104</ele>
        <time>2014-04-07T13:41:41.193Z</time>
      </trkpt>
      <trkpt lat="46.03516" lon="3.17573">
        <ele>481.58203125</ele>
        <time>2014-04-07T13:41:42.397Z</time>
      </trkpt>
      <trkpt lat="46.03509" lon="3.17578">
        <ele>480.017303467</ele>
        <time>2014-04-07T13:42:23.653Z</time>
      </trkpt>
      <trkpt lat="46.03507" lon="3.17579">
        <ele>480.070800781</ele>
        <time>2014-04-07T13:42:24.011Z</time>
      </trkpt>
      <trkpt lat="46.035" lon="3.17576">
        <ele>480.181396484</ele>
        <time>2014-04-07T13:42:32.058Z</time>
      </trkpt>
      <trkpt lat="46.03498" lon="3.17575">
        <ele>480.227661133</ele>
        <time>2014-04-07T13:42:33.035Z</time>
      </trkpt>
      <trkpt lat="46.0349" lon="3.17573">
        <ele>480.063934326</ele>
        <time>2014-04-07T13:42:38.689Z</time>
      </trkpt>
      <trkpt lat="46.03489" lon="3.17573">
        <ele>480.015960693</ele>
        <time>2014-04-07T13:42:40.456Z</time>
      </trkpt>
      <trkpt lat="46.03482" lon="3.17573">
        <ele>479.42401123</ele>
        <time>2014-04-07T13:42:44.836Z</time>
      </trkpt>
      <trkpt lat="46.03479" lon="3.17574">
        <ele>478.994049072</ele>
        <time>2014-04-07T13:42:46.182Z</time>
      </trkpt>
      <trkpt lat="46.03471" lon="3.17575">
        <ele>477.408996582</ele>
        <time>2014-04-07T13:42:52.368Z</time>
      </trkpt>
      <trkpt lat="46.03469" lon="3.17576">
        <ele>477.212249756</ele>
        <time>2014-04-07T13:42:53.216Z</time>
      </trkpt>
      <trkpt lat="46.03462" lon="3.17573">
        <ele>475.863952637</ele>
        <time>2014-04-07T13:43:02.057Z</time>
      </trkpt>
      <trkpt lat="46.0346" lon="3.1757">
        <ele>475.612518311</ele>
        <time>2014-04-07T13:43:03.03Z</time>
      </trkpt>
      <trkpt lat="46.03452" lon="3.17564">
        <ele>474.639312744</ele>
        <time>2014-04-07T13:43:10.083Z</time>
      </trkpt>
      <trkpt lat="46.0345" lon="3.17563">
        <ele>474.510131836</ele>
        <time>2014-04-07T13:43:11.067Z</time>
      </trkpt>
      <trkpt lat="46.03442" lon="3.17557">
        <ele>473.372467041</ele>
        <time>2014-04-07T13:43:17.272Z</time>
      </trkpt>
      <trkpt lat="46.03441" lon="3.17556">
        <ele>473.056945801</ele>
        <time>2014-04-07T13:43:18.047Z</time>
      </trkpt>
      <trkpt lat="46.03433" lon="3.17549">
        <ele>470.983764648</ele>
        <time>2014-04-07T13:43:25.041Z</time>
      </trkpt>
      <trkpt lat="46.03432" lon="3.17547">
        <ele>470.756408691</ele>
        <time>2014-04-07T13:43:26.066Z</time>
      </trkpt>
      <trkpt lat="46.03424" lon="3.17541">
        <ele>468.844238281</ele>
        <time>2014-04-07T13:43:33.244Z</time>
      </trkpt>
      <trkpt lat="46.03423" lon="3.17541">
        <ele>468.466491699</ele>
        <time>2014-04-07T13:43:34.069Z</time>
      </trkpt>
      <trkpt lat="46.03419" lon="3.1753">
        <ele>465.957305908</ele>
        <time>2014-04-07T13:43:41.271Z</time>
      </trkpt>
      <trkpt lat="46.03418" lon="3.17529">
        <ele>465.631652832</ele>
        <time>2014-04-07T13:43:42.06Z</time>
      </trkpt>
      <trkpt lat="46.03414" lon="3.1752">
        <ele>462.232147217</ele>
        <time>2014-04-07T13:43:51.1Z</time>
      </trkpt>
      <trkpt lat="46.03412" lon="3.17519">
        <ele>462.004302979</ele>
        <time>2014-04-07T13:43:52.06Z</time>
      </trkpt>
      <trkpt lat="46.03407" lon="3.17512">
        <ele>461.182037354</ele>
        <time>2014-04-07T13:43:56.1Z</time>
      </trkpt>
      <trkpt lat="46.03406" lon="3.17509">
        <ele>460.9715271</ele>
        <time>2014-04-07T13:43:57.066Z</time>
      </trkpt>
      <trkpt lat="46.03403" lon="3.17499">
        <ele>460.671539307</ele>
        <time>2014-04-07T13:44:02.252Z</time>
      </trkpt>
      <trkpt lat="46.03402" lon="3.17497">
        <ele>460.715423584</ele>
        <time>2014-04-07T13:44:03.051Z</time>
      </trkpt>
      <trkpt lat="46.03397" lon="3.17487">
        <ele>460.984863281</ele>
        <time>2014-04-07T13:44:10.099Z</time>
      </trkpt>
      <trkpt lat="46.03397" lon="3.17486">
        <ele>461.093353271</ele>
        <time>2014-04-07T13:44:11.044Z</time>
      </trkpt>
      <trkpt lat="46.03393" lon="3.17475">
        <ele>461.487579346</ele>
        <time>2014-04-07T13:44:16.573Z</time>
      </trkpt>
      <trkpt lat="46.03392" lon="3.17472">
        <ele>461.501739502</ele>
        <time>2014-04-07T13:44:17.01Z</time>
      </trkpt>
      <trkpt lat="46.03388" lon="3.17462">
        <ele>461.885559082</ele>
        <time>2014-04-07T13:44:23.291Z</time>
      </trkpt>
      <trkpt lat="46.03387" lon="3.17461">
        <ele>462.014007568</ele>
        <time>2014-04-07T13:44:24.032Z</time>
      </trkpt>
      <trkpt lat="46.03383" lon="3.1745">
        <ele>462.515380859</ele>
        <time>2014-04-07T13:44:31.04Z</time>
      </trkpt>
      <trkpt lat="46.03382" lon="3.17449">
        <ele>462.590606689</ele>
        <time>2014-04-07T13:44:32.071Z</time>
      </trkpt>
      <trkpt lat="46.03376" lon="3.17441">
        <ele>462.566925049</ele>
        <time>2014-04-07T13:44:39.029Z</time>
      </trkpt>
      <trkpt lat="46.03375" lon="3.17438">
        <ele>462.565002441</ele>
        <time>2014-04-07T13:44:40.039Z</time>
      </trkpt>
      <trkpt lat="46.0337" lon="3.1743">
        <ele>463.113128662</ele>
        <time>2014-04-07T13:44:45.968Z</time>
      </trkpt>
      <trkpt lat="46.03369" lon="3.17428">
        <ele>463.268951416</ele>
        <time>2014-04-07T13:44:46.274Z</time>
      </trkpt>
      <trkpt lat="46.03365" lon="3.17419">
        <ele>463.768005371</ele>
        <time>2014-04-07T13:44:51.134Z</time>
      </trkpt>
      <trkpt lat="46.03364" lon="3.17417">
        <ele>463.706085205</ele>
        <time>2014-04-07T13:44:52.04Z</time>
      </trkpt>
      <trkpt lat="46.03359" lon="3.17407">
        <ele>463.664520264</ele>
        <time>2014-04-07T13:44:59.236Z</time>
      </trkpt>
      <trkpt lat="46.03359" lon="3.17406">
        <ele>463.632995605</ele>
        <time>2014-04-07T13:45:00.744Z</time>
      </trkpt>
      <trkpt lat="46.03356" lon="3.17394">
        <ele>463.806884766</ele>
        <time>2014-04-07T13:45:06.194Z</time>
      </trkpt>
      <trkpt lat="46.03355" lon="3.17392">
        <ele>463.839477539</ele>
        <time>2014-04-07T13:45:07.059Z</time>
      </trkpt>
      <trkpt lat="46.03349" lon="3.17383">
        <ele>463.75769043</ele>
        <time>2014-04-07T13:45:14.095Z</time>
      </trkpt>
      <trkpt lat="46.03348" lon="3.17382">
        <ele>463.683776855</ele>
        <time>2014-04-07T13:45:15.054Z</time>
      </trkpt>
      <trkpt lat="46.03342" lon="3.17374">
        <ele>463.477142334</ele>
        <time>2014-04-07T13:45:22.086Z</time>
      </trkpt>
      <trkpt lat="46.03341" lon="3.17373">
        <ele>463.377716064</ele>
        <time>2014-04-07T13:45:23.251Z</time>
      </trkpt>
      <trkpt lat="46.03334" lon="3.17368">
        <ele>462.915740967</ele>
        <time>2014-04-07T13:45:28.061Z</time>
      </trkpt>
      <trkpt lat="46.03333" lon="3.17367">
        <ele>462.861846924</ele>
        <time>2014-04-07T13:45:29.051Z</time>
      </trkpt>
      <trkpt lat="46.03325" lon="3.17362">
        <ele>461.758636475</ele>
        <time>2014-04-07T13:45:36.083Z</time>
      </trkpt>
      <trkpt lat="46.03325" lon="3.17361">
        <ele>461.639953613</ele>
        <time>2014-04-07T13:45:37.05Z</time>
      </trkpt>
      <trkpt lat="46.03318" lon="3.17355">
        <ele>461.43939209</ele>
        <time>2014-04-07T13:45:43.478Z</time>
      </trkpt>
      <trkpt lat="46.03316" lon="3.17353">
        <ele>461.429992676</ele>
        <time>2014-04-07T13:45:44.095Z</time>
      </trkpt>
      <trkpt lat="46.03309" lon="3.17346">
        <ele>461.579864502</ele>
        <time>2014-04-07T13:45:49.438Z</time>
      </trkpt>
      <trkpt lat="46.03308" lon="3.17344">
        <ele>461.552246094</ele>
        <time>2014-04-07T13:45:50.046Z</time>
      </trkpt>
      <trkpt lat="46.03305" lon="3.17334">
        <ele>461.498718262</ele>
        <time>2014-04-07T13:45:55.932Z</time>
      </trkpt>
      <trkpt lat="46.03305" lon="3.17331">
        <ele>461.444488525</ele>
        <time>2014-04-07T13:45:56.067Z</time>
      </trkpt>
      <trkpt lat="46.03304" lon="3.17319">
        <ele>461.694946289</ele>
        <time>2014-04-07T13:46:02.187Z</time>
      </trkpt>
      <trkpt lat="46.03304" lon="3.17317">
        <ele>461.654327393</ele>
        <time>2014-04-07T13:46:03.048Z</time>
      </trkpt>
      <trkpt lat="46.03306" lon="3.17305">
        <ele>461.426055908</ele>
        <time>2014-04-07T13:46:10.968Z</time>
      </trkpt>
      <trkpt lat="46.03306" lon="3.17303">
        <ele>461.374145508</ele>
        <time>2014-04-07T13:46:11.113Z</time>
      </trkpt>
      <trkpt lat="46.03311" lon="3.17293">
        <ele>460.285064697</ele>
        <time>2014-04-07T13:46:58.037Z</time>
      </trkpt>
      <trkpt lat="46.03311" lon="3.17291">
        <ele>460.154571533</ele>
        <time>2014-04-07T13:46:59.016Z</time>
      </trkpt>
      <trkpt lat="46.03315" lon="3.17279">
        <ele>459.385192871</ele>
        <time>2014-04-07T13:47:07.1Z</time>
      </trkpt>
      <trkpt lat="46.03315" lon="3.17277">
        <ele>459.354431152</ele>
        <time>2014-04-07T13:47:08.064Z</time>
      </trkpt>
      <trkpt lat="46.03319" lon="3.17267">
        <ele>459.132293701</ele>
        <time>2014-04-07T13:47:14.247Z</time>
      </trkpt>
      <trkpt lat="46.03319" lon="3.17265">
        <ele>459.074615479</ele>
        <time>2014-04-07T13:47:15.028Z</time>
      </trkpt>
      <trkpt lat="46.03323" lon="3.17254">
        <ele>458.672302246</ele>
        <time>2014-04-07T13:47:22.128Z</time>
      </trkpt>
      <trkpt lat="46.03323" lon="3.17253">
        <ele>458.62802124</ele>
        <time>2014-04-07T13:47:23.026Z</time>
      </trkpt>
      <trkpt lat="46.03328" lon="3.17243">
        <ele>458.571136475</ele>
        <time>2014-04-07T13:47:29.044Z</time>
      </trkpt>
      <trkpt lat="46.03328" lon="3.17242">
        <ele>458.642150879</ele>
        <time>2014-04-07T13:47:30.039Z</time>
      </trkpt>
      <trkpt lat="46.03333" lon="3.17231">
        <ele>459.482086182</ele>
        <time>2014-04-07T13:47:37.094Z</time>
      </trkpt>
      <trkpt lat="46.03334" lon="3.17229">
        <ele>459.613861084</ele>
        <time>2014-04-07T13:47:38.18Z</time>
      </trkpt>
      <trkpt lat="46.03338" lon="3.17219">
        <ele>460.095672607</ele>
        <time>2014-04-07T13:47:44.742Z</time>
      </trkpt>
      <trkpt lat="46.03338" lon="3.17217">
        <ele>460.187255859</ele>
        <time>2014-04-07T13:47:45.047Z</time>
      </trkpt>
      <trkpt lat="46.03344" lon="3.17208">
        <ele>460.455627441</ele>
        <time>2014-04-07T13:47:51.043Z</time>
      </trkpt>
      <trkpt lat="46.03344" lon="3.17206">
        <ele>460.562683105</ele>
        <time>2014-04-07T13:47:52.022Z</time>
      </trkpt>
      <trkpt lat="46.03345" lon="3.17195">
        <ele>460.987854004</ele>
        <time>2014-04-07T13:47:58.341Z</time>
      </trkpt>
      <trkpt lat="46.03345" lon="3.17193">
        <ele>460.939788818</ele>
        <time>2014-04-07T13:47:59.053Z</time>
      </trkpt>
      <trkpt lat="46.03346" lon="3.17183">
        <ele>460.622680664</ele>
        <time>2014-04-07T13:48:04.318Z</time>
      </trkpt>
      <trkpt lat="46.03346" lon="3.1718">
        <ele>460.548065186</ele>
        <time>2014-04-07T13:48:05.065Z</time>
      </trkpt>
      <trkpt lat="46.03345" lon="3.17169">
        <ele>460.175323486</ele>
        <time>2014-04-07T13:48:10.105Z</time>
      </trkpt>
      <trkpt lat="46.03344" lon="3.17167">
        <ele>460.131500244</ele>
        <time>2014-04-07T13:48:11.062Z</time>
      </trkpt>
      <trkpt lat="46.03344" lon="3.17156">
        <ele>459.993865967</ele>
        <time>2014-04-07T13:48:18.058Z</time>
      </trkpt>
      <trkpt lat="46.03345" lon="3.17154">
        <ele>459.940948486</ele>
        <time>2014-04-07T13:48:19.09Z</time>
      </trkpt>
      <trkpt lat="46.03345" lon="3.17141">
        <ele>460.3203125</ele>
        <time>2014-04-07T13:48:25.087Z</time>
      </trkpt>
      <trkpt lat="46.03344" lon="3.17139">
        <ele>460.434753418</ele>
        <time>2014-04-07T13:48:26.065Z</time>
      </trkpt>
      <trkpt lat="46.03345" lon="3.17129">
        <ele>460.599945068</ele>
        <time>2014-04-07T13:48:31.095Z</time>
      </trkpt>
      <trkpt lat="46.03345" lon="3.17126">
        <ele>460.606323242</ele>
        <time>2014-04-07T13:48:32.032Z</time>
      </trkpt>
      <trkpt lat="46.03346" lon="3.17114">
        <ele>461.085449219</ele>
        <time>2014-04-07T13:48:37.088Z</time>
      </trkpt>
      <trkpt lat="46.03346" lon="3.17113">
        <ele>461.219512939</ele>
        <time>2014-04-07T13:48:38.165Z</time>
      </trkpt>
      <trkpt lat="46.03347" lon="3.17101">
        <ele>461.868530273</ele>
        <time>2014-04-07T13:48:44.07Z</time>
      </trkpt>
      <trkpt lat="46.03347" lon="3.17099">
        <ele>462.010040283</ele>
        <time>2014-04-07T13:48:45.04Z</time>
      </trkpt>
      <trkpt lat="46.0335" lon="3.17087">
        <ele>463.162414551</ele>
        <time>2014-04-07T13:48:51.07Z</time>
      </trkpt>
      <trkpt lat="46.03351" lon="3.17085">
        <ele>463.297485352</ele>
        <time>2014-04-07T13:48:52.075Z</time>
      </trkpt>
      <trkpt lat="46.03354" lon="3.17074">
        <ele>463.885253906</ele>
        <time>2014-04-07T13:48:59.089Z</time>
      </trkpt>
      <trkpt lat="46.03355" lon="3.17073">
        <ele>463.956695557</ele>
        <time>2014-04-07T13:49:00.134Z</time>
      </trkpt>
      <trkpt lat="46.03359" lon="3.17062">
        <ele>464.469421387</ele>
        <time>2014-04-07T13:49:07.077Z</time>
      </trkpt>
      <trkpt lat="46.0336" lon="3.1706">
        <ele>464.541809082</ele>
        <time>2014-04-07T13:49:08.054Z</time>
      </trkpt>
      <trkpt lat="46.03362" lon="3.17049">
        <ele>464.876922607</ele>
        <time>2014-04-07T13:49:16.049Z</time>
      </trkpt>
      <trkpt lat="46.03364" lon="3.17045">
        <ele>464.932891846</ele>
        <time>2014-04-07T13:49:17.047Z</time>
      </trkpt>
      <trkpt lat="46.03368" lon="3.17034">
        <ele>465.756561279</ele>
        <time>2014-04-07T13:49:23.081Z</time>
      </trkpt>
      <trkpt lat="46.03368" lon="3.17032">
        <ele>465.993591309</ele>
        <time>2014-04-07T13:49:24.047Z</time>
      </trkpt>
      <trkpt lat="46.03371" lon="3.17021">
        <ele>467.26071167</ele>
        <time>2014-04-07T13:49:30.747Z</time>
      </trkpt>
      <trkpt lat="46.03372" lon="3.17019">
        <ele>467.498168945</ele>
        <time>2014-04-07T13:49:31.043Z</time>
      </trkpt>
      <trkpt lat="46.03375" lon="3.17008">
        <ele>468.803161621</ele>
        <time>2014-04-07T13:49:37.166Z</time>
      </trkpt>
      <trkpt lat="46.03376" lon="3.17005">
        <ele>469.022155762</ele>
        <time>2014-04-07T13:49:38.046Z</time>
      </trkpt>
      <trkpt lat="46.0338" lon="3.16995">
        <ele>470.239013672</ele>
        <time>2014-04-07T13:49:45.997Z</time>
      </trkpt>
      <trkpt lat="46.03381" lon="3.16993">
        <ele>470.411315918</ele>
        <time>2014-04-07T13:49:46.197Z</time>
      </trkpt>
      <trkpt lat="46.03384" lon="3.16983">
        <ele>471.248413086</ele>
        <time>2014-04-07T13:49:52.077Z</time>
      </trkpt>
      <trkpt lat="46.03385" lon="3.16982">
        <ele>471.460418701</ele>
        <time>2014-04-07T13:49:53.05Z</time>
      </trkpt>
      <trkpt lat="46.03389" lon="3.16972">
        <ele>472.324249268</ele>
        <time>2014-04-07T13:49:59.053Z</time>
      </trkpt>
      <trkpt lat="46.0339" lon="3.1697">
        <ele>472.449157715</ele>
        <time>2014-04-07T13:50:00.105Z</time>
      </trkpt>
      <trkpt lat="46.03396" lon="3.16963">
        <ele>473.562957764</ele>
        <time>2014-04-07T13:50:06.076Z</time>
      </trkpt>
      <trkpt lat="46.03397" lon="3.16962">
        <ele>473.746063232</ele>
        <time>2014-04-07T13:50:07.129Z</time>
      </trkpt>
      <trkpt lat="46.03403" lon="3.16953">
        <ele>474.582550049</ele>
        <time>2014-04-07T13:50:13.082Z</time>
      </trkpt>
      <trkpt lat="46.03404" lon="3.16952">
        <ele>474.714324951</ele>
        <time>2014-04-07T13:50:14.05Z</time>
      </trkpt>
      <trkpt lat="46.03408" lon="3.16941">
        <ele>475.166137695</ele>
        <time>2014-04-07T13:50:21.179Z</time>
      </trkpt>
      <trkpt lat="46.03409" lon="3.16939">
        <ele>475.106170654</ele>
        <time>2014-04-07T13:50:22.061Z</time>
      </trkpt>
      <trkpt lat="46.03403" lon="3.16932">
        <ele>476.597747803</ele>
        <time>2014-04-07T13:50:40.094Z</time>
      </trkpt>
      <trkpt lat="46.03402" lon="3.1693">
        <ele>476.794403076</ele>
        <time>2014-04-07T13:50:41.044Z</time>
      </trkpt>
      <trkpt lat="46.03396" lon="3.16919">
        <ele>479.9559021</ele>
        <time>2014-04-07T13:50:52.285Z</time>
      </trkpt>
      <trkpt lat="46.03396" lon="3.16918">
        <ele>480.20324707</ele>
        <time>2014-04-07T13:50:53.049Z</time>
      </trkpt>
      <trkpt lat="46.0339" lon="3.16911">
        <ele>481.484344482</ele>
        <time>2014-04-07T13:51:00.28Z</time>
      </trkpt>
      <trkpt lat="46.03389" lon="3.1691">
        <ele>481.636108398</ele>
        <time>2014-04-07T13:51:01.031Z</time>
      </trkpt>
      <trkpt lat="46.03383" lon="3.16901">
        <ele>482.653320312</ele>
        <time>2014-04-07T13:51:06.06Z</time>
      </trkpt>
      <trkpt lat="46.03382" lon="3.169">
        <ele>482.928588867</ele>
        <time>2014-04-07T13:51:07.028Z</time>
      </trkpt>
      <trkpt lat="46.03376" lon="3.16892">
        <ele>483.983520508</ele>
        <time>2014-04-07T13:51:13.08Z</time>
      </trkpt>
      <trkpt lat="46.03375" lon="3.16891">
        <ele>484.086883545</ele>
        <time>2014-04-07T13:51:14.04Z</time>
      </trkpt>
      <trkpt lat="46.0337" lon="3.16882">
        <ele>484.958892822</ele>
        <time>2014-04-07T13:51:20.112Z</time>
      </trkpt>
      <trkpt lat="46.03369" lon="3.16881">
        <ele>485.063598633</ele>
        <time>2014-04-07T13:51:21.038Z</time>
      </trkpt>
      <trkpt lat="46.03365" lon="3.16871">
        <ele>485.357635498</ele>
        <time>2014-04-07T13:51:26.061Z</time>
      </trkpt>
      <trkpt lat="46.03363" lon="3.16869">
        <ele>485.397888184</ele>
        <time>2014-04-07T13:51:27.065Z</time>
      </trkpt>
      <trkpt lat="46.03358" lon="3.16863">
        <ele>485.983123779</ele>
        <time>2014-04-07T13:51:32.144Z</time>
      </trkpt>
      <trkpt lat="46.03356" lon="3.16861">
        <ele>486.062225342</ele>
        <time>2014-04-07T13:51:33.048Z</time>
      </trkpt>
      <trkpt lat="46.0335" lon="3.16854">
        <ele>486.489074707</ele>
        <time>2014-04-07T13:51:38.21Z</time>
      </trkpt>
      <trkpt lat="46.03348" lon="3.16852">
        <ele>486.628448486</ele>
        <time>2014-04-07T13:51:39.094Z</time>
      </trkpt>
      <trkpt lat="46.0334" lon="3.16847">
        <ele>486.90802002</ele>
        <time>2014-04-07T13:51:46.164Z</time>
      </trkpt>
      <trkpt lat="46.03339" lon="3.16846">
        <ele>486.910614014</ele>
        <time>2014-04-07T13:51:47.049Z</time>
      </trkpt>
      <trkpt lat="46.03332" lon="3.16841">
        <ele>486.740203857</ele>
        <time>2014-04-07T13:51:56.07Z</time>
      </trkpt>
      <trkpt lat="46.03331" lon="3.16841">
        <ele>486.677215576</ele>
        <time>2014-04-07T13:51:56.146Z</time>
      </trkpt>
      <trkpt lat="46.03323" lon="3.16836">
        <ele>486.433990479</ele>
        <time>2014-04-07T13:52:03.268Z</time>
      </trkpt>
      <trkpt lat="46.03322" lon="3.16836">
        <ele>486.359588623</ele>
        <time>2014-04-07T13:52:04.165Z</time>
      </trkpt>
      <trkpt lat="46.03313" lon="3.16834">
        <ele>486.27130127</ele>
        <time>2014-04-07T13:52:11.162Z</time>
      </trkpt>
      <trkpt lat="46.03311" lon="3.16833">
        <ele>486.241027832</ele>
        <time>2014-04-07T13:52:12.051Z</time>
      </trkpt>
      <trkpt lat="46.03303" lon="3.16829">
        <ele>485.913269043</ele>
        <time>2014-04-07T13:52:17.087Z</time>
      </trkpt>
      <trkpt lat="46.03302" lon="3.16828">
        <ele>485.852966309</ele>
        <time>2014-04-07T13:52:18.037Z</time>
      </trkpt>
      <trkpt lat="46.03294" lon="3.16824">
        <ele>485.4453125</ele>
        <time>2014-04-07T13:52:24.056Z</time>
      </trkpt>
      <trkpt lat="46.03292" lon="3.16823">
        <ele>485.353851318</ele>
        <time>2014-04-07T13:52:25.049Z</time>
      </trkpt>
      <trkpt lat="46.03284" lon="3.16819">
        <ele>485.44418335</ele>
        <time>2014-04-07T13:52:30.786Z</time>
      </trkpt>
      <trkpt lat="46.03282" lon="3.16818">
        <ele>485.454742432</ele>
        <time>2014-04-07T13:52:31.03Z</time>
      </trkpt>
      <trkpt lat="46.03274" lon="3.16816">
        <ele>485.501434326</ele>
        <time>2014-04-07T13:52:37.057Z</time>
      </trkpt>
      <trkpt lat="46.03272" lon="3.16816">
        <ele>485.562591553</ele>
        <time>2014-04-07T13:52:38.044Z</time>
      </trkpt>
      <trkpt lat="46.03265" lon="3.16813">
        <ele>485.86038208</ele>
        <time>2014-04-07T13:52:43.85Z</time>
      </trkpt>
      <trkpt lat="46.03263" lon="3.16812">
        <ele>485.943603516</ele>
        <time>2014-04-07T13:52:44.068Z</time>
      </trkpt>
      <trkpt lat="46.03255" lon="3.16807">
        <ele>485.66595459</ele>
        <time>2014-04-07T13:52:59.047Z</time>
      </trkpt>
      <trkpt lat="46.03255" lon="3.16807">
        <ele>485.598052979</ele>
        <time>2014-04-07T13:53:00.038Z</time>
      </trkpt>
      <trkpt lat="46.03247" lon="3.16803">
        <ele>484.827697754</ele>
        <time>2014-04-07T13:53:08.082Z</time>
      </trkpt>
      <trkpt lat="46.03245" lon="3.16802">
        <ele>484.777954102</ele>
        <time>2014-04-07T13:53:09.063Z</time>
      </trkpt>
      <trkpt lat="46.03237" lon="3.16797">
        <ele>484.750244141</ele>
        <time>2014-04-07T13:53:16.221Z</time>
      </trkpt>
      <trkpt lat="46.03237" lon="3.16795">
        <ele>484.7237854</ele>
        <time>2014-04-07T13:53:17.052Z</time>
      </trkpt>
      <trkpt lat="46.03238" lon="3.16783">
        <ele>484.626800537</ele>
        <time>2014-04-07T13:53:23.93Z</time>
      </trkpt>
      <trkpt lat="46.03238" lon="3.16782">
        <ele>484.59387207</ele>
        <time>2014-04-07T13:53:24.081Z</time>
      </trkpt>
      <trkpt lat="46.03243" lon="3.16773">
        <ele>484.306976318</ele>
        <time>2014-04-07T13:53:33.331Z</time>
      </trkpt>
      <trkpt lat="46.03244" lon="3.16772">
        <ele>484.355804443</ele>
        <time>2014-04-07T13:53:34.071Z</time>
      </trkpt>
      <trkpt lat="46.03249" lon="3.16763">
        <ele>484.383148193</ele>
        <time>2014-04-07T13:53:41.148Z</time>
      </trkpt>
      <trkpt lat="46.03251" lon="3.16763">
        <ele>484.351867676</ele>
        <time>2014-04-07T13:53:42.027Z</time>
      </trkpt>
      <trkpt lat="46.03257" lon="3.16759">
        <ele>484.125915527</ele>
        <time>2014-04-07T13:53:49.113Z</time>
      </trkpt>
      <trkpt lat="46.03259" lon="3.16759">
        <ele>484.06652832</ele>
        <time>2014-04-07T13:53:50.4Z</time>
      </trkpt>
      <trkpt lat="46.03267" lon="3.16754">
        <ele>483.427032471</ele>
        <time>2014-04-07T13:53:57.107Z</time>
      </trkpt>
      <trkpt lat="46.03268" lon="3.16752">
        <ele>483.271362305</ele>
        <time>2014-04-07T13:53:58.061Z</time>
      </trkpt>
      <trkpt lat="46.03275" lon="3.16745">
        <ele>482.327819824</ele>
        <time>2014-04-07T13:54:04.345Z</time>
      </trkpt>
      <trkpt lat="46.03276" lon="3.16745">
        <ele>482.182983398</ele>
        <time>2014-04-07T13:54:05.352Z</time>
      </trkpt>
      <trkpt lat="46.03281" lon="3.16736">
        <ele>481.698974609</ele>
        <time>2014-04-07T13:54:15.106Z</time>
      </trkpt>
      <trkpt lat="46.03281" lon="3.16733">
        <ele>481.709442139</ele>
        <time>2014-04-07T13:54:16.062Z</time>
      </trkpt>
      <trkpt lat="46.03285" lon="3.16721">
        <ele>482.242004395</ele>
        <time>2014-04-07T13:54:25.734Z</time>
      </trkpt>
      <trkpt lat="46.03285" lon="3.16721">
        <ele>482.498291016</ele>
        <time>2014-04-07T13:54:26.019Z</time>
      </trkpt>
      <trkpt lat="46.03277" lon="3.16718">
        <ele>486.898193359</ele>
        <time>2014-04-07T13:54:47.073Z</time>
      </trkpt>
      <trkpt lat="46.03275" lon="3.16717">
        <ele>487.069610596</ele>
        <time>2014-04-07T13:54:48.077Z</time>
      </trkpt>
      <trkpt lat="46.03268" lon="3.16711">
        <ele>489.005554199</ele>
        <time>2014-04-07T13:54:55.93Z</time>
      </trkpt>
      <trkpt lat="46.03267" lon="3.1671">
        <ele>489.325622559</ele>
        <time>2014-04-07T13:54:56.087Z</time>
      </trkpt>
      <trkpt lat="46.03259" lon="3.16712">
        <ele>491.376068115</ele>
        <time>2014-04-07T13:55:10.975Z</time>
      </trkpt>
      <trkpt lat="46.03258" lon="3.16712">
        <ele>491.607513428</ele>
        <time>2014-04-07T13:55:11.081Z</time>
      </trkpt>
      <trkpt lat="46.03251" lon="3.16706">
        <ele>492.854766846</ele>
        <time>2014-04-07T13:55:17.212Z</time>
      </trkpt>
      <trkpt lat="46.03249" lon="3.16705">
        <ele>493.073425293</ele>
        <time>2014-04-07T13:55:18.063Z</time>
      </trkpt>
      <trkpt lat="46.03241" lon="3.16699">
        <ele>494.565917969</ele>
        <time>2014-04-07T13:55:27.371Z</time>
      </trkpt>
      <trkpt lat="46.0324" lon="3.16699">
        <ele>494.665557861</ele>
        <time>2014-04-07T13:55:28.117Z</time>
      </trkpt>
      <trkpt lat="46.03232" lon="3.16693">
        <ele>495.913726807</ele>
        <time>2014-04-07T13:55:35.086Z</time>
      </trkpt>
      <trkpt lat="46.03232" lon="3.1669">
        <ele>496.106079102</ele>
        <time>2014-04-07T13:55:36.057Z</time>
      </trkpt>
      <trkpt lat="46.0323" lon="3.16679">
        <ele>496.634246826</ele>
        <time>2014-04-07T13:55:42.38Z</time>
      </trkpt>
      <trkpt lat="46.0323" lon="3.16677">
        <ele>496.75680542</ele>
        <time>2014-04-07T13:55:43.068Z</time>
      </trkpt>
      <trkpt lat="46.03231" lon="3.16665">
        <ele>497.519226074</ele>
        <time>2014-04-07T13:55:51.191Z</time>
      </trkpt>
      <trkpt lat="46.03231" lon="3.16664">
        <ele>497.549346924</ele>
        <time>2014-04-07T13:55:52.061Z</time>
      </trkpt>
      <trkpt lat="46.03233" lon="3.16652">
        <ele>497.986602783</ele>
        <time>2014-04-07T13:55:59.4Z</time>
      </trkpt>
      <trkpt lat="46.03233" lon="3.1665">
        <ele>498.063659668</ele>
        <time>2014-04-07T13:56:00.199Z</time>
      </trkpt>
      <trkpt lat="46.03235" lon="3.16638">
        <ele>498.529815674</ele>
        <time>2014-04-07T13:56:06.23Z</time>
      </trkpt>
      <trkpt lat="46.03235" lon="3.16636">
        <ele>498.623840332</ele>
        <time>2014-04-07T13:56:07.063Z</time>
      </trkpt>
      <trkpt lat="46.03235" lon="3.16625">
        <ele>499.229614258</ele>
        <time>2014-04-07T13:56:13.218Z</time>
      </trkpt>
      <trkpt lat="46.03235" lon="3.16623">
        <ele>499.320159912</ele>
        <time>2014-04-07T13:56:14.431Z</time>
      </trkpt>
      <trkpt lat="46.03235" lon="3.16611">
        <ele>499.631317139</ele>
        <time>2014-04-07T13:56:23.368Z</time>
      </trkpt>
      <trkpt lat="46.03234" lon="3.1661">
        <ele>499.559692383</ele>
        <time>2014-04-07T13:56:24.068Z</time>
      </trkpt>
      <trkpt lat="46.03234" lon="3.16599">
        <ele>499.229400635</ele>
        <time>2014-04-07T13:56:31.113Z</time>
      </trkpt>
      <trkpt lat="46.03234" lon="3.16597">
        <ele>499.243286133</ele>
        <time>2014-04-07T13:56:32.064Z</time>
      </trkpt>
      <trkpt lat="46.03232" lon="3.16584">
        <ele>499.962280273</ele>
        <time>2014-04-07T13:56:42.094Z</time>
      </trkpt>
      <trkpt lat="46.03231" lon="3.16584">
        <ele>500.226165771</ele>
        <time>2014-04-07T13:56:43.079Z</time>
      </trkpt>
      <trkpt lat="46.03223" lon="3.16582">
        <ele>501.662261963</ele>
        <time>2014-04-07T13:56:48.113Z</time>
      </trkpt>
      <trkpt lat="46.03222" lon="3.16581">
        <ele>501.991363525</ele>
        <time>2014-04-07T13:56:49.066Z</time>
      </trkpt>
      <trkpt lat="46.03214" lon="3.16578">
        <ele>503.713165283</ele>
        <time>2014-04-07T13:56:55.109Z</time>
      </trkpt>
      <trkpt lat="46.03212" lon="3.16578">
        <ele>504.000213623</ele>
        <time>2014-04-07T13:56:56.059Z</time>
      </trkpt>
      <trkpt lat="46.03204" lon="3.16578">
        <ele>505.439178467</ele>
        <time>2014-04-07T13:57:03.108Z</time>
      </trkpt>
      <trkpt lat="46.03203" lon="3.16578">
        <ele>505.593963623</ele>
        <time>2014-04-07T13:57:04.06Z</time>
      </trkpt>
      <trkpt lat="46.03194" lon="3.16578">
        <ele>506.622741699</ele>
        <time>2014-04-07T13:57:11.183Z</time>
      </trkpt>
      <trkpt lat="46.03193" lon="3.16577">
        <ele>506.713623047</ele>
        <time>2014-04-07T13:57:12.053Z</time>
      </trkpt>
      <trkpt lat="46.03185" lon="3.16572">
        <ele>507.346069336</ele>
        <time>2014-04-07T13:57:17.104Z</time>
      </trkpt>
      <trkpt lat="46.03185" lon="3.16571">
        <ele>507.453491211</ele>
        <time>2014-04-07T13:57:18.059Z</time>
      </trkpt>
      <trkpt lat="46.0318" lon="3.16561">
        <ele>507.667510986</ele>
        <time>2014-04-07T13:57:26.061Z</time>
      </trkpt>
      <trkpt lat="46.0318" lon="3.1656">
        <ele>507.65411377</ele>
        <time>2014-04-07T13:57:27.406Z</time>
      </trkpt>
      <trkpt lat="46.03175" lon="3.1655">
        <ele>508.100158691</ele>
        <time>2014-04-07T13:57:34.111Z</time>
      </trkpt>
      <trkpt lat="46.03174" lon="3.16549">
        <ele>508.237426758</ele>
        <time>2014-04-07T13:57:35.065Z</time>
      </trkpt>
      <trkpt lat="46.03165" lon="3.16548">
        <ele>508.821807861</ele>
        <time>2014-04-07T13:57:41.524Z</time>
      </trkpt>
      <trkpt lat="46.03164" lon="3.16548">
        <ele>508.906951904</ele>
        <time>2014-04-07T13:57:42.059Z</time>
      </trkpt>
      <trkpt lat="46.03156" lon="3.16547">
        <ele>509.137512207</ele>
        <time>2014-04-07T13:57:48.056Z</time>
      </trkpt>
      <trkpt lat="46.03154" lon="3.16547">
        <ele>509.171569824</ele>
        <time>2014-04-07T13:57:49.018Z</time>
      </trkpt>
      <trkpt lat="46.03146" lon="3.16542">
        <ele>509.123535156</ele>
        <time>2014-04-07T13:58:07.044Z</time>
      </trkpt>
      <trkpt lat="46.03145" lon="3.16543">
        <ele>509.106506348</ele>
        <time>2014-04-07T13:58:08.014Z</time>
      </trkpt>
      <trkpt lat="46.03137" lon="3.16549">
        <ele>509.246673584</ele>
        <time>2014-04-07T13:58:17.023Z</time>
      </trkpt>
      <trkpt lat="46.03137" lon="3.1655">
        <ele>509.249572754</ele>
        <time>2014-04-07T13:58:18.012Z</time>
      </trkpt>
      <trkpt lat="46.03131" lon="3.16557">
        <ele>509.936248779</ele>
        <time>2014-04-07T13:58:31.019Z</time>
      </trkpt>
      <trkpt lat="46.03129" lon="3.16558">
        <ele>509.96383667</ele>
        <time>2014-04-07T13:58:32.012Z</time>
      </trkpt>
      <trkpt lat="46.03121" lon="3.16562">
        <ele>510.505645752</ele>
        <time>2014-04-07T13:58:39.024Z</time>
      </trkpt>
      <trkpt lat="46.0312" lon="3.16563">
        <ele>510.521850586</ele>
        <time>2014-04-07T13:58:40.102Z</time>
      </trkpt>
      <trkpt lat="46.03111" lon="3.16566">
        <ele>510.929199219</ele>
        <time>2014-04-07T13:58:48.018Z</time>
      </trkpt>
      <trkpt lat="46.0311" lon="3.16567">
        <ele>510.94543457</ele>
        <time>2014-04-07T13:58:49.019Z</time>
      </trkpt>
      <trkpt lat="46.03104" lon="3.16574">
        <ele>510.77835083</ele>
        <time>2014-04-07T13:58:55.95Z</time>
      </trkpt>
      <trkpt lat="46.03103" lon="3.16575">
        <ele>510.75479126</ele>
        <time>2014-04-07T13:58:56.02Z</time>
      </trkpt>
      <trkpt lat="46.03097" lon="3.16582">
        <ele>510.772949219</ele>
        <time>2014-04-07T13:59:01.094Z</time>
      </trkpt>
      <trkpt lat="46.03096" lon="3.16583">
        <ele>510.755462646</ele>
        <time>2014-04-07T13:59:02.12Z</time>
      </trkpt>
      <trkpt lat="46.03091" lon="3.16593">
        <ele>510.545135498</ele>
        <time>2014-04-07T13:59:09.503Z</time>
      </trkpt>
      <trkpt lat="46.0309" lon="3.16594">
        <ele>510.581054688</ele>
        <time>2014-04-07T13:59:10.101Z</time>
      </trkpt>
      <trkpt lat="46.03083" lon="3.16602">
        <ele>510.931793213</ele>
        <time>2014-04-07T13:59:18.107Z</time>
      </trkpt>
      <trkpt lat="46.03082" lon="3.16604">
        <ele>510.932342529</ele>
        <time>2014-04-07T13:59:19.063Z</time>
      </trkpt>
      <trkpt lat="46.03075" lon="3.16609">
        <ele>510.502868652</ele>
        <time>2014-04-07T13:59:25.816Z</time>
      </trkpt>
      <trkpt lat="46.03074" lon="3.1661">
        <ele>510.447235107</ele>
        <time>2014-04-07T13:59:26.06Z</time>
      </trkpt>
      <trkpt lat="46.03068" lon="3.1662">
        <ele>510.539245605</ele>
        <time>2014-04-07T13:59:35.946Z</time>
      </trkpt>
      <trkpt lat="46.03068" lon="3.16621">
        <ele>510.576080322</ele>
        <time>2014-04-07T13:59:36.075Z</time>
      </trkpt>
      <trkpt lat="46.0306" lon="3.16614">
        <ele>510.732971191</ele>
        <time>2014-04-07T13:59:45.407Z</time>
      </trkpt>
      <trkpt lat="46.0306" lon="3.16612">
        <ele>510.728790283</ele>
        <time>2014-04-07T13:59:46.082Z</time>
      </trkpt>
      <trkpt lat="46.03056" lon="3.16601">
        <ele>510.449676514</ele>
        <time>2014-04-07T13:59:56.335Z</time>
      </trkpt>
      <trkpt lat="46.03055" lon="3.166">
        <ele>510.322875977</ele>
        <time>2014-04-07T13:59:57.058Z</time>
      </trkpt>
      <trkpt lat="46.03053" lon="3.16588">
        <ele>510.031585693</ele>
        <time>2014-04-07T14:00:04.9Z</time>
      </trkpt>
      <trkpt lat="46.03053" lon="3.16586">
        <ele>510.050689697</ele>
        <time>2014-04-07T14:00:05.068Z</time>
      </trkpt>
      <trkpt lat="46.0305" lon="3.16575">
        <ele>510.35824585</ele>
        <time>2014-04-07T14:00:11.625Z</time>
      </trkpt>
      <trkpt lat="46.0305" lon="3.16573">
        <ele>510.380493164</ele>
        <time>2014-04-07T14:00:12.068Z</time>
      </trkpt>
      <trkpt lat="46.03048" lon="3.16562">
        <ele>510.635009766</ele>
        <time>2014-04-07T14:00:18.141Z</time>
      </trkpt>
      <trkpt lat="46.03048" lon="3.1656">
        <ele>510.657958984</ele>
        <time>2014-04-07T14:00:19.074Z</time>
      </trkpt>
      <trkpt lat="46.03046" lon="3.16548">
        <ele>511.079498291</ele>
        <time>2014-04-07T14:00:26.112Z</time>
      </trkpt>
      <trkpt lat="46.03046" lon="3.16546">
        <ele>511.21395874</ele>
        <time>2014-04-07T14:00:27.071Z</time>
      </trkpt>
      <trkpt lat="46.03044" lon="3.16533">
        <ele>511.736083984</ele>
        <time>2014-04-07T14:00:34.189Z</time>
      </trkpt>
      <trkpt lat="46.03044" lon="3.16532">
        <ele>511.798248291</ele>
        <time>2014-04-07T14:00:35.063Z</time>
      </trkpt>
      <trkpt lat="46.03045" lon="3.1652">
        <ele>511.978790283</ele>
        <time>2014-04-07T14:00:42.135Z</time>
      </trkpt>
      <trkpt lat="46.03045" lon="3.16518">
        <ele>512.059936523</ele>
        <time>2014-04-07T14:00:43.076Z</time>
      </trkpt>
      <trkpt lat="46.03044" lon="3.16506">
        <ele>512.874023438</ele>
        <time>2014-04-07T14:00:52.096Z</time>
      </trkpt>
      <trkpt lat="46.03044" lon="3.16504">
        <ele>513.027832031</ele>
        <time>2014-04-07T14:00:53.157Z</time>
      </trkpt>
      <trkpt lat="46.03042" lon="3.16491">
        <ele>514.663513184</ele>
        <time>2014-04-07T14:01:02.108Z</time>
      </trkpt>
      <trkpt lat="46.03042" lon="3.16489">
        <ele>514.979309082</ele>
        <time>2014-04-07T14:01:03.082Z</time>
      </trkpt>
      <trkpt lat="46.0304" lon="3.16476">
        <ele>517.154174805</ele>
        <time>2014-04-07T14:01:09.131Z</time>
      </trkpt>
      <trkpt lat="46.0304" lon="3.16475">
        <ele>517.50793457</ele>
        <time>2014-04-07T14:01:10.067Z</time>
      </trkpt>
      <trkpt lat="46.0304" lon="3.16463">
        <ele>521.060668945</ele>
        <time>2014-04-07T14:01:35.95Z</time>
      </trkpt>
      <trkpt lat="46.03039" lon="3.16461">
        <ele>521.242675781</ele>
        <time>2014-04-07T14:01:36.458Z</time>
      </trkpt>
      <trkpt lat="46.03035" lon="3.16451">
        <ele>522.043334961</ele>
        <time>2014-04-07T14:01:42.106Z</time>
      </trkpt>
      <trkpt lat="46.03035" lon="3.1645">
        <ele>522.18939209</ele>
        <time>2014-04-07T14:01:43.051Z</time>
      </trkpt>
      <trkpt lat="46.03031" lon="3.16439">
        <ele>523.828125</ele>
        <time>2014-04-07T14:01:51.058Z</time>
      </trkpt>
      <trkpt lat="46.0303" lon="3.16437">
        <ele>524.324401855</ele>
        <time>2014-04-07T14:01:52.054Z</time>
      </trkpt>
      <trkpt lat="46.03029" lon="3.16426">
        <ele>526.01751709</ele>
        <time>2014-04-07T14:02:00.596Z</time>
      </trkpt>
      <trkpt lat="46.03028" lon="3.16424">
        <ele>526.168029785</ele>
        <time>2014-04-07T14:02:01.047Z</time>
      </trkpt>
      <trkpt lat="46.03025" lon="3.16413">
        <ele>526.99017334</ele>
        <time>2014-04-07T14:02:06.175Z</time>
      </trkpt>
      <trkpt lat="46.03025" lon="3.16411">
        <ele>527.135803223</ele>
        <time>2014-04-07T14:02:07.069Z</time>
      </trkpt>
      <trkpt lat="46.03022" lon="3.16399">
        <ele>528.344543457</ele>
        <time>2014-04-07T14:02:14.118Z</time>
      </trkpt>
      <trkpt lat="46.03021" lon="3.16397">
        <ele>528.504882812</ele>
        <time>2014-04-07T14:02:15.05Z</time>
      </trkpt>
      <trkpt lat="46.03018" lon="3.16385">
        <ele>529.915588379</ele>
        <time>2014-04-07T14:02:22.519Z</time>
      </trkpt>
      <trkpt lat="46.03018" lon="3.16383">
        <ele>530.102050781</ele>
        <time>2014-04-07T14:02:23.067Z</time>
      </trkpt>
      <trkpt lat="46.03012" lon="3.16374">
        <ele>531.606994629</ele>
        <time>2014-04-07T14:02:31.401Z</time>
      </trkpt>
      <trkpt lat="46.03009" lon="3.16374">
        <ele>531.81640625</ele>
        <time>2014-04-07T14:02:32.048Z</time>
      </trkpt>
      <trkpt lat="46.03001" lon="3.16376">
        <ele>533.062561035</ele>
        <time>2014-04-07T14:02:38.16Z</time>
      </trkpt>
      <trkpt lat="46.02999" lon="3.16377">
        <ele>533.274047852</ele>
        <time>2014-04-07T14:02:39.123Z</time>
      </trkpt>
      <trkpt lat="46.02991" lon="3.16383">
        <ele>534.592590332</ele>
        <time>2014-04-07T14:02:46.049Z</time>
      </trkpt>
      <trkpt lat="46.0299" lon="3.16383">
        <ele>534.796813965</ele>
        <time>2014-04-07T14:02:46.506Z</time>
      </trkpt>
      <trkpt lat="46.02982" lon="3.16387">
        <ele>536.253662109</ele>
        <time>2014-04-07T14:02:52.126Z</time>
      </trkpt>
      <trkpt lat="46.02981" lon="3.16387">
        <ele>536.450439453</ele>
        <time>2014-04-07T14:02:53.064Z</time>
      </trkpt>
      <trkpt lat="46.02972" lon="3.1639">
        <ele>537.946166992</ele>
        <time>2014-04-07T14:02:59.749Z</time>
      </trkpt>
      <trkpt lat="46.02971" lon="3.1639">
        <ele>538.21307373</ele>
        <time>2014-04-07T14:03:00.424Z</time>
      </trkpt>
      <trkpt lat="46.02963" lon="3.16392">
        <ele>539.35925293</ele>
        <time>2014-04-07T14:03:07.061Z</time>
      </trkpt>
      <trkpt lat="46.02962" lon="3.16393">
        <ele>539.471130371</ele>
        <time>2014-04-07T14:03:08.186Z</time>
      </trkpt>
      <trkpt lat="46.02953" lon="3.16394">
        <ele>540.473815918</ele>
        <time>2014-04-07T14:03:15.053Z</time>
      </trkpt>
      <trkpt lat="46.02952" lon="3.16394">
        <ele>540.598266602</ele>
        <time>2014-04-07T14:03:16.079Z</time>
      </trkpt>
      <trkpt lat="46.02944" lon="3.16397">
        <ele>541.267089844</ele>
        <time>2014-04-07T14:03:21.591Z</time>
      </trkpt>
      <trkpt lat="46.02943" lon="3.16398">
        <ele>541.383422852</ele>
        <time>2014-04-07T14:03:22.162Z</time>
      </trkpt>
      <trkpt lat="46.02935" lon="3.16401">
        <ele>542.024536133</ele>
        <time>2014-04-07T14:03:27.069Z</time>
      </trkpt>
      <trkpt lat="46.02933" lon="3.16402">
        <ele>542.212158203</ele>
        <time>2014-04-07T14:03:28.068Z</time>
      </trkpt>
      <trkpt lat="46.02926" lon="3.16406">
        <ele>542.811523438</ele>
        <time>2014-04-07T14:03:33.149Z</time>
      </trkpt>
      <trkpt lat="46.02925" lon="3.16407">
        <ele>542.89239502</ele>
        <time>2014-04-07T14:03:34.409Z</time>
      </trkpt>
      <trkpt lat="46.02917" lon="3.16411">
        <ele>543.312316895</ele>
        <time>2014-04-07T14:03:40.116Z</time>
      </trkpt>
      <trkpt lat="46.02916" lon="3.16412">
        <ele>543.359069824</ele>
        <time>2014-04-07T14:03:41.08Z</time>
      </trkpt>
      <trkpt lat="46.02908" lon="3.16417">
        <ele>543.391784668</ele>
        <time>2014-04-07T14:03:47.112Z</time>
      </trkpt>
      <trkpt lat="46.02906" lon="3.16418">
        <ele>543.400146484</ele>
        <time>2014-04-07T14:03:48.081Z</time>
      </trkpt>
      <trkpt lat="46.02899" lon="3.16423">
        <ele>543.69354248</ele>
        <time>2014-04-07T14:03:54.12Z</time>
      </trkpt>
      <trkpt lat="46.02898" lon="3.16424">
        <ele>543.785339355</ele>
        <time>2014-04-07T14:03:55.07Z</time>
      </trkpt>
      <trkpt lat="46.0289" lon="3.16429">
        <ele>544.027954102</ele>
        <time>2014-04-07T14:04:01.372Z</time>
      </trkpt>
      <trkpt lat="46.02888" lon="3.1643">
        <ele>544.081481934</ele>
        <time>2014-04-07T14:04:02.072Z</time>
      </trkpt>
      <trkpt lat="46.02881" lon="3.16435">
        <ele>544.455566406</ele>
        <time>2014-04-07T14:04:08.178Z</time>
      </trkpt>
      <trkpt lat="46.02879" lon="3.16436">
        <ele>544.54876709</ele>
        <time>2014-04-07T14:04:09.066Z</time>
      </trkpt>
      <trkpt lat="46.02871" lon="3.1644">
        <ele>545.301513672</ele>
        <time>2014-04-07T14:04:15.135Z</time>
      </trkpt>
      <trkpt lat="46.0287" lon="3.16441">
        <ele>545.329223633</ele>
        <time>2014-04-07T14:04:16.047Z</time>
      </trkpt>
      <trkpt lat="46.02861" lon="3.16446">
        <ele>545.377380371</ele>
        <time>2014-04-07T14:04:22.476Z</time>
      </trkpt>
      <trkpt lat="46.0286" lon="3.16447">
        <ele>545.390686035</ele>
        <time>2014-04-07T14:04:23.29Z</time>
      </trkpt>
      <trkpt lat="46.02853" lon="3.16451">
        <ele>545.445922852</ele>
        <time>2014-04-07T14:04:28.107Z</time>
      </trkpt>
      <trkpt lat="46.02852" lon="3.16452">
        <ele>545.497131348</ele>
        <time>2014-04-07T14:04:29.077Z</time>
      </trkpt>
      <trkpt lat="46.02845" lon="3.16456">
        <ele>545.642272949</ele>
        <time>2014-04-07T14:04:36.083Z</time>
      </trkpt>
      <trkpt lat="46.02843" lon="3.16458">
        <ele>545.587219238</ele>
        <time>2014-04-07T14:04:37.082Z</time>
      </trkpt>
      <trkpt lat="46.02836" lon="3.16463">
        <ele>545.51965332</ele>
        <time>2014-04-07T14:04:42.123Z</time>
      </trkpt>
      <trkpt lat="46.02834" lon="3.16464">
        <ele>545.516784668</ele>
        <time>2014-04-07T14:04:43.052Z</time>
      </trkpt>
      <trkpt lat="46.02826" lon="3.16468">
        <ele>545.730224609</ele>
        <time>2014-04-07T14:04:49.109Z</time>
      </trkpt>
      <trkpt lat="46.02825" lon="3.16468">
        <ele>545.78918457</ele>
        <time>2014-04-07T14:04:50.263Z</time>
      </trkpt>
      <trkpt lat="46.02817" lon="3.16472">
        <ele>546.051208496</ele>
        <time>2014-04-07T14:04:56.225Z</time>
      </trkpt>
      <trkpt lat="46.02815" lon="3.16473">
        <ele>546.023254395</ele>
        <time>2014-04-07T14:04:57.067Z</time>
      </trkpt>
      <trkpt lat="46.02807" lon="3.16479">
        <ele>545.98840332</ele>
        <time>2014-04-07T14:05:03.122Z</time>
      </trkpt>
      <trkpt lat="46.02806" lon="3.16481">
        <ele>545.924438477</ele>
        <time>2014-04-07T14:05:04.203Z</time>
      </trkpt>
      <trkpt lat="46.02799" lon="3.16487">
        <ele>546.027770996</ele>
        <time>2014-04-07T14:05:09.231Z</time>
      </trkpt>
      <trkpt lat="46.02797" lon="3.16488">
        <ele>546.031433105</ele>
        <time>2014-04-07T14:05:10.073Z</time>
      </trkpt>
      <trkpt lat="46.02791" lon="3.16493">
        <ele>546.164306641</ele>
        <time>2014-04-07T14:05:16.385Z</time>
      </trkpt>
      <trkpt lat="46.02789" lon="3.16494">
        <ele>546.188659668</ele>
        <time>2014-04-07T14:05:17.067Z</time>
      </trkpt>
      <trkpt lat="46.02783" lon="3.165">
        <ele>546.352416992</ele>
        <time>2014-04-07T14:05:22.12Z</time>
      </trkpt>
      <trkpt lat="46.02781" lon="3.16501">
        <ele>546.407226562</ele>
        <time>2014-04-07T14:05:23.069Z</time>
      </trkpt>
      <trkpt lat="46.02774" lon="3.16507">
        <ele>546.83392334</ele>
        <time>2014-04-07T14:05:29.132Z</time>
      </trkpt>
      <trkpt lat="46.02773" lon="3.16508">
        <ele>546.895202637</ele>
        <time>2014-04-07T14:05:30.065Z</time>
      </trkpt>
      <trkpt lat="46.02765" lon="3.16514">
        <ele>547.083496094</ele>
        <time>2014-04-07T14:05:36.468Z</time>
      </trkpt>
      <trkpt lat="46.02764" lon="3.16515">
        <ele>547.136657715</ele>
        <time>2014-04-07T14:05:37.05Z</time>
      </trkpt>
      <trkpt lat="46.02757" lon="3.16523">
        <ele>547.243347168</ele>
        <time>2014-04-07T14:05:44.114Z</time>
      </trkpt>
      <trkpt lat="46.02756" lon="3.16524">
        <ele>547.238525391</ele>
        <time>2014-04-07T14:05:45.073Z</time>
      </trkpt>
      <trkpt lat="46.02749" lon="3.16531">
        <ele>547.362121582</ele>
        <time>2014-04-07T14:05:51.366Z</time>
      </trkpt>
      <trkpt lat="46.02747" lon="3.16532">
        <ele>547.329040527</ele>
        <time>2014-04-07T14:05:52.065Z</time>
      </trkpt>
      <trkpt lat="46.0274" lon="3.16538">
        <ele>547.260803223</ele>
        <time>2014-04-07T14:05:57.082Z</time>
      </trkpt>
      <trkpt lat="46.02739" lon="3.16539">
        <ele>547.3359375</ele>
        <time>2014-04-07T14:05:58.034Z</time>
      </trkpt>
      <trkpt lat="46.02733" lon="3.16545">
        <ele>547.542236328</ele>
        <time>2014-04-07T14:06:05.852Z</time>
      </trkpt>
      <trkpt lat="46.02732" lon="3.16547">
        <ele>547.499816895</ele>
        <time>2014-04-07T14:06:06.057Z</time>
      </trkpt>
      <trkpt lat="46.02724" lon="3.16554">
        <ele>547.537658691</ele>
        <time>2014-04-07T14:06:13.188Z</time>
      </trkpt>
      <trkpt lat="46.02722" lon="3.16556">
        <ele>547.548522949</ele>
        <time>2014-04-07T14:06:14.076Z</time>
      </trkpt>
      <trkpt lat="46.02715" lon="3.16563">
        <ele>547.82800293</ele>
        <time>2014-04-07T14:06:20.941Z</time>
      </trkpt>
      <trkpt lat="46.02715" lon="3.16565">
        <ele>547.833129883</ele>
        <time>2014-04-07T14:06:21.039Z</time>
      </trkpt>
      <trkpt lat="46.02709" lon="3.16575">
        <ele>547.364013672</ele>
        <time>2014-04-07T14:06:41.118Z</time>
      </trkpt>
      <trkpt lat="46.02708" lon="3.16576">
        <ele>547.258239746</ele>
        <time>2014-04-07T14:06:42.033Z</time>
      </trkpt>
      <trkpt lat="46.02704" lon="3.16585">
        <ele>547.130004883</ele>
        <time>2014-04-07T14:06:46.08Z</time>
      </trkpt>
      <trkpt lat="46.02703" lon="3.16586">
        <ele>547.123474121</ele>
        <time>2014-04-07T14:06:47.082Z</time>
      </trkpt>
      <trkpt lat="46.02702" lon="3.16598">
        <ele>547.122375488</ele>
        <time>2014-04-07T14:07:01.256Z</time>
      </trkpt>
      <trkpt lat="46.02702" lon="3.166">
        <ele>547.068359375</ele>
        <time>2014-04-07T14:07:02.038Z</time>
      </trkpt>
      <trkpt lat="46.02708" lon="3.16609">
        <ele>546.444885254</ele>
        <time>2014-04-07T14:07:16.479Z</time>
      </trkpt>
      <trkpt lat="46.02708" lon="3.1661">
        <ele>546.386169434</ele>
        <time>2014-04-07T14:07:17.04Z</time>
      </trkpt>
      <trkpt lat="46.02712" lon="3.1662">
        <ele>546.004882812</ele>
        <time>2014-04-07T14:07:24.4Z</time>
      </trkpt>
      <trkpt lat="46.02713" lon="3.16621">
        <ele>545.976257324</ele>
        <time>2014-04-07T14:07:25.029Z</time>
      </trkpt>
      <trkpt lat="46.02717" lon="3.16631">
        <ele>545.495239258</ele>
        <time>2014-04-07T14:07:31.04Z</time>
      </trkpt>
      <trkpt lat="46.02718" lon="3.16633">
        <ele>545.410400391</ele>
        <time>2014-04-07T14:07:32.207Z</time>
      </trkpt>
      <trkpt lat="46.02722" lon="3.16644">
        <ele>544.958435059</ele>
        <time>2014-04-07T14:07:38.14Z</time>
      </trkpt>
      <trkpt lat="46.02722" lon="3.16646">
        <ele>544.888549805</ele>
        <time>2014-04-07T14:07:39.061Z</time>
      </trkpt>
      <trkpt lat="46.02726" lon="3.16657">
        <ele>544.129943848</ele>
        <time>2014-04-07T14:07:46.489Z</time>
      </trkpt>
      <trkpt lat="46.02726" lon="3.16659">
        <ele>543.982971191</ele>
        <time>2014-04-07T14:07:47.079Z</time>
      </trkpt>
      <trkpt lat="46.02728" lon="3.16669">
        <ele>543.310852051</ele>
        <time>2014-04-07T14:07:53.085Z</time>
      </trkpt>
      <trkpt lat="46.02728" lon="3.16672">
        <ele>543.166687012</ele>
        <time>2014-04-07T14:07:54.066Z</time>
      </trkpt>
      <trkpt lat="46.02731" lon="3.16681">
        <ele>542.137695312</ele>
        <time>2014-04-07T14:08:00.626Z</time>
      </trkpt>
      <trkpt lat="46.02732" lon="3.16683">
        <ele>541.921142578</ele>
        <time>2014-04-07T14:08:01.199Z</time>
      </trkpt>
      <trkpt lat="46.02734" lon="3.16695">
        <ele>540.979370117</ele>
        <time>2014-04-07T14:08:07.594Z</time>
      </trkpt>
      <trkpt lat="46.02734" lon="3.16697">
        <ele>540.778747559</ele>
        <time>2014-04-07T14:08:08.063Z</time>
      </trkpt>
      <trkpt lat="46.02738" lon="3.16707">
        <ele>539.857421875</ele>
        <time>2014-04-07T14:08:16.74Z</time>
      </trkpt>
      <trkpt lat="46.02739" lon="3.16709">
        <ele>539.678222656</ele>
        <time>2014-04-07T14:08:17.127Z</time>
      </trkpt>
      <trkpt lat="46.0274" lon="3.16721">
        <ele>539.126403809</ele>
        <time>2014-04-07T14:08:23.059Z</time>
      </trkpt>
      <trkpt lat="46.02741" lon="3.16723">
        <ele>539.047546387</ele>
        <time>2014-04-07T14:08:24.085Z</time>
      </trkpt>
      <trkpt lat="46.02744" lon="3.16734">
        <ele>538.410583496</ele>
        <time>2014-04-07T14:08:30.95Z</time>
      </trkpt>
      <trkpt lat="46.02745" lon="3.16737">
        <ele>538.313354492</ele>
        <time>2014-04-07T14:08:31.127Z</time>
      </trkpt>
      <trkpt lat="46.02748" lon="3.16747">
        <ele>537.645812988</ele>
        <time>2014-04-07T14:08:36.727Z</time>
      </trkpt>
      <trkpt lat="46.02749" lon="3.16748">
        <ele>537.552856445</ele>
        <time>2014-04-07T14:08:37.056Z</time>
      </trkpt>
      <trkpt lat="46.02751" lon="3.1676">
        <ele>537.04309082</ele>
        <time>2014-04-07T14:08:44.114Z</time>
      </trkpt>
      <trkpt lat="46.02751" lon="3.16761">
        <ele>537.00769043</ele>
        <time>2014-04-07T14:08:45.139Z</time>
      </trkpt>
      <trkpt lat="46.02756" lon="3.16772">
        <ele>536.507507324</ele>
        <time>2014-04-07T14:08:52.505Z</time>
      </trkpt>
      <trkpt lat="46.02756" lon="3.16774">
        <ele>536.503356934</ele>
        <time>2014-04-07T14:08:53.079Z</time>
      </trkpt>
      <trkpt lat="46.02757" lon="3.16786">
        <ele>535.943908691</ele>
        <time>2014-04-07T14:09:04.142Z</time>
      </trkpt>
      <trkpt lat="46.02758" lon="3.1679">
        <ele>535.833984375</ele>
        <time>2014-04-07T14:09:05.078Z</time>
      </trkpt>
      <trkpt lat="46.02759" lon="3.16801">
        <ele>535.339416504</ele>
        <time>2014-04-07T14:09:10.158Z</time>
      </trkpt>
      <trkpt lat="46.02759" lon="3.16803">
        <ele>535.286743164</ele>
        <time>2014-04-07T14:09:11.213Z</time>
      </trkpt>
      <trkpt lat="46.02759" lon="3.16815">
        <ele>535.139465332</ele>
        <time>2014-04-07T14:09:19.091Z</time>
      </trkpt>
      <trkpt lat="46.02759" lon="3.16817">
        <ele>535.082458496</ele>
        <time>2014-04-07T14:09:20.098Z</time>
      </trkpt>
      <trkpt lat="46.02757" lon="3.1683">
        <ele>534.668701172</ele>
        <time>2014-04-07T14:09:26.404Z</time>
      </trkpt>
      <trkpt lat="46.02756" lon="3.16832">
        <ele>534.517028809</ele>
        <time>2014-04-07T14:09:27.081Z</time>
      </trkpt>
      <trkpt lat="46.02754" lon="3.16842">
        <ele>534.140808105</ele>
        <time>2014-04-07T14:09:32.144Z</time>
      </trkpt>
      <trkpt lat="46.02754" lon="3.16845">
        <ele>534.066223145</ele>
        <time>2014-04-07T14:09:33.084Z</time>
      </trkpt>
      <trkpt lat="46.02751" lon="3.16856">
        <ele>534.07409668</ele>
        <time>2014-04-07T14:09:40.133Z</time>
      </trkpt>
      <trkpt lat="46.0275" lon="3.16858">
        <ele>534.040222168</ele>
        <time>2014-04-07T14:09:41.122Z</time>
      </trkpt>
      <trkpt lat="46.02747" lon="3.1687">
        <ele>533.854675293</ele>
        <time>2014-04-07T14:09:47.102Z</time>
      </trkpt>
      <trkpt lat="46.02746" lon="3.16872">
        <ele>533.822998047</ele>
        <time>2014-04-07T14:09:48.652Z</time>
      </trkpt>
      <trkpt lat="46.02743" lon="3.16883">
        <ele>533.485778809</ele>
        <time>2014-04-07T14:09:55.128Z</time>
      </trkpt>
      <trkpt lat="46.02743" lon="3.16885">
        <ele>533.413330078</ele>
        <time>2014-04-07T14:09:56.434Z</time>
      </trkpt>
      <trkpt lat="46.02741" lon="3.16897">
        <ele>532.934509277</ele>
        <time>2014-04-07T14:10:02.461Z</time>
      </trkpt>
      <trkpt lat="46.0274" lon="3.16899">
        <ele>532.880615234</ele>
        <time>2014-04-07T14:10:03.068Z</time>
      </trkpt>
      <trkpt lat="46.02736" lon="3.1691">
        <ele>532.804199219</ele>
        <time>2014-04-07T14:10:10.115Z</time>
      </trkpt>
      <trkpt lat="46.02735" lon="3.16912">
        <ele>532.828491211</ele>
        <time>2014-04-07T14:10:11.07Z</time>
      </trkpt>
      <trkpt lat="46.02731" lon="3.16922">
        <ele>532.764587402</ele>
        <time>2014-04-07T14:10:17.208Z</time>
      </trkpt>
      <trkpt lat="46.0273" lon="3.16926">
        <ele>532.697998047</ele>
        <time>2014-04-07T14:10:18.073Z</time>
      </trkpt>
      <trkpt lat="46.02726" lon="3.16938">
        <ele>532.54083252</ele>
        <time>2014-04-07T14:10:24.151Z</time>
      </trkpt>
      <trkpt lat="46.02726" lon="3.1694">
        <ele>532.533569336</ele>
        <time>2014-04-07T14:10:25.071Z</time>
      </trkpt>
      <trkpt lat="46.02724" lon="3.16952">
        <ele>532.389892578</ele>
        <time>2014-04-07T14:10:33.735Z</time>
      </trkpt>
      <trkpt lat="46.02724" lon="3.16953">
        <ele>532.397888184</ele>
        <time>2014-04-07T14:10:34.04Z</time>
      </trkpt>
      <trkpt lat="46.02722" lon="3.16964">
        <ele>532.640869141</ele>
        <time>2014-04-07T14:10:41.369Z</time>
      </trkpt>
      <trkpt lat="46.02722" lon="3.16966">
        <ele>532.652282715</ele>
        <time>2014-04-07T14:10:42.08Z</time>
      </trkpt>
      <trkpt lat="46.02719" lon="3.16977">
        <ele>532.786254883</ele>
        <time>2014-04-07T14:10:48.11Z</time>
      </trkpt>
      <trkpt lat="46.02719" lon="3.1698">
        <ele>532.786865234</ele>
        <time>2014-04-07T14:10:49.107Z</time>
      </trkpt>
      <trkpt lat="46.02716" lon="3.1699">
        <ele>532.571777344</ele>
        <time>2014-04-07T14:10:54.118Z</time>
      </trkpt>
      <trkpt lat="46.02716" lon="3.16992">
        <ele>532.448059082</ele>
        <time>2014-04-07T14:10:55.078Z</time>
      </trkpt>
      <trkpt lat="46.0271" lon="3.17002">
        <ele>532.063232422</ele>
        <time>2014-04-07T14:11:01.042Z</time>
      </trkpt>
      <trkpt lat="46.0271" lon="3.17002">
        <ele>532.059326172</ele>
        <time>2014-04-07T14:11:02.044Z</time>
      </trkpt>
      <trkpt lat="46.02703" lon="3.17009">
        <ele>531.375061035</ele>
        <time>2014-04-07T14:11:52.486Z</time>
      </trkpt>
      <trkpt lat="46.02702" lon="3.17011">
        <ele>531.407531738</ele>
        <time>2014-04-07T14:11:53.031Z</time>
      </trkpt>
      <trkpt lat="46.02697" lon="3.17021">
        <ele>531.115905762</ele>
        <time>2014-04-07T14:12:01.128Z</time>
      </trkpt>
      <trkpt lat="46.02697" lon="3.17023">
        <ele>531.069824219</ele>
        <time>2014-04-07T14:12:02.05Z</time>
      </trkpt>
      <trkpt lat="46.02695" lon="3.17034">
        <ele>530.846008301</ele>
        <time>2014-04-07T14:12:08.083Z</time>
      </trkpt>
      <trkpt lat="46.02695" lon="3.17036">
        <ele>530.818237305</ele>
        <time>2014-04-07T14:12:09.175Z</time>
      </trkpt>
      <trkpt lat="46.02692" lon="3.17047">
        <ele>530.664794922</ele>
        <time>2014-04-07T14:12:15.155Z</time>
      </trkpt>
      <trkpt lat="46.02692" lon="3.17049">
        <ele>530.629882812</ele>
        <time>2014-04-07T14:12:16.088Z</time>
      </trkpt>
      <trkpt lat="46.02689" lon="3.1706">
        <ele>530.331787109</ele>
        <time>2014-04-07T14:12:22.301Z</time>
      </trkpt>
      <trkpt lat="46.02688" lon="3.17061">
        <ele>530.26751709</ele>
        <time>2014-04-07T14:12:23.074Z</time>
      </trkpt>
      <trkpt lat="46.02685" lon="3.17071">
        <ele>530.070800781</ele>
        <time>2014-04-07T14:12:28.116Z</time>
      </trkpt>
      <trkpt lat="46.02684" lon="3.17074">
        <ele>530.005249023</ele>
        <time>2014-04-07T14:12:29.09Z</time>
      </trkpt>
      <trkpt lat="46.02682" lon="3.17085">
        <ele>529.804199219</ele>
        <time>2014-04-07T14:12:35.816Z</time>
      </trkpt>
      <trkpt lat="46.02682" lon="3.17087">
        <ele>529.785949707</ele>
        <time>2014-04-07T14:12:36.048Z</time>
      </trkpt>
      <trkpt lat="46.02679" lon="3.17099">
        <ele>529.594482422</ele>
        <time>2014-04-07T14:12:43.104Z</time>
      </trkpt>
      <trkpt lat="46.02679" lon="3.17101">
        <ele>529.528015137</ele>
        <time>2014-04-07T14:12:44.112Z</time>
      </trkpt>
      <trkpt lat="46.02676" lon="3.17112">
        <ele>529.481506348</ele>
        <time>2014-04-07T14:12:51.114Z</time>
      </trkpt>
      <trkpt lat="46.02675" lon="3.17114">
        <ele>529.466430664</ele>
        <time>2014-04-07T14:12:52.08Z</time>
      </trkpt>
      <trkpt lat="46.02672" lon="3.17125">
        <ele>529.52734375</ele>
        <time>2014-04-07T14:12:58.11Z</time>
      </trkpt>
      <trkpt lat="46.02671" lon="3.17127">
        <ele>529.514404297</ele>
        <time>2014-04-07T14:12:59.085Z</time>
      </trkpt>
      <trkpt lat="46.02667" lon="3.17138">
        <ele>529.390136719</ele>
        <time>2014-04-07T14:13:05.14Z</time>
      </trkpt>
      <trkpt lat="46.02666" lon="3.1714">
        <ele>529.352478027</ele>
        <time>2014-04-07T14:13:06.071Z</time>
      </trkpt>
      <trkpt lat="46.02662" lon="3.17149">
        <ele>528.773742676</ele>
        <time>2014-04-07T14:13:11.139Z</time>
      </trkpt>
      <trkpt lat="46.02662" lon="3.17151">
        <ele>528.679504395</ele>
        <time>2014-04-07T14:13:12.083Z</time>
      </trkpt>
      <trkpt lat="46.02657" lon="3.17162">
        <ele>527.826965332</ele>
        <time>2014-04-07T14:13:19.118Z</time>
      </trkpt>
      <trkpt lat="46.02657" lon="3.17163">
        <ele>527.636352539</ele>
        <time>2014-04-07T14:13:20.085Z</time>
      </trkpt>
      <trkpt lat="46.02654" lon="3.17175">
        <ele>527.11126709</ele>
        <time>2014-04-07T14:13:26.219Z</time>
      </trkpt>
      <trkpt lat="46.02653" lon="3.17177">
        <ele>527.028137207</ele>
        <time>2014-04-07T14:13:27.058Z</time>
      </trkpt>
      <trkpt lat="46.0265" lon="3.17189">
        <ele>526.43170166</ele>
        <time>2014-04-07T14:13:33.105Z</time>
      </trkpt>
      <trkpt lat="46.0265" lon="3.1719">
        <ele>526.302429199</ele>
        <time>2014-04-07T14:13:34.086Z</time>
      </trkpt>
      <trkpt lat="46.02648" lon="3.17201">
        <ele>525.488525391</ele>
        <time>2014-04-07T14:13:40.857Z</time>
      </trkpt>
      <trkpt lat="46.02647" lon="3.17203">
        <ele>525.388122559</ele>
        <time>2014-04-07T14:13:41.087Z</time>
      </trkpt>
      <trkpt lat="46.02645" lon="3.17214">
        <ele>524.946105957</ele>
        <time>2014-04-07T14:13:47.098Z</time>
      </trkpt>
      <trkpt lat="46.02644" lon="3.17216">
        <ele>524.914367676</ele>
        <time>2014-04-07T14:13:48.093Z</time>
      </trkpt>
      <trkpt lat="46.02641" lon="3.17228">
        <ele>524.583251953</ele>
        <time>2014-04-07T14:13:55.095Z</time>
      </trkpt>
      <trkpt lat="46.0264" lon="3.1723">
        <ele>524.561035156</ele>
        <time>2014-04-07T14:13:56.084Z</time>
      </trkpt>
      <trkpt lat="46.02637" lon="3.1724">
        <ele>524.366882324</ele>
        <time>2014-04-07T14:14:00.136Z</time>
      </trkpt>
      <trkpt lat="46.02636" lon="3.17242">
        <ele>524.385925293</ele>
        <time>2014-04-07T14:14:01.046Z</time>
      </trkpt>
      <trkpt lat="46.02633" lon="3.17253">
        <ele>524.617431641</ele>
        <time>2014-04-07T14:14:08.124Z</time>
      </trkpt>
      <trkpt lat="46.02633" lon="3.17256">
        <ele>524.635803223</ele>
        <time>2014-04-07T14:14:09.046Z</time>
      </trkpt>
      <trkpt lat="46.02629" lon="3.17267">
        <ele>524.448120117</ele>
        <time>2014-04-07T14:14:14.112Z</time>
      </trkpt>
      <trkpt lat="46.02628" lon="3.17269">
        <ele>524.40625</ele>
        <time>2014-04-07T14:14:15.085Z</time>
      </trkpt>
      <trkpt lat="46.02626" lon="3.1728">
        <ele>524.345947266</ele>
        <time>2014-04-07T14:14:22.023Z</time>
      </trkpt>
      <trkpt lat="46.02626" lon="3.17282">
        <ele>524.357910156</ele>
        <time>2014-04-07T14:14:23.002Z</time>
      </trkpt>
      <trkpt lat="46.02624" lon="3.17292">
        <ele>524.451782227</ele>
        <time>2014-04-07T14:14:31.755Z</time>
      </trkpt>
      <trkpt lat="46.02623" lon="3.17294">
        <ele>524.44342041</ele>
        <time>2014-04-07T14:14:32.018Z</time>
      </trkpt>
      <trkpt lat="46.0262" lon="3.17306">
        <ele>524.171936035</ele>
        <time>2014-04-07T14:14:38.051Z</time>
      </trkpt>
      <trkpt lat="46.02619" lon="3.17308">
        <ele>524.132141113</ele>
        <time>2014-04-07T14:14:39.035Z</time>
      </trkpt>
      <trkpt lat="46.02616" lon="3.1732">
        <ele>523.932739258</ele>
        <time>2014-04-07T14:14:45.587Z</time>
      </trkpt>
      <trkpt lat="46.02615" lon="3.17322">
        <ele>523.917114258</ele>
        <time>2014-04-07T14:14:46.036Z</time>
      </trkpt>
      <trkpt lat="46.02611" lon="3.17332">
        <ele>524.014953613</ele>
        <time>2014-04-07T14:14:51.83Z</time>
      </trkpt>
      <trkpt lat="46.0261" lon="3.17334">
        <ele>524.02746582</ele>
        <time>2014-04-07T14:14:52.031Z</time>
      </trkpt>
      <trkpt lat="46.02606" lon="3.17345">
        <ele>523.678955078</ele>
        <time>2014-04-07T14:14:58.064Z</time>
      </trkpt>
      <trkpt lat="46.02605" lon="3.17347">
        <ele>523.559631348</ele>
        <time>2014-04-07T14:14:59Z</time>
      </trkpt>
      <trkpt lat="46.02603" lon="3.17358">
        <ele>523.087341309</ele>
        <time>2014-04-07T14:15:05.056Z</time>
      </trkpt>
      <trkpt lat="46.02603" lon="3.1736">
        <ele>523.063415527</ele>
        <time>2014-04-07T14:15:06.006Z</time>
      </trkpt>
      <trkpt lat="46.02605" lon="3.17371">
        <ele>522.607971191</ele>
        <time>2014-04-07T14:15:19.096Z</time>
      </trkpt>
      <trkpt lat="46.02606" lon="3.17372">
        <ele>522.585510254</ele>
        <time>2014-04-07T14:15:20.015Z</time>
      </trkpt>
      <trkpt lat="46.02611" lon="3.17382">
        <ele>522.425170898</ele>
        <time>2014-04-07T14:15:27.214Z</time>
      </trkpt>
      <trkpt lat="46.02611" lon="3.17384">
        <ele>522.450073242</ele>
        <time>2014-04-07T14:15:28.008Z</time>
      </trkpt>
      <trkpt lat="46.02613" lon="3.17396">
        <ele>522.082702637</ele>
        <time>2014-04-07T14:15:43.059Z</time>
      </trkpt>
      <trkpt lat="46.02612" lon="3.17397">
        <ele>521.957275391</ele>
        <time>2014-04-07T14:15:44.038Z</time>
      </trkpt>
      <trkpt lat="46.02608" lon="3.17387">
        <ele>521.349609375</ele>
        <time>2014-04-07T14:16:31.735Z</time>
      </trkpt>
      <trkpt lat="46.02606" lon="3.17386">
        <ele>521.403198242</ele>
        <time>2014-04-07T14:16:32.012Z</time>
      </trkpt>
      <trkpt lat="46.02607" lon="3.17375">
        <ele>521.51965332</ele>
        <time>2014-04-07T14:16:56.473Z</time>
      </trkpt>
      <trkpt lat="46.02607" lon="3.17373">
        <ele>521.511230469</ele>
        <time>2014-04-07T14:16:57.009Z</time>
      </trkpt>
      <trkpt lat="46.02603" lon="3.17382">
        <ele>521.077270508</ele>
        <time>2014-04-07T14:17:15.037Z</time>
      </trkpt>
      <trkpt lat="46.02602" lon="3.17384">
        <ele>521.023986816</ele>
        <time>2014-04-07T14:17:16.076Z</time>
      </trkpt>
      <trkpt lat="46.02597" lon="3.17393">
        <ele>521.207336426</ele>
        <time>2014-04-07T14:17:25.063Z</time>
      </trkpt>
      <trkpt lat="46.02596" lon="3.17395">
        <ele>521.214904785</ele>
        <time>2014-04-07T14:17:26.016Z</time>
      </trkpt>
      <trkpt lat="46.0259" lon="3.17403">
        <ele>521.098876953</ele>
        <time>2014-04-07T14:17:33.093Z</time>
      </trkpt>
      <trkpt lat="46.0259" lon="3.17404">
        <ele>521.090820312</ele>
        <time>2014-04-07T14:17:34.087Z</time>
      </trkpt>
      <trkpt lat="46.02587" lon="3.17415">
        <ele>520.813659668</ele>
        <time>2014-04-07T14:17:40.167Z</time>
      </trkpt>
      <trkpt lat="46.02586" lon="3.17417">
        <ele>520.743896484</ele>
        <time>2014-04-07T14:17:41.055Z</time>
      </trkpt>
      <trkpt lat="46.02582" lon="3.17427">
        <ele>520.208740234</ele>
        <time>2014-04-07T14:17:48.054Z</time>
      </trkpt>
      <trkpt lat="46.02581" lon="3.17428">
        <ele>520.116394043</ele>
        <time>2014-04-07T14:17:49.083Z</time>
      </trkpt>
      <trkpt lat="46.02578" lon="3.17439">
        <ele>519.523010254</ele>
        <time>2014-04-07T14:17:59.155Z</time>
      </trkpt>
      <trkpt lat="46.02577" lon="3.1744">
        <ele>519.486694336</ele>
        <time>2014-04-07T14:18:00.11Z</time>
      </trkpt>
      <trkpt lat="46.02573" lon="3.17451">
        <ele>519.37890625</ele>
        <time>2014-04-07T14:18:43.172Z</time>
      </trkpt>
      <trkpt lat="46.02572" lon="3.17453">
        <ele>519.400634766</ele>
        <time>2014-04-07T14:18:44.016Z</time>
      </trkpt>
      <trkpt lat="46.02569" lon="3.17464">
        <ele>519.385864258</ele>
        <time>2014-04-07T14:18:50.119Z</time>
      </trkpt>
      <trkpt lat="46.02569" lon="3.17465">
        <ele>519.323608398</ele>
        <time>2014-04-07T14:18:51.051Z</time>
      </trkpt>
      <trkpt lat="46.02566" lon="3.17477">
        <ele>518.620849609</ele>
        <time>2014-04-07T14:18:58.012Z</time>
      </trkpt>
      <trkpt lat="46.02566" lon="3.17478">
        <ele>518.651428223</ele>
        <time>2014-04-07T14:18:59.051Z</time>
      </trkpt>
      <trkpt lat="46.02562" lon="3.1749">
        <ele>518.733398438</ele>
        <time>2014-04-07T14:19:05.068Z</time>
      </trkpt>
      <trkpt lat="46.02561" lon="3.17492">
        <ele>518.764343262</ele>
        <time>2014-04-07T14:19:06.174Z</time>
      </trkpt>
      <trkpt lat="46.02558" lon="3.17503">
        <ele>519.132080078</ele>
        <time>2014-04-07T14:19:15.164Z</time>
      </trkpt>
      <trkpt lat="46.02557" lon="3.17505">
        <ele>519.174377441</ele>
        <time>2014-04-07T14:19:16.063Z</time>
      </trkpt>
      <trkpt lat="46.02554" lon="3.17517">
        <ele>519.16003418</ele>
        <time>2014-04-07T14:19:23.905Z</time>
      </trkpt>
      <trkpt lat="46.02553" lon="3.17518">
        <ele>519.138793945</ele>
        <time>2014-04-07T14:19:24.008Z</time>
      </trkpt>
      <trkpt lat="46.02551" lon="3.1753">
        <ele>518.78729248</ele>
        <time>2014-04-07T14:19:31.158Z</time>
      </trkpt>
      <trkpt lat="46.0255" lon="3.17532">
        <ele>518.697509766</ele>
        <time>2014-04-07T14:19:32.06Z</time>
      </trkpt>
      <trkpt lat="46.02546" lon="3.17542">
        <ele>518.406860352</ele>
        <time>2014-04-07T14:19:38.301Z</time>
      </trkpt>
      <trkpt lat="46.02546" lon="3.17544">
        <ele>518.446228027</ele>
        <time>2014-04-07T14:19:39.192Z</time>
      </trkpt>
      <trkpt lat="46.02542" lon="3.17553">
        <ele>518.167419434</ele>
        <time>2014-04-07T14:19:45.172Z</time>
      </trkpt>
      <trkpt lat="46.02541" lon="3.17555">
        <ele>518.084411621</ele>
        <time>2014-04-07T14:19:46.067Z</time>
      </trkpt>
      <trkpt lat="46.02536" lon="3.17565">
        <ele>517.529907227</ele>
        <time>2014-04-07T14:19:53.06Z</time>
      </trkpt>
      <trkpt lat="46.02535" lon="3.17567">
        <ele>517.412841797</ele>
        <time>2014-04-07T14:19:54.164Z</time>
      </trkpt>
      <trkpt lat="46.02532" lon="3.17577">
        <ele>517.178649902</ele>
        <time>2014-04-07T14:20:00.182Z</time>
      </trkpt>
      <trkpt lat="46.02532" lon="3.17579">
        <ele>517.149841309</ele>
        <time>2014-04-07T14:20:01.034Z</time>
      </trkpt>
      <trkpt lat="46.02528" lon="3.1759">
        <ele>516.948913574</ele>
        <time>2014-04-07T14:20:07.331Z</time>
      </trkpt>
      <trkpt lat="46.02527" lon="3.17591">
        <ele>516.81072998</ele>
        <time>2014-04-07T14:20:08.065Z</time>
      </trkpt>
      <trkpt lat="46.02523" lon="3.17601">
        <ele>515.622680664</ele>
        <time>2014-04-07T14:20:15.062Z</time>
      </trkpt>
      <trkpt lat="46.02522" lon="3.17603">
        <ele>515.443969727</ele>
        <time>2014-04-07T14:20:16.064Z</time>
      </trkpt>
      <trkpt lat="46.02517" lon="3.17613">
        <ele>514.291992188</ele>
        <time>2014-04-07T14:20:23.335Z</time>
      </trkpt>
      <trkpt lat="46.02516" lon="3.17614">
        <ele>514.127563477</ele>
        <time>2014-04-07T14:20:24.064Z</time>
      </trkpt>
      <trkpt lat="46.02512" lon="3.17623">
        <ele>513.30657959</ele>
        <time>2014-04-07T14:20:30.617Z</time>
      </trkpt>
      <trkpt lat="46.02511" lon="3.17625">
        <ele>513.179016113</ele>
        <time>2014-04-07T14:20:31.05Z</time>
      </trkpt>
      <trkpt lat="46.02506" lon="3.17633">
        <ele>512.311462402</ele>
        <time>2014-04-07T14:20:37.32Z</time>
      </trkpt>
      <trkpt lat="46.02505" lon="3.17635">
        <ele>512.149780273</ele>
        <time>2014-04-07T14:20:38.062Z</time>
      </trkpt>
      <trkpt lat="46.02499" lon="3.17644">
        <ele>510.930541992</ele>
        <time>2014-04-07T14:20:45.055Z</time>
      </trkpt>
      <trkpt lat="46.02498" lon="3.17645">
        <ele>510.769500732</ele>
        <time>2014-04-07T14:20:46.106Z</time>
      </trkpt>
      <trkpt lat="46.02496" lon="3.17657">
        <ele>509.530517578</ele>
        <time>2014-04-07T14:21:03.199Z</time>
      </trkpt>
      <trkpt lat="46.02494" lon="3.17658">
        <ele>509.509033203</ele>
        <time>2014-04-07T14:21:04.168Z</time>
      </trkpt>
      <trkpt lat="46.02486" lon="3.17663">
        <ele>509.090576172</ele>
        <time>2014-04-07T14:21:11.019Z</time>
      </trkpt>
      <trkpt lat="46.02486" lon="3.17664">
        <ele>509.09286499</ele>
        <time>2014-04-07T14:21:12.008Z</time>
      </trkpt>
      <trkpt lat="46.02478" lon="3.1767">
        <ele>509.207489014</ele>
        <time>2014-04-07T14:21:27.046Z</time>
      </trkpt>
      <trkpt lat="46.02478" lon="3.17672">
        <ele>509.111114502</ele>
        <time>2014-04-07T14:21:28.057Z</time>
      </trkpt>
      <trkpt lat="46.02474" lon="3.17683">
        <ele>508.590423584</ele>
        <time>2014-04-07T14:21:35.148Z</time>
      </trkpt>
      <trkpt lat="46.02473" lon="3.17684">
        <ele>508.545166016</ele>
        <time>2014-04-07T14:21:36.634Z</time>
      </trkpt>
      <trkpt lat="46.02468" lon="3.17693">
        <ele>508.65246582</ele>
        <time>2014-04-07T14:21:41.822Z</time>
      </trkpt>
      <trkpt lat="46.02467" lon="3.17695">
        <ele>508.599151611</ele>
        <time>2014-04-07T14:21:42.02Z</time>
      </trkpt>
      <trkpt lat="46.02462" lon="3.17704">
        <ele>508.250335693</ele>
        <time>2014-04-07T14:21:49.093Z</time>
      </trkpt>
      <trkpt lat="46.02461" lon="3.17706">
        <ele>508.125701904</ele>
        <time>2014-04-07T14:21:50.025Z</time>
      </trkpt>
      <trkpt lat="46.02456" lon="3.17716">
        <ele>507.794586182</ele>
        <time>2014-04-07T14:21:56.134Z</time>
      </trkpt>
      <trkpt lat="46.02456" lon="3.17717">
        <ele>507.751312256</ele>
        <time>2014-04-07T14:21:57.077Z</time>
      </trkpt>
      <trkpt lat="46.0245" lon="3.17724">
        <ele>507.547943115</ele>
        <time>2014-04-07T14:22:03.408Z</time>
      </trkpt>
      <trkpt lat="46.02449" lon="3.17726">
        <ele>507.471466064</ele>
        <time>2014-04-07T14:22:04.088Z</time>
      </trkpt>
      <trkpt lat="46.02444" lon="3.17736">
        <ele>506.947723389</ele>
        <time>2014-04-07T14:22:09.423Z</time>
      </trkpt>
      <trkpt lat="46.02443" lon="3.17738">
        <ele>506.85256958</ele>
        <time>2014-04-07T14:22:10.042Z</time>
      </trkpt>
      <trkpt lat="46.02438" lon="3.17748">
        <ele>506.44317627</ele>
        <time>2014-04-07T14:22:17.227Z</time>
      </trkpt>
      <trkpt lat="46.02438" lon="3.17749">
        <ele>506.399627686</ele>
        <time>2014-04-07T14:22:18.061Z</time>
      </trkpt>
      <trkpt lat="46.02432" lon="3.17757">
        <ele>506.291320801</ele>
        <time>2014-04-07T14:22:24.064Z</time>
      </trkpt>
      <trkpt lat="46.02431" lon="3.17759">
        <ele>506.253570557</ele>
        <time>2014-04-07T14:22:25.032Z</time>
      </trkpt>
      <trkpt lat="46.02425" lon="3.17767">
        <ele>506.074157715</ele>
        <time>2014-04-07T14:22:32.128Z</time>
      </trkpt>
      <trkpt lat="46.02423" lon="3.1777">
        <ele>506.106933594</ele>
        <time>2014-04-07T14:22:33.067Z</time>
      </trkpt>
      <trkpt lat="46.02416" lon="3.17778">
        <ele>506.445281982</ele>
        <time>2014-04-07T14:22:40.078Z</time>
      </trkpt>
      <trkpt lat="46.02415" lon="3.17779">
        <ele>506.444091797</ele>
        <time>2014-04-07T14:22:41.324Z</time>
      </trkpt>
      <trkpt lat="46.02409" lon="3.17787">
        <ele>506.539001465</ele>
        <time>2014-04-07T14:22:47.086Z</time>
      </trkpt>
      <trkpt lat="46.02408" lon="3.17788">
        <ele>506.500213623</ele>
        <time>2014-04-07T14:22:48.08Z</time>
      </trkpt>
      <trkpt lat="46.02402" lon="3.17797">
        <ele>505.960540771</ele>
        <time>2014-04-07T14:22:54.156Z</time>
      </trkpt>
      <trkpt lat="46.02401" lon="3.17798">
        <ele>505.921600342</ele>
        <time>2014-04-07T14:22:55.027Z</time>
      </trkpt>
      <trkpt lat="46.02396" lon="3.17806">
        <ele>505.517608643</ele>
        <time>2014-04-07T14:23:00.578Z</time>
      </trkpt>
      <trkpt lat="46.02395" lon="3.17808">
        <ele>505.37979126</ele>
        <time>2014-04-07T14:23:01.118Z</time>
      </trkpt>
      <trkpt lat="46.02389" lon="3.17816">
        <ele>504.842224121</ele>
        <time>2014-04-07T14:23:07.096Z</time>
      </trkpt>
      <trkpt lat="46.02388" lon="3.17818">
        <ele>504.764160156</ele>
        <time>2014-04-07T14:23:08.08Z</time>
      </trkpt>
      <trkpt lat="46.02382" lon="3.17828">
        <ele>504.232086182</ele>
        <time>2014-04-07T14:23:15.697Z</time>
      </trkpt>
      <trkpt lat="46.02382" lon="3.1783">
        <ele>504.245574951</ele>
        <time>2014-04-07T14:23:16.06Z</time>
      </trkpt>
      <trkpt lat="46.02375" lon="3.17839">
        <ele>504.372711182</ele>
        <time>2014-04-07T14:23:23.936Z</time>
      </trkpt>
      <trkpt lat="46.02375" lon="3.1784">
        <ele>504.400726318</ele>
        <time>2014-04-07T14:23:24.008Z</time>
      </trkpt>
      <trkpt lat="46.0237" lon="3.17851">
        <ele>504.012298584</ele>
        <time>2014-04-07T14:23:31.528Z</time>
      </trkpt>
      <trkpt lat="46.0237" lon="3.17852">
        <ele>503.952850342</ele>
        <time>2014-04-07T14:23:32.092Z</time>
      </trkpt>
      <trkpt lat="46.02366" lon="3.17863">
        <ele>503.493255615</ele>
        <time>2014-04-07T14:23:38.284Z</time>
      </trkpt>
      <trkpt lat="46.02365" lon="3.17865">
        <ele>503.463012695</ele>
        <time>2014-04-07T14:23:39.293Z</time>
      </trkpt>
      <trkpt lat="46.02359" lon="3.17873">
        <ele>503.369445801</ele>
        <time>2014-04-07T14:23:45.055Z</time>
      </trkpt>
      <trkpt lat="46.02357" lon="3.17876">
        <ele>503.422821045</ele>
        <time>2014-04-07T14:23:46.079Z</time>
      </trkpt>
      <trkpt lat="46.02352" lon="3.17884">
        <ele>503.369110107</ele>
        <time>2014-04-07T14:23:51.352Z</time>
      </trkpt>
      <trkpt lat="46.02351" lon="3.17886">
        <ele>503.23538208</ele>
        <time>2014-04-07T14:23:52.089Z</time>
      </trkpt>
      <trkpt lat="46.02346" lon="3.17894">
        <ele>502.794921875</ele>
        <time>2014-04-07T14:23:58.299Z</time>
      </trkpt>
      <trkpt lat="46.02345" lon="3.17896">
        <ele>502.786224365</ele>
        <time>2014-04-07T14:23:59.007Z</time>
      </trkpt>
      <trkpt lat="46.0234" lon="3.17906">
        <ele>502.544708252</ele>
        <time>2014-04-07T14:24:05.071Z</time>
      </trkpt>
      <trkpt lat="46.02339" lon="3.17908">
        <ele>502.45880127</ele>
        <time>2014-04-07T14:24:06.122Z</time>
      </trkpt>
      <trkpt lat="46.02334" lon="3.17918">
        <ele>501.340423584</ele>
        <time>2014-04-07T14:24:14.027Z</time>
      </trkpt>
      <trkpt lat="46.02334" lon="3.17919">
        <ele>501.212158203</ele>
        <time>2014-04-07T14:24:15.04Z</time>
      </trkpt>
      <trkpt lat="46.02328" lon="3.17928">
        <ele>500.464874268</ele>
        <time>2014-04-07T14:24:21.374Z</time>
      </trkpt>
      <trkpt lat="46.02327" lon="3.1793">
        <ele>500.35736084</ele>
        <time>2014-04-07T14:24:22.081Z</time>
      </trkpt>
      <trkpt lat="46.02321" lon="3.17938">
        <ele>499.44229126</ele>
        <time>2014-04-07T14:24:30.078Z</time>
      </trkpt>
      <trkpt lat="46.0232" lon="3.17938">
        <ele>499.346557617</ele>
        <time>2014-04-07T14:24:31.105Z</time>
      </trkpt>
      <trkpt lat="46.02314" lon="3.17947">
        <ele>498.110168457</ele>
        <time>2014-04-07T14:24:42.104Z</time>
      </trkpt>
      <trkpt lat="46.02313" lon="3.17948">
        <ele>497.881774902</ele>
        <time>2014-04-07T14:24:43.026Z</time>
      </trkpt>
      <trkpt lat="46.02309" lon="3.17958">
        <ele>494.021850586</ele>
        <time>2014-04-07T14:25:39.09Z</time>
      </trkpt>
      <trkpt lat="46.02308" lon="3.17959">
        <ele>493.845947266</ele>
        <time>2014-04-07T14:25:40.023Z</time>
      </trkpt>
      <trkpt lat="46.02301" lon="3.17965">
        <ele>493.243530273</ele>
        <time>2014-04-07T14:25:46.887Z</time>
      </trkpt>
      <trkpt lat="46.023" lon="3.17966">
        <ele>493.205230713</ele>
        <time>2014-04-07T14:25:47.019Z</time>
      </trkpt>
      <trkpt lat="46.02294" lon="3.17972">
        <ele>492.040557861</ele>
        <time>2014-04-07T14:26:10.043Z</time>
      </trkpt>
      <trkpt lat="46.02293" lon="3.17974">
        <ele>492.00100708</ele>
        <time>2014-04-07T14:26:11.028Z</time>
      </trkpt>
      <trkpt lat="46.02288" lon="3.17983">
        <ele>491.649627686</ele>
        <time>2014-04-07T14:26:17.083Z</time>
      </trkpt>
      <trkpt lat="46.02287" lon="3.17984">
        <ele>491.554168701</ele>
        <time>2014-04-07T14:26:17.99Z</time>
      </trkpt>
      <trkpt lat="46.02281" lon="3.17994">
        <ele>491.080841064</ele>
        <time>2014-04-07T14:26:25.173Z</time>
      </trkpt>
      <trkpt lat="46.02281" lon="3.17996">
        <ele>491.141021729</ele>
        <time>2014-04-07T14:26:26.079Z</time>
      </trkpt>
      <trkpt lat="46.02277" lon="3.18007">
        <ele>491.145751953</ele>
        <time>2014-04-07T14:26:34.144Z</time>
      </trkpt>
      <trkpt lat="46.02277" lon="3.18008">
        <ele>491.132629395</ele>
        <time>2014-04-07T14:26:35.012Z</time>
      </trkpt>
      <trkpt lat="46.02273" lon="3.18019">
        <ele>490.767608643</ele>
        <time>2014-04-07T14:26:43.508Z</time>
      </trkpt>
      <trkpt lat="46.02272" lon="3.18021">
        <ele>490.68572998</ele>
        <time>2014-04-07T14:26:44.117Z</time>
      </trkpt>
      <trkpt lat="46.02268" lon="3.18031">
        <ele>489.481109619</ele>
        <time>2014-04-07T14:26:53.146Z</time>
      </trkpt>
      <trkpt lat="46.02267" lon="3.18032">
        <ele>489.346252441</ele>
        <time>2014-04-07T14:26:54.023Z</time>
      </trkpt>
      <trkpt lat="46.02262" lon="3.18041">
        <ele>487.767700195</ele>
        <time>2014-04-07T14:27:02.483Z</time>
      </trkpt>
      <trkpt lat="46.02261" lon="3.18042">
        <ele>487.56427002</ele>
        <time>2014-04-07T14:27:03.049Z</time>
      </trkpt>
      <trkpt lat="46.02258" lon="3.18051">
        <ele>486.184783936</ele>
        <time>2014-04-07T14:27:09.062Z</time>
      </trkpt>
      <trkpt lat="46.02256" lon="3.18053">
        <ele>485.984008789</ele>
        <time>2014-04-07T14:27:10.15Z</time>
      </trkpt>
      <trkpt lat="46.02252" lon="3.18063">
        <ele>484.899475098</ele>
        <time>2014-04-07T14:27:17.202Z</time>
      </trkpt>
      <trkpt lat="46.02251" lon="3.18065">
        <ele>484.759185791</ele>
        <time>2014-04-07T14:27:18.172Z</time>
      </trkpt>
      <trkpt lat="46.02247" lon="3.18076">
        <ele>483.560638428</ele>
        <time>2014-04-07T14:27:25.017Z</time>
      </trkpt>
      <trkpt lat="46.02246" lon="3.18077">
        <ele>483.449127197</ele>
        <time>2014-04-07T14:27:26.097Z</time>
      </trkpt>
      <trkpt lat="46.02243" lon="3.18087">
        <ele>482.12991333</ele>
        <time>2014-04-07T14:27:34.122Z</time>
      </trkpt>
      <trkpt lat="46.02242" lon="3.18089">
        <ele>481.896484375</ele>
        <time>2014-04-07T14:27:35.198Z</time>
      </trkpt>
      <trkpt lat="46.02239" lon="3.181">
        <ele>480.79598999</ele>
        <time>2014-04-07T14:27:42.177Z</time>
      </trkpt>
      <trkpt lat="46.02239" lon="3.18102">
        <ele>480.703582764</ele>
        <time>2014-04-07T14:27:43.027Z</time>
      </trkpt>
      <trkpt lat="46.02238" lon="3.18114">
        <ele>478.852264404</ele>
        <time>2014-04-07T14:27:51.068Z</time>
      </trkpt>
      <trkpt lat="46.02238" lon="3.18116">
        <ele>478.54876709</ele>
        <time>2014-04-07T14:27:52.016Z</time>
      </trkpt>
      <trkpt lat="46.02238" lon="3.18127">
        <ele>476.169616699</ele>
        <time>2014-04-07T14:28:00.332Z</time>
      </trkpt>
      <trkpt lat="46.02238" lon="3.18129">
        <ele>475.835327148</ele>
        <time>2014-04-07T14:28:01.19Z</time>
      </trkpt>
      <trkpt lat="46.0224" lon="3.1814">
        <ele>474.069244385</ele>
        <time>2014-04-07T14:28:08.091Z</time>
      </trkpt>
      <trkpt lat="46.0224" lon="3.18142">
        <ele>473.915679932</ele>
        <time>2014-04-07T14:28:09.003Z</time>
      </trkpt>
      <trkpt lat="46.02244" lon="3.18153">
        <ele>472.891235352</ele>
        <time>2014-04-07T14:28:17.33Z</time>
      </trkpt>
      <trkpt lat="46.02245" lon="3.18154">
        <ele>472.742095947</ele>
        <time>2014-04-07T14:28:18.026Z</time>
      </trkpt>
      <trkpt lat="46.0225" lon="3.18163">
        <ele>471.646728516</ele>
        <time>2014-04-07T14:28:25.045Z</time>
      </trkpt>
      <trkpt lat="46.02251" lon="3.18164">
        <ele>471.498504639</ele>
        <time>2014-04-07T14:28:26.213Z</time>
      </trkpt>
      <trkpt lat="46.02256" lon="3.18174">
        <ele>470.40512085</ele>
        <time>2014-04-07T14:28:33.017Z</time>
      </trkpt>
      <trkpt lat="46.02256" lon="3.18176">
        <ele>470.225708008</ele>
        <time>2014-04-07T14:28:34.084Z</time>
      </trkpt>
      <trkpt lat="46.02261" lon="3.18185">
        <ele>469.410675049</ele>
        <time>2014-04-07T14:28:40.022Z</time>
      </trkpt>
      <trkpt lat="46.02263" lon="3.18186">
        <ele>469.354675293</ele>
        <time>2014-04-07T14:28:41.1Z</time>
      </trkpt>
      <trkpt lat="46.02269" lon="3.18191">
        <ele>468.813964844</ele>
        <time>2014-04-07T14:28:47.223Z</time>
      </trkpt>
      <trkpt lat="46.02271" lon="3.18193">
        <ele>468.622894287</ele>
        <time>2014-04-07T14:28:48.168Z</time>
      </trkpt>
      <trkpt lat="46.02277" lon="3.18201">
        <ele>467.575714111</ele>
        <time>2014-04-07T14:28:54.055Z</time>
      </trkpt>
      <trkpt lat="46.02278" lon="3.18202">
        <ele>467.490570068</ele>
        <time>2014-04-07T14:28:55.238Z</time>
      </trkpt>
      <trkpt lat="46.02284" lon="3.18209">
        <ele>467.018066406</ele>
        <time>2014-04-07T14:29:01.105Z</time>
      </trkpt>
      <trkpt lat="46.02285" lon="3.18211">
        <ele>466.888336182</ele>
        <time>2014-04-07T14:29:02.147Z</time>
      </trkpt>
      <trkpt lat="46.02289" lon="3.18222">
        <ele>465.9453125</ele>
        <time>2014-04-07T14:29:08.084Z</time>
      </trkpt>
      <trkpt lat="46.02289" lon="3.18224">
        <ele>465.738037109</ele>
        <time>2014-04-07T14:29:09.129Z</time>
      </trkpt>
      <trkpt lat="46.02289" lon="3.18236">
        <ele>463.818084717</ele>
        <time>2014-04-07T14:29:19.054Z</time>
      </trkpt>
      <trkpt lat="46.02289" lon="3.18238">
        <ele>463.657745361</ele>
        <time>2014-04-07T14:29:20.155Z</time>
      </trkpt>
      <trkpt lat="46.02288" lon="3.1825">
        <ele>462.899414062</ele>
        <time>2014-04-07T14:29:26.732Z</time>
      </trkpt>
      <trkpt lat="46.02288" lon="3.18252">
        <ele>462.831512451</ele>
        <time>2014-04-07T14:29:27.027Z</time>
      </trkpt>
      <trkpt lat="46.02283" lon="3.18263">
        <ele>459.789733887</ele>
        <time>2014-04-07T14:29:48.085Z</time>
      </trkpt>
      <trkpt lat="46.02283" lon="3.18264">
        <ele>459.338592529</ele>
        <time>2014-04-07T14:29:49.066Z</time>
      </trkpt>
      <trkpt lat="46.02283" lon="3.18275">
        <ele>456.470123291</ele>
        <time>2014-04-07T14:29:57.314Z</time>
      </trkpt>
      <trkpt lat="46.02283" lon="3.18277">
        <ele>456.126861572</ele>
        <time>2014-04-07T14:29:58.12Z</time>
      </trkpt>
      <trkpt lat="46.02282" lon="3.18288">
        <ele>454.534942627</ele>
        <time>2014-04-07T14:30:04.135Z</time>
      </trkpt>
      <trkpt lat="46.02281" lon="3.18291">
        <ele>454.380187988</ele>
        <time>2014-04-07T14:30:05.087Z</time>
      </trkpt>
      <trkpt lat="46.02283" lon="3.18303">
        <ele>453.229797363</ele>
        <time>2014-04-07T14:30:12.287Z</time>
      </trkpt>
      <trkpt lat="46.02283" lon="3.18304">
        <ele>453.032440186</ele>
        <time>2014-04-07T14:30:13.156Z</time>
      </trkpt>
      <trkpt lat="46.02282" lon="3.18315">
        <ele>452.104766846</ele>
        <time>2014-04-07T14:30:34.265Z</time>
      </trkpt>
      <trkpt lat="46.02282" lon="3.18317">
        <ele>451.998413086</ele>
        <time>2014-04-07T14:30:35.018Z</time>
      </trkpt>
      <trkpt lat="46.02282" lon="3.18328">
        <ele>451.146484375</ele>
        <time>2014-04-07T14:30:41.907Z</time>
      </trkpt>
      <trkpt lat="46.02282" lon="3.1833">
        <ele>450.978149414</ele>
        <time>2014-04-07T14:30:42.006Z</time>
      </trkpt>
      <trkpt lat="46.02281" lon="3.18342">
        <ele>449.877319336</ele>
        <time>2014-04-07T14:30:48.108Z</time>
      </trkpt>
      <trkpt lat="46.02281" lon="3.18343">
        <ele>449.643707275</ele>
        <time>2014-04-07T14:30:49.154Z</time>
      </trkpt>
      <trkpt lat="46.02279" lon="3.18356">
        <ele>448.199188232</ele>
        <time>2014-04-07T14:30:57.037Z</time>
      </trkpt>
      <trkpt lat="46.02279" lon="3.18359">
        <ele>448.083404541</ele>
        <time>2014-04-07T14:30:57.597Z</time>
      </trkpt>
      <trkpt lat="46.02277" lon="3.18371">
        <ele>447.348968506</ele>
        <time>2014-04-07T14:31:04.054Z</time>
      </trkpt>
      <trkpt lat="46.02277" lon="3.18372">
        <ele>447.228271484</ele>
        <time>2014-04-07T14:31:05.32Z</time>
      </trkpt>
      <trkpt lat="46.02276" lon="3.18383">
        <ele>446.588867188</ele>
        <time>2014-04-07T14:31:10.13Z</time>
      </trkpt>
      <trkpt lat="46.02275" lon="3.18385">
        <ele>446.474975586</ele>
        <time>2014-04-07T14:31:11.06Z</time>
      </trkpt>
      <trkpt lat="46.02274" lon="3.18397">
        <ele>445.676300049</ele>
        <time>2014-04-07T14:31:18.136Z</time>
      </trkpt>
      <trkpt lat="46.02274" lon="3.18398">
        <ele>445.578735352</ele>
        <time>2014-04-07T14:31:19.014Z</time>
      </trkpt>
      <trkpt lat="46.02272" lon="3.18409">
        <ele>444.87902832</ele>
        <time>2014-04-07T14:31:25.2Z</time>
      </trkpt>
      <trkpt lat="46.02272" lon="3.18411">
        <ele>444.657318115</ele>
        <time>2014-04-07T14:31:26.052Z</time>
      </trkpt>
      <trkpt lat="46.02271" lon="3.18422">
        <ele>443.435455322</ele>
        <time>2014-04-07T14:31:32.029Z</time>
      </trkpt>
      <trkpt lat="46.0227" lon="3.18424">
        <ele>443.273254395</ele>
        <time>2014-04-07T14:31:33.147Z</time>
      </trkpt>
      <trkpt lat="46.02269" lon="3.18436">
        <ele>442.408508301</ele>
        <time>2014-04-07T14:31:38.12Z</time>
      </trkpt>
      <trkpt lat="46.02269" lon="3.18437">
        <ele>442.245849609</ele>
        <time>2014-04-07T14:31:39.172Z</time>
      </trkpt>
      <trkpt lat="46.02266" lon="3.18449">
        <ele>440.943817139</ele>
        <time>2014-04-07T14:31:47.084Z</time>
      </trkpt>
      <trkpt lat="46.02266" lon="3.18451">
        <ele>440.815887451</ele>
        <time>2014-04-07T14:31:47.209Z</time>
      </trkpt>
      <trkpt lat="46.02263" lon="3.18462">
        <ele>439.840667725</ele>
        <time>2014-04-07T14:31:53.2Z</time>
      </trkpt>
      <trkpt lat="46.02262" lon="3.18465">
        <ele>439.589874268</ele>
        <time>2014-04-07T14:31:54.015Z</time>
      </trkpt>
      <trkpt lat="46.02262" lon="3.18477">
        <ele>438.501312256</ele>
        <time>2014-04-07T14:32:01.043Z</time>
      </trkpt>
      <trkpt lat="46.02262" lon="3.18479">
        <ele>438.220123291</ele>
        <time>2014-04-07T14:32:02.082Z</time>
      </trkpt>
      <trkpt lat="46.02261" lon="3.1849">
        <ele>436.495452881</ele>
        <time>2014-04-07T14:32:08.147Z</time>
      </trkpt>
      <trkpt lat="46.02261" lon="3.18492">
        <ele>436.226776123</ele>
        <time>2014-04-07T14:32:09.058Z</time>
      </trkpt>
      <trkpt lat="46.02259" lon="3.18503">
        <ele>434.664611816</ele>
        <time>2014-04-07T14:32:14.311Z</time>
      </trkpt>
      <trkpt lat="46.02258" lon="3.18505">
        <ele>434.351745605</ele>
        <time>2014-04-07T14:32:15.051Z</time>
      </trkpt>
      <trkpt lat="46.02257" lon="3.18518">
        <ele>432.744750977</ele>
        <time>2014-04-07T14:32:23.043Z</time>
      </trkpt>
      <trkpt lat="46.02257" lon="3.1852">
        <ele>432.585784912</ele>
        <time>2014-04-07T14:32:24.055Z</time>
      </trkpt>
      <trkpt lat="46.02256" lon="3.18531">
        <ele>432.124847412</ele>
        <time>2014-04-07T14:32:28.414Z</time>
      </trkpt>
      <trkpt lat="46.02256" lon="3.18533">
        <ele>431.93927002</ele>
        <time>2014-04-07T14:32:29.062Z</time>
      </trkpt>
      <trkpt lat="46.02254" lon="3.18545">
        <ele>430.838165283</ele>
        <time>2014-04-07T14:32:35.145Z</time>
      </trkpt>
      <trkpt lat="46.02254" lon="3.18547">
        <ele>430.699401855</ele>
        <time>2014-04-07T14:32:36.06Z</time>
      </trkpt>
      <trkpt lat="46.02253" lon="3.18559">
        <ele>429.717254639</ele>
        <time>2014-04-07T14:32:42.065Z</time>
      </trkpt>
      <trkpt lat="46.02252" lon="3.18561">
        <ele>429.597198486</ele>
        <time>2014-04-07T14:32:43.06Z</time>
      </trkpt>
      <trkpt lat="46.02252" lon="3.18573">
        <ele>428.267578125</ele>
        <time>2014-04-07T14:32:50.147Z</time>
      </trkpt>
      <trkpt lat="46.02252" lon="3.18574">
        <ele>428.124694824</ele>
        <time>2014-04-07T14:32:51.046Z</time>
      </trkpt>
      <trkpt lat="46.0225" lon="3.18586">
        <ele>426.908569336</ele>
        <time>2014-04-07T14:32:58.143Z</time>
      </trkpt>
      <trkpt lat="46.02249" lon="3.18587">
        <ele>426.695281982</ele>
        <time>2014-04-07T14:32:59.133Z</time>
      </trkpt>
      <trkpt lat="46.02242" lon="3.18595">
        <ele>425.163024902</ele>
        <time>2014-04-07T14:33:07.352Z</time>
      </trkpt>
      <trkpt lat="46.02241" lon="3.18596">
        <ele>424.916320801</ele>
        <time>2014-04-07T14:33:08.052Z</time>
      </trkpt>
      <trkpt lat="46.02236" lon="3.18604">
        <ele>422.009735107</ele>
        <time>2014-04-07T14:33:34.117Z</time>
      </trkpt>
      <trkpt lat="46.02235" lon="3.18605">
        <ele>421.82208252</ele>
        <time>2014-04-07T14:33:35.013Z</time>
      </trkpt>
      <trkpt lat="46.02227" lon="3.18612">
        <ele>420.581298828</ele>
        <time>2014-04-07T14:33:42.168Z</time>
      </trkpt>
      <trkpt lat="46.02224" lon="3.18613">
        <ele>420.198425293</ele>
        <time>2014-04-07T14:33:42.994Z</time>
      </trkpt>
      <trkpt lat="46.02218" lon="3.18621">
        <ele>418.463409424</ele>
        <time>2014-04-07T14:33:51.227Z</time>
      </trkpt>
      <trkpt lat="46.02218" lon="3.18623">
        <ele>418.296142578</ele>
        <time>2014-04-07T14:33:52.071Z</time>
      </trkpt>
      <trkpt lat="46.02217" lon="3.18635">
        <ele>417.379699707</ele>
        <time>2014-04-07T14:33:58.797Z</time>
      </trkpt>
      <trkpt lat="46.02217" lon="3.18637">
        <ele>417.26171875</ele>
        <time>2014-04-07T14:33:59.204Z</time>
      </trkpt>
      <trkpt lat="46.02216" lon="3.18649">
        <ele>416.444122314</ele>
        <time>2014-04-07T14:34:06.274Z</time>
      </trkpt>
      <trkpt lat="46.02216" lon="3.18651">
        <ele>416.286987305</ele>
        <time>2014-04-07T14:34:07.047Z</time>
      </trkpt>
      <trkpt lat="46.02216" lon="3.18663">
        <ele>415.457122803</ele>
        <time>2014-04-07T14:34:13.018Z</time>
      </trkpt>
      <trkpt lat="46.02216" lon="3.18664">
        <ele>415.364898682</ele>
        <time>2014-04-07T14:34:14.072Z</time>
      </trkpt>
      <trkpt lat="46.02214" lon="3.18677">
        <ele>414.64251709</ele>
        <time>2014-04-07T14:34:20.299Z</time>
      </trkpt>
      <trkpt lat="46.02214" lon="3.18679">
        <ele>414.499084473</ele>
        <time>2014-04-07T14:34:21.245Z</time>
      </trkpt>
      <trkpt lat="46.02213" lon="3.18691">
        <ele>413.593933105</ele>
        <time>2014-04-07T14:34:28.057Z</time>
      </trkpt>
      <trkpt lat="46.02213" lon="3.18693">
        <ele>413.480712891</ele>
        <time>2014-04-07T14:34:29.088Z</time>
      </trkpt>
      <trkpt lat="46.02212" lon="3.18705">
        <ele>413.050933838</ele>
        <time>2014-04-07T14:34:35.724Z</time>
      </trkpt>
      <trkpt lat="46.02212" lon="3.18707">
        <ele>412.942901611</ele>
        <time>2014-04-07T14:34:36.149Z</time>
      </trkpt>
      <trkpt lat="46.0221" lon="3.18719">
        <ele>412.193237305</ele>
        <time>2014-04-07T14:34:42.358Z</time>
      </trkpt>
      <trkpt lat="46.02209" lon="3.18721">
        <ele>412.051422119</ele>
        <time>2014-04-07T14:34:43.106Z</time>
      </trkpt>
      <trkpt lat="46.02207" lon="3.18733">
        <ele>411.346130371</ele>
        <time>2014-04-07T14:34:49.594Z</time>
      </trkpt>
      <trkpt lat="46.02206" lon="3.18735">
        <ele>411.171142578</ele>
        <time>2014-04-07T14:34:50.007Z</time>
      </trkpt>
      <trkpt lat="46.02205" lon="3.18748">
        <ele>410.35269165</ele>
        <time>2014-04-07T14:34:56.184Z</time>
      </trkpt>
      <trkpt lat="46.02205" lon="3.18749">
        <ele>410.255950928</ele>
        <time>2014-04-07T14:34:57.069Z</time>
      </trkpt>
      <trkpt lat="46.02203" lon="3.18762">
        <ele>409.681030273</ele>
        <time>2014-04-07T14:35:03.445Z</time>
      </trkpt>
      <trkpt lat="46.02203" lon="3.18765">
        <ele>409.609893799</ele>
        <time>2014-04-07T14:35:04.054Z</time>
      </trkpt>
      <trkpt lat="46.02201" lon="3.18775">
        <ele>409.279205322</ele>
        <time>2014-04-07T14:35:10.168Z</time>
      </trkpt>
      <trkpt lat="46.02201" lon="3.18778">
        <ele>409.136016846</ele>
        <time>2014-04-07T14:35:11.154Z</time>
      </trkpt>
      <trkpt lat="46.02201" lon="3.1879">
        <ele>408.330230713</ele>
        <time>2014-04-07T14:35:18.127Z</time>
      </trkpt>
      <trkpt lat="46.02201" lon="3.18792">
        <ele>408.211303711</ele>
        <time>2014-04-07T14:35:18.132Z</time>
      </trkpt>
      <trkpt lat="46.02199" lon="3.18803">
        <ele>407.419372559</ele>
        <time>2014-04-07T14:35:23.227Z</time>
      </trkpt>
      <trkpt lat="46.02199" lon="3.18804">
        <ele>407.297241211</ele>
        <time>2014-04-07T14:35:24.075Z</time>
      </trkpt>
      <trkpt lat="46.02199" lon="3.18815">
        <ele>407.011688232</ele>
        <time>2014-04-07T14:35:31.908Z</time>
      </trkpt>
      <trkpt lat="46.02199" lon="3.18818">
        <ele>406.955688477</ele>
        <time>2014-04-07T14:35:32.111Z</time>
      </trkpt>
      <trkpt lat="46.02198" lon="3.18828">
        <ele>406.486846924</ele>
        <time>2014-04-07T14:35:37.202Z</time>
      </trkpt>
      <trkpt lat="46.02198" lon="3.18831">
        <ele>406.363616943</ele>
        <time>2014-04-07T14:35:38.218Z</time>
      </trkpt>
      <trkpt lat="46.02197" lon="3.18842">
        <ele>405.748321533</ele>
        <time>2014-04-07T14:35:43.038Z</time>
      </trkpt>
      <trkpt lat="46.02196" lon="3.18844">
        <ele>405.586975098</ele>
        <time>2014-04-07T14:35:44.065Z</time>
      </trkpt>
      <trkpt lat="46.02195" lon="3.18855">
        <ele>405.066772461</ele>
        <time>2014-04-07T14:35:49.107Z</time>
      </trkpt>
      <trkpt lat="46.02194" lon="3.18857">
        <ele>405.080383301</ele>
        <time>2014-04-07T14:35:50.073Z</time>
      </trkpt>
      <trkpt lat="46.02193" lon="3.18869">
        <ele>405.200714111</ele>
        <time>2014-04-07T14:35:55.091Z</time>
      </trkpt>
      <trkpt lat="46.02193" lon="3.18871">
        <ele>405.184783936</ele>
        <time>2014-04-07T14:35:56.119Z</time>
      </trkpt>
      <trkpt lat="46.02193" lon="3.18883">
        <ele>404.9453125</ele>
        <time>2014-04-07T14:36:02.272Z</time>
      </trkpt>
      <trkpt lat="46.02192" lon="3.18889">
        <ele>404.854949951</ele>
        <time>2014-04-07T14:36:03.067Z</time>
      </trkpt>
      <trkpt lat="46.02192" lon="3.189">
        <ele>404.721313477</ele>
        <time>2014-04-07T14:36:08.102Z</time>
      </trkpt>
      <trkpt lat="46.02192" lon="3.18902">
        <ele>404.618347168</ele>
        <time>2014-04-07T14:36:09.08Z</time>
      </trkpt>
      <trkpt lat="46.02191" lon="3.18914">
        <ele>403.862304688</ele>
        <time>2014-04-07T14:36:15.208Z</time>
      </trkpt>
      <trkpt lat="46.02191" lon="3.18916">
        <ele>403.743896484</ele>
        <time>2014-04-07T14:36:16.076Z</time>
      </trkpt>
      <trkpt lat="46.02191" lon="3.18928">
        <ele>403.213684082</ele>
        <time>2014-04-07T14:36:22.253Z</time>
      </trkpt>
      <trkpt lat="46.02192" lon="3.1893">
        <ele>403.142974854</ele>
        <time>2014-04-07T14:36:23.067Z</time>
      </trkpt>
      <trkpt lat="46.02194" lon="3.18942">
        <ele>402.868255615</ele>
        <time>2014-04-07T14:36:30.099Z</time>
      </trkpt>
      <trkpt lat="46.02195" lon="3.18943">
        <ele>402.865020752</ele>
        <time>2014-04-07T14:36:31.107Z</time>
      </trkpt>
      <trkpt lat="46.02203" lon="3.18938">
        <ele>403.175476074</ele>
        <time>2014-04-07T14:36:41.803Z</time>
      </trkpt>
      <trkpt lat="46.02204" lon="3.18938">
        <ele>403.251678467</ele>
        <time>2014-04-07T14:36:41.993Z</time>
      </trkpt>
      <trkpt lat="46.02212" lon="3.18937">
        <ele>403.803619385</ele>
        <time>2014-04-07T14:36:46.833Z</time>
      </trkpt>
      <trkpt lat="46.02213" lon="3.18937">
        <ele>403.89352417</ele>
        <time>2014-04-07T14:36:47.141Z</time>
      </trkpt>
      <trkpt lat="46.02222" lon="3.18934">
        <ele>404.291900635</ele>
        <time>2014-04-07T14:36:53.274Z</time>
      </trkpt>
      <trkpt lat="46.02224" lon="3.18933">
        <ele>404.400848389</ele>
        <time>2014-04-07T14:36:54.091Z</time>
      </trkpt>
      <trkpt lat="46.02232" lon="3.18929">
        <ele>405.137329102</ele>
        <time>2014-04-07T14:37:00.349Z</time>
      </trkpt>
      <trkpt lat="46.02233" lon="3.18928">
        <ele>405.208709717</ele>
        <time>2014-04-07T14:37:01.26Z</time>
      </trkpt>
      <trkpt lat="46.02241" lon="3.18925">
        <ele>405.522949219</ele>
        <time>2014-04-07T14:37:07.049Z</time>
      </trkpt>
      <trkpt lat="46.02243" lon="3.18925">
        <ele>405.597930908</ele>
        <time>2014-04-07T14:37:08.226Z</time>
      </trkpt>
      <trkpt lat="46.0225" lon="3.18923">
        <ele>405.65045166</ele>
        <time>2014-04-07T14:37:13.149Z</time>
      </trkpt>
      <trkpt lat="46.02252" lon="3.18922">
        <ele>405.553833008</ele>
        <time>2014-04-07T14:37:14.002Z</time>
      </trkpt>
      <trkpt lat="46.02259" lon="3.18917">
        <ele>405.416381836</ele>
        <time>2014-04-07T14:37:19.113Z</time>
      </trkpt>
      <trkpt lat="46.0226" lon="3.18916">
        <ele>405.393127441</ele>
        <time>2014-04-07T14:37:20.513Z</time>
      </trkpt>
      <trkpt lat="46.02268" lon="3.18911">
        <ele>405.444335938</ele>
        <time>2014-04-07T14:37:25.19Z</time>
      </trkpt>
      <trkpt lat="46.02269" lon="3.18911">
        <ele>405.40145874</ele>
        <time>2014-04-07T14:37:26.121Z</time>
      </trkpt>
      <trkpt lat="46.02278" lon="3.18909">
        <ele>405.373138428</ele>
        <time>2014-04-07T14:37:32.114Z</time>
      </trkpt>
      <trkpt lat="46.02278" lon="3.18909">
        <ele>405.345672607</ele>
        <time>2014-04-07T14:37:33.062Z</time>
      </trkpt>
      <trkpt lat="46.02286" lon="3.18905">
        <ele>405.428771973</ele>
        <time>2014-04-07T14:37:39.06Z</time>
      </trkpt>
      <trkpt lat="46.02288" lon="3.18904">
        <ele>405.378112793</ele>
        <time>2014-04-07T14:37:40.078Z</time>
      </trkpt>
      <trkpt lat="46.02296" lon="3.18901">
        <ele>404.85647583</ele>
        <time>2014-04-07T14:37:47.002Z</time>
      </trkpt>
      <trkpt lat="46.02297" lon="3.18901">
        <ele>404.776611328</ele>
        <time>2014-04-07T14:37:48.067Z</time>
      </trkpt>
      <trkpt lat="46.02305" lon="3.18899">
        <ele>404.627593994</ele>
        <time>2014-04-07T14:37:53.168Z</time>
      </trkpt>
      <trkpt lat="46.02306" lon="3.18898">
        <ele>404.545623779</ele>
        <time>2014-04-07T14:37:54.018Z</time>
      </trkpt>
      <trkpt lat="46.02314" lon="3.18895">
        <ele>404.880126953</ele>
        <time>2014-04-07T14:38:00.404Z</time>
      </trkpt>
      <trkpt lat="46.02315" lon="3.18895">
        <ele>404.926300049</ele>
        <time>2014-04-07T14:38:00.989Z</time>
      </trkpt>
      <trkpt lat="46.02322" lon="3.18891">
        <ele>405.15826416</ele>
        <time>2014-04-07T14:38:06.221Z</time>
      </trkpt>
      <trkpt lat="46.02324" lon="3.1889">
        <ele>405.283691406</ele>
        <time>2014-04-07T14:38:07.063Z</time>
      </trkpt>
      <trkpt lat="46.02331" lon="3.18887">
        <ele>405.461151123</ele>
        <time>2014-04-07T14:38:12.447Z</time>
      </trkpt>
      <trkpt lat="46.02333" lon="3.18886">
        <ele>405.486663818</ele>
        <time>2014-04-07T14:38:12.999Z</time>
      </trkpt>
      <trkpt lat="46.02341" lon="3.18882">
        <ele>405.639343262</ele>
        <time>2014-04-07T14:38:19.297Z</time>
      </trkpt>
      <trkpt lat="46.02342" lon="3.18882">
        <ele>405.681671143</ele>
        <time>2014-04-07T14:38:20.349Z</time>
      </trkpt>
      <trkpt lat="46.0235" lon="3.18879">
        <ele>405.559265137</ele>
        <time>2014-04-07T14:38:25.017Z</time>
      </trkpt>
      <trkpt lat="46.02351" lon="3.18878">
        <ele>405.477478027</ele>
        <time>2014-04-07T14:38:26.067Z</time>
      </trkpt>
      <trkpt lat="46.0236" lon="3.18876">
        <ele>405.384429932</ele>
        <time>2014-04-07T14:38:32.424Z</time>
      </trkpt>
      <trkpt lat="46.02361" lon="3.18876">
        <ele>405.387756348</ele>
        <time>2014-04-07T14:38:33.059Z</time>
      </trkpt>
      <trkpt lat="46.0237" lon="3.18874">
        <ele>405.716430664</ele>
        <time>2014-04-07T14:38:39.047Z</time>
      </trkpt>
      <trkpt lat="46.02372" lon="3.18874">
        <ele>405.769958496</ele>
        <time>2014-04-07T14:38:40.012Z</time>
      </trkpt>
      <trkpt lat="46.0238" lon="3.18875">
        <ele>405.838378906</ele>
        <time>2014-04-07T14:38:46.094Z</time>
      </trkpt>
      <trkpt lat="46.02382" lon="3.18875">
        <ele>405.902648926</ele>
        <time>2014-04-07T14:38:47.223Z</time>
      </trkpt>
      <trkpt lat="46.0239" lon="3.18876">
        <ele>406.141296387</ele>
        <time>2014-04-07T14:38:52.139Z</time>
      </trkpt>
      <trkpt lat="46.02392" lon="3.18877">
        <ele>406.142456055</ele>
        <time>2014-04-07T14:38:53.13Z</time>
      </trkpt>
      <trkpt lat="46.024" lon="3.1888">
        <ele>405.945159912</ele>
        <time>2014-04-07T14:38:59.106Z</time>
      </trkpt>
      <trkpt lat="46.02402" lon="3.18881">
        <ele>405.883087158</ele>
        <time>2014-04-07T14:39:00.203Z</time>
      </trkpt>
      <trkpt lat="46.02409" lon="3.18885">
        <ele>405.736114502</ele>
        <time>2014-04-07T14:39:06.268Z</time>
      </trkpt>
      <trkpt lat="46.02411" lon="3.18886">
        <ele>405.746459961</ele>
        <time>2014-04-07T14:39:07.075Z</time>
      </trkpt>
      <trkpt lat="46.02418" lon="3.1889">
        <ele>405.705352783</ele>
        <time>2014-04-07T14:39:12.633Z</time>
      </trkpt>
      <trkpt lat="46.0242" lon="3.18891">
        <ele>405.67401123</ele>
        <time>2014-04-07T14:39:13.088Z</time>
      </trkpt>
      <trkpt lat="46.02427" lon="3.18897">
        <ele>406.029968262</ele>
        <time>2014-04-07T14:39:19.125Z</time>
      </trkpt>
      <trkpt lat="46.02428" lon="3.18897">
        <ele>406.137695312</ele>
        <time>2014-04-07T14:39:20.114Z</time>
      </trkpt>
      <trkpt lat="46.02436" lon="3.18903">
        <ele>406.759613037</ele>
        <time>2014-04-07T14:39:25.142Z</time>
      </trkpt>
      <trkpt lat="46.02437" lon="3.18904">
        <ele>406.827728271</ele>
        <time>2014-04-07T14:39:26.066Z</time>
      </trkpt>
      <trkpt lat="46.02443" lon="3.1891">
        <ele>407.073608398</ele>
        <time>2014-04-07T14:39:32.267Z</time>
      </trkpt>
      <trkpt lat="46.02445" lon="3.18912">
        <ele>407.198913574</ele>
        <time>2014-04-07T14:39:33.071Z</time>
      </trkpt>
      <trkpt lat="46.02451" lon="3.1892">
        <ele>407.26574707</ele>
        <time>2014-04-07T14:39:39.122Z</time>
      </trkpt>
      <trkpt lat="46.02452" lon="3.18922">
        <ele>407.238952637</ele>
        <time>2014-04-07T14:39:40.052Z</time>
      </trkpt>
      <trkpt lat="46.02458" lon="3.18929">
        <ele>407.510894775</ele>
        <time>2014-04-07T14:39:45.264Z</time>
      </trkpt>
      <trkpt lat="46.02459" lon="3.1893">
        <ele>407.587585449</ele>
        <time>2014-04-07T14:39:46.084Z</time>
      </trkpt>
      <trkpt lat="46.02466" lon="3.18938">
        <ele>408.102996826</ele>
        <time>2014-04-07T14:39:52.255Z</time>
      </trkpt>
      <trkpt lat="46.02467" lon="3.1894">
        <ele>408.252105713</ele>
        <time>2014-04-07T14:39:53.086Z</time>
      </trkpt>
      <trkpt lat="46.02475" lon="3.18946">
        <ele>408.877593994</ele>
        <time>2014-04-07T14:39:58.705Z</time>
      </trkpt>
      <trkpt lat="46.02476" lon="3.18947">
        <ele>408.987701416</ele>
        <time>2014-04-07T14:39:59.033Z</time>
      </trkpt>
      <trkpt lat="46.02482" lon="3.18954">
        <ele>409.394470215</ele>
        <time>2014-04-07T14:40:04.264Z</time>
      </trkpt>
      <trkpt lat="46.02483" lon="3.18955">
        <ele>409.432983398</ele>
        <time>2014-04-07T14:40:05.057Z</time>
      </trkpt>
      <trkpt lat="46.02489" lon="3.18963">
        <ele>409.802093506</ele>
        <time>2014-04-07T14:40:10.012Z</time>
      </trkpt>
      <trkpt lat="46.0249" lon="3.18964">
        <ele>409.888244629</ele>
        <time>2014-04-07T14:40:11.159Z</time>
      </trkpt>
      <trkpt lat="46.02496" lon="3.18971">
        <ele>410.064941406</ele>
        <time>2014-04-07T14:40:16.193Z</time>
      </trkpt>
      <trkpt lat="46.02497" lon="3.18972">
        <ele>410.147857666</ele>
        <time>2014-04-07T14:40:17.042Z</time>
      </trkpt>
      <trkpt lat="46.02504" lon="3.18979">
        <ele>410.802032471</ele>
        <time>2014-04-07T14:40:23.447Z</time>
      </trkpt>
      <trkpt lat="46.02506" lon="3.1898">
        <ele>410.972106934</ele>
        <time>2014-04-07T14:40:24.105Z</time>
      </trkpt>
      <trkpt lat="46.02512" lon="3.18986">
        <ele>411.483978271</ele>
        <time>2014-04-07T14:40:29.102Z</time>
      </trkpt>
      <trkpt lat="46.02513" lon="3.18987">
        <ele>411.549560547</ele>
        <time>2014-04-07T14:40:30.017Z</time>
      </trkpt>
      <trkpt lat="46.0252" lon="3.18995">
        <ele>411.731872559</ele>
        <time>2014-04-07T14:40:36.812Z</time>
      </trkpt>
      <trkpt lat="46.02521" lon="3.18995">
        <ele>411.729309082</ele>
        <time>2014-04-07T14:40:37.071Z</time>
      </trkpt>
      <trkpt lat="46.02527" lon="3.19001">
        <ele>411.652770996</ele>
        <time>2014-04-07T14:40:42.333Z</time>
      </trkpt>
      <trkpt lat="46.02528" lon="3.19003">
        <ele>411.712921143</ele>
        <time>2014-04-07T14:40:43.07Z</time>
      </trkpt>
      <trkpt lat="46.02534" lon="3.19011">
        <ele>412.032440186</ele>
        <time>2014-04-07T14:40:50.124Z</time>
      </trkpt>
      <trkpt lat="46.02535" lon="3.19013">
        <ele>412.05178833</ele>
        <time>2014-04-07T14:40:51.122Z</time>
      </trkpt>
      <trkpt lat="46.02542" lon="3.19019">
        <ele>411.932617188</ele>
        <time>2014-04-07T14:40:57.411Z</time>
      </trkpt>
      <trkpt lat="46.02543" lon="3.1902">
        <ele>411.809661865</ele>
        <time>2014-04-07T14:40:57.994Z</time>
      </trkpt>
      <trkpt lat="46.0255" lon="3.19026">
        <ele>412.134002686</ele>
        <time>2014-04-07T14:41:04.201Z</time>
      </trkpt>
      <trkpt lat="46.02552" lon="3.19028">
        <ele>412.180725098</ele>
        <time>2014-04-07T14:41:05.313Z</time>
      </trkpt>
      <trkpt lat="46.02559" lon="3.19034">
        <ele>412.222503662</ele>
        <time>2014-04-07T14:41:11.098Z</time>
      </trkpt>
      <trkpt lat="46.0256" lon="3.19036">
        <ele>412.16583252</ele>
        <time>2014-04-07T14:41:12.12Z</time>
      </trkpt>
      <trkpt lat="46.02566" lon="3.19043">
        <ele>411.861755371</ele>
        <time>2014-04-07T14:41:18.039Z</time>
      </trkpt>
      <trkpt lat="46.02567" lon="3.19044">
        <ele>411.86328125</ele>
        <time>2014-04-07T14:41:18.915Z</time>
      </trkpt>
      <trkpt lat="46.02575" lon="3.19049">
        <ele>411.649536133</ele>
        <time>2014-04-07T14:41:24.775Z</time>
      </trkpt>
      <trkpt lat="46.02577" lon="3.19051">
        <ele>411.614929199</ele>
        <time>2014-04-07T14:41:24.991Z</time>
      </trkpt>
      <trkpt lat="46.02584" lon="3.19059">
        <ele>411.09854126</ele>
        <time>2014-04-07T14:41:32.067Z</time>
      </trkpt>
      <trkpt lat="46.02584" lon="3.1906">
        <ele>410.896820068</ele>
        <time>2014-04-07T14:41:33.003Z</time>
      </trkpt>
      <trkpt lat="46.0259" lon="3.1907">
        <ele>409.734405518</ele>
        <time>2014-04-07T14:41:39.115Z</time>
      </trkpt>
      <trkpt lat="46.02591" lon="3.19071">
        <ele>409.591705322</ele>
        <time>2014-04-07T14:41:40.088Z</time>
      </trkpt>
      <trkpt lat="46.02597" lon="3.19079">
        <ele>408.283355713</ele>
        <time>2014-04-07T14:41:46.834Z</time>
      </trkpt>
      <trkpt lat="46.02598" lon="3.19081">
        <ele>408.135681152</ele>
        <time>2014-04-07T14:41:47.335Z</time>
      </trkpt>
      <trkpt lat="46.02603" lon="3.1909">
        <ele>407.227539062</ele>
        <time>2014-04-07T14:41:53.579Z</time>
      </trkpt>
      <trkpt lat="46.02604" lon="3.19091">
        <ele>407.083679199</ele>
        <time>2014-04-07T14:41:54.254Z</time>
      </trkpt>
      <trkpt lat="46.0261" lon="3.19099">
        <ele>406.347442627</ele>
        <time>2014-04-07T14:41:59.135Z</time>
      </trkpt>
      <trkpt lat="46.02611" lon="3.19101">
        <ele>406.159973145</ele>
        <time>2014-04-07T14:41:59.999Z</time>
      </trkpt>
      <trkpt lat="46.02616" lon="3.19111">
        <ele>405.591156006</ele>
        <time>2014-04-07T14:42:06.206Z</time>
      </trkpt>
      <trkpt lat="46.02617" lon="3.19113">
        <ele>405.509338379</ele>
        <time>2014-04-07T14:42:07.066Z</time>
      </trkpt>
      <trkpt lat="46.02623" lon="3.19121">
        <ele>405.741149902</ele>
        <time>2014-04-07T14:42:13.764Z</time>
      </trkpt>
      <trkpt lat="46.02625" lon="3.19123">
        <ele>405.95123291</ele>
        <time>2014-04-07T14:42:13.993Z</time>
      </trkpt>
      <trkpt lat="46.0263" lon="3.1913">
        <ele>406.393554688</ele>
        <time>2014-04-07T14:42:18.796Z</time>
      </trkpt>
      <trkpt lat="46.02632" lon="3.19132">
        <ele>406.437255859</ele>
        <time>2014-04-07T14:42:19.223Z</time>
      </trkpt>
      <trkpt lat="46.02639" lon="3.19138">
        <ele>406.71194458</ele>
        <time>2014-04-07T14:42:25.098Z</time>
      </trkpt>
      <trkpt lat="46.0264" lon="3.19139">
        <ele>406.766052246</ele>
        <time>2014-04-07T14:42:26.161Z</time>
      </trkpt>
      <trkpt lat="46.02646" lon="3.19148">
        <ele>407.506072998</ele>
        <time>2014-04-07T14:42:32.147Z</time>
      </trkpt>
      <trkpt lat="46.02647" lon="3.19149">
        <ele>407.554870605</ele>
        <time>2014-04-07T14:42:33.078Z</time>
      </trkpt>
      <trkpt lat="46.02653" lon="3.19157">
        <ele>408.024108887</ele>
        <time>2014-04-07T14:42:38.094Z</time>
      </trkpt>
      <trkpt lat="46.02654" lon="3.19159">
        <ele>408.120483398</ele>
        <time>2014-04-07T14:42:39Z</time>
      </trkpt>
      <trkpt lat="46.0266" lon="3.19167">
        <ele>408.58706665</ele>
        <time>2014-04-07T14:42:45.111Z</time>
      </trkpt>
      <trkpt lat="46.02661" lon="3.19168">
        <ele>408.546722412</ele>
        <time>2014-04-07T14:42:46.402Z</time>
      </trkpt>
      <trkpt lat="46.02666" lon="3.19176">
        <ele>408.41607666</ele>
        <time>2014-04-07T14:42:52.652Z</time>
      </trkpt>
      <trkpt lat="46.02668" lon="3.19178">
        <ele>408.435791016</ele>
        <time>2014-04-07T14:42:53.031Z</time>
      </trkpt>
      <trkpt lat="46.02674" lon="3.19187">
        <ele>408.309417725</ele>
        <time>2014-04-07T14:42:59.616Z</time>
      </trkpt>
      <trkpt lat="46.02675" lon="3.19188">
        <ele>408.318359375</ele>
        <time>2014-04-07T14:43:00.049Z</time>
      </trkpt>
      <trkpt lat="46.02679" lon="3.19199">
        <ele>408.20980835</ele>
        <time>2014-04-07T14:43:08.143Z</time>
      </trkpt>
      <trkpt lat="46.02679" lon="3.19199">
        <ele>408.147033691</ele>
        <time>2014-04-07T14:43:08.996Z</time>
      </trkpt>
      <trkpt lat="46.02676" lon="3.19211">
        <ele>408.013275146</ele>
        <time>2014-04-07T14:43:16.607Z</time>
      </trkpt>
      <trkpt lat="46.02675" lon="3.19212">
        <ele>408.176727295</ele>
        <time>2014-04-07T14:43:17.006Z</time>
      </trkpt>
      <trkpt lat="46.0267" lon="3.19221">
        <ele>408.525604248</ele>
        <time>2014-04-07T14:43:23.025Z</time>
      </trkpt>
      <trkpt lat="46.02669" lon="3.19223">
        <ele>408.54284668</ele>
        <time>2014-04-07T14:43:24.002Z</time>
      </trkpt>
      <trkpt lat="46.02665" lon="3.19234">
        <ele>408.152130127</ele>
        <time>2014-04-07T14:43:31.913Z</time>
      </trkpt>
      <trkpt lat="46.02664" lon="3.19235">
        <ele>408.083465576</ele>
        <time>2014-04-07T14:43:32.284Z</time>
      </trkpt>
      <trkpt lat="46.02659" lon="3.19246">
        <ele>408.198516846</ele>
        <time>2014-04-07T14:43:38.25Z</time>
      </trkpt>
      <trkpt lat="46.02658" lon="3.19247">
        <ele>408.176422119</ele>
        <time>2014-04-07T14:43:39.004Z</time>
      </trkpt>
      <trkpt lat="46.02653" lon="3.19257">
        <ele>408.081542969</ele>
        <time>2014-04-07T14:43:45.477Z</time>
      </trkpt>
      <trkpt lat="46.02653" lon="3.19258">
        <ele>408.07019043</ele>
        <time>2014-04-07T14:43:46.073Z</time>
      </trkpt>
      <trkpt lat="46.02648" lon="3.19269">
        <ele>408.181060791</ele>
        <time>2014-04-07T14:43:53.1Z</time>
      </trkpt>
      <trkpt lat="46.02647" lon="3.19271">
        <ele>408.226379395</ele>
        <time>2014-04-07T14:43:54.007Z</time>
      </trkpt>
      <trkpt lat="46.02642" lon="3.1928">
        <ele>408.062194824</ele>
        <time>2014-04-07T14:43:58.999Z</time>
      </trkpt>
      <trkpt lat="46.0264" lon="3.19282">
        <ele>408.121887207</ele>
        <time>2014-04-07T14:44:00.12Z</time>
      </trkpt>
      <trkpt lat="46.02636" lon="3.19291">
        <ele>407.939819336</ele>
        <time>2014-04-07T14:44:07.472Z</time>
      </trkpt>
      <trkpt lat="46.02635" lon="3.19293">
        <ele>407.854400635</ele>
        <time>2014-04-07T14:44:07.996Z</time>
      </trkpt>
      <trkpt lat="46.0263" lon="3.19303">
        <ele>407.591552734</ele>
        <time>2014-04-07T14:44:14.183Z</time>
      </trkpt>
      <trkpt lat="46.02629" lon="3.19304">
        <ele>407.624969482</ele>
        <time>2014-04-07T14:44:15.113Z</time>
      </trkpt>
      <trkpt lat="46.02625" lon="3.19315">
        <ele>407.321838379</ele>
        <time>2014-04-07T14:44:22.767Z</time>
      </trkpt>
      <trkpt lat="46.02624" lon="3.19316">
        <ele>407.243377686</ele>
        <time>2014-04-07T14:44:23.01Z</time>
      </trkpt>
      <trkpt lat="46.02619" lon="3.19326">
        <ele>406.988372803</ele>
        <time>2014-04-07T14:44:29.267Z</time>
      </trkpt>
      <trkpt lat="46.02618" lon="3.19327">
        <ele>406.897247314</ele>
        <time>2014-04-07T14:44:30.069Z</time>
      </trkpt>
      <trkpt lat="46.02613" lon="3.19336">
        <ele>406.453369141</ele>
        <time>2014-04-07T14:44:35.166Z</time>
      </trkpt>
      <trkpt lat="46.02612" lon="3.19338">
        <ele>406.317840576</ele>
        <time>2014-04-07T14:44:36.098Z</time>
      </trkpt>
      <trkpt lat="46.0261" lon="3.19349">
        <ele>405.647766113</ele>
        <time>2014-04-07T14:44:41.095Z</time>
      </trkpt>
      <trkpt lat="46.0261" lon="3.19351">
        <ele>405.548339844</ele>
        <time>2014-04-07T14:44:42.197Z</time>
      </trkpt>
      <trkpt lat="46.02608" lon="3.19362">
        <ele>404.964263916</ele>
        <time>2014-04-07T14:44:48.162Z</time>
      </trkpt>
      <trkpt lat="46.02608" lon="3.19364">
        <ele>404.845367432</ele>
        <time>2014-04-07T14:44:49.008Z</time>
      </trkpt>
      <trkpt lat="46.02607" lon="3.19376">
        <ele>404.34954834</ele>
        <time>2014-04-07T14:44:55.099Z</time>
      </trkpt>
      <trkpt lat="46.02608" lon="3.19378">
        <ele>404.383911133</ele>
        <time>2014-04-07T14:44:56.1Z</time>
      </trkpt>
      <trkpt lat="46.02608" lon="3.1939">
        <ele>404.624450684</ele>
        <time>2014-04-07T14:45:02.858Z</time>
      </trkpt>
      <trkpt lat="46.02607" lon="3.19392">
        <ele>404.620391846</ele>
        <time>2014-04-07T14:45:03.11Z</time>
      </trkpt>
      <trkpt lat="46.02608" lon="3.19402">
        <ele>404.449401855</ele>
        <time>2014-04-07T14:45:08.321Z</time>
      </trkpt>
      <trkpt lat="46.02608" lon="3.19405">
        <ele>404.36416626</ele>
        <time>2014-04-07T14:45:09.259Z</time>
      </trkpt>
      <trkpt lat="46.02607" lon="3.19417">
        <ele>404.094726562</ele>
        <time>2014-04-07T14:45:15.044Z</time>
      </trkpt>
      <trkpt lat="46.02607" lon="3.19419">
        <ele>404.06048584</ele>
        <time>2014-04-07T14:45:16.108Z</time>
      </trkpt>
      <trkpt lat="46.02608" lon="3.19431">
        <ele>404.12902832</ele>
        <time>2014-04-07T14:45:23.284Z</time>
      </trkpt>
      <trkpt lat="46.02609" lon="3.19434">
        <ele>404.167694092</ele>
        <time>2014-04-07T14:45:24.101Z</time>
      </trkpt>
      <trkpt lat="46.02608" lon="3.19446">
        <ele>404.142120361</ele>
        <time>2014-04-07T14:45:30.216Z</time>
      </trkpt>
      <trkpt lat="46.02608" lon="3.19448">
        <ele>404.153991699</ele>
        <time>2014-04-07T14:45:31.101Z</time>
      </trkpt>
      <trkpt lat="46.02608" lon="3.1946">
        <ele>404.36428833</ele>
        <time>2014-04-07T14:45:35.159Z</time>
      </trkpt>
      <trkpt lat="46.02608" lon="3.19461">
        <ele>404.471405029</ele>
        <time>2014-04-07T14:45:36.129Z</time>
      </trkpt>
      <trkpt lat="46.02608" lon="3.19474">
        <ele>405.641418457</ele>
        <time>2014-04-07T14:45:43.043Z</time>
      </trkpt>
      <trkpt lat="46.02608" lon="3.19476">
        <ele>405.794433594</ele>
        <time>2014-04-07T14:45:44.099Z</time>
      </trkpt>
      <trkpt lat="46.02609" lon="3.19488">
        <ele>406.659790039</ele>
        <time>2014-04-07T14:45:50.272Z</time>
      </trkpt>
      <trkpt lat="46.02609" lon="3.1949">
        <ele>406.729217529</ele>
        <time>2014-04-07T14:45:51.033Z</time>
      </trkpt>
      <trkpt lat="46.0261" lon="3.19502">
        <ele>406.871337891</ele>
        <time>2014-04-07T14:45:57.643Z</time>
      </trkpt>
      <trkpt lat="46.0261" lon="3.19504">
        <ele>406.884643555</ele>
        <time>2014-04-07T14:45:57.988Z</time>
      </trkpt>
      <trkpt lat="46.0261" lon="3.19512">
        <ele>406.809295654</ele>
        <time>2014-04-07T14:46:03.001Z</time>
      </trkpt>
      <trkpt lat="46.02609" lon="3.19517">
        <ele>406.793212891</ele>
        <time>2014-04-07T14:46:04.109Z</time>
      </trkpt>
      <trkpt lat="46.0261" lon="3.19529">
        <ele>406.914367676</ele>
        <time>2014-04-07T14:46:10.041Z</time>
      </trkpt>
      <trkpt lat="46.0261" lon="3.19532">
        <ele>406.914886475</ele>
        <time>2014-04-07T14:46:11.146Z</time>
      </trkpt>
      <trkpt lat="46.02612" lon="3.19543">
        <ele>407.398803711</ele>
        <time>2014-04-07T14:46:18.085Z</time>
      </trkpt>
      <trkpt lat="46.02612" lon="3.19545">
        <ele>407.690856934</ele>
        <time>2014-04-07T14:46:19.053Z</time>
      </trkpt>
      <trkpt lat="46.02613" lon="3.19557">
        <ele>408.028137207</ele>
        <time>2014-04-07T14:46:26.736Z</time>
      </trkpt>
      <trkpt lat="46.02614" lon="3.19558">
        <ele>408.030639648</ele>
        <time>2014-04-07T14:46:26.979Z</time>
      </trkpt>
      <trkpt lat="46.02614" lon="3.1957">
        <ele>408.203887939</ele>
        <time>2014-04-07T14:46:32.152Z</time>
      </trkpt>
      <trkpt lat="46.02613" lon="3.19572">
        <ele>408.237579346</ele>
        <time>2014-04-07T14:46:33.014Z</time>
      </trkpt>
      <trkpt lat="46.02613" lon="3.19585">
        <ele>408.825805664</ele>
        <time>2014-04-07T14:46:39.43Z</time>
      </trkpt>
      <trkpt lat="46.02613" lon="3.19586">
        <ele>408.964172363</ele>
        <time>2014-04-07T14:46:40.087Z</time>
      </trkpt>
      <trkpt lat="46.02611" lon="3.19597">
        <ele>409.165222168</ele>
        <time>2014-04-07T14:46:46.147Z</time>
      </trkpt>
      <trkpt lat="46.02611" lon="3.19599">
        <ele>409.087158203</ele>
        <time>2014-04-07T14:46:47.154Z</time>
      </trkpt>
      <trkpt lat="46.0261" lon="3.1961">
        <ele>408.797027588</ele>
        <time>2014-04-07T14:46:52.263Z</time>
      </trkpt>
      <trkpt lat="46.0261" lon="3.19612">
        <ele>408.662017822</ele>
        <time>2014-04-07T14:46:53.099Z</time>
      </trkpt>
      <trkpt lat="46.0261" lon="3.19623">
        <ele>408.316467285</ele>
        <time>2014-04-07T14:46:58.155Z</time>
      </trkpt>
      <trkpt lat="46.02609" lon="3.19625">
        <ele>408.252929688</ele>
        <time>2014-04-07T14:46:59.152Z</time>
      </trkpt>
      <trkpt lat="46.02611" lon="3.19637">
        <ele>408.273132324</ele>
        <time>2014-04-07T14:47:06.027Z</time>
      </trkpt>
      <trkpt lat="46.02611" lon="3.19639">
        <ele>408.317596436</ele>
        <time>2014-04-07T14:47:07.099Z</time>
      </trkpt>
      <trkpt lat="46.02611" lon="3.19651">
        <ele>408.694732666</ele>
        <time>2014-04-07T14:47:13.48Z</time>
      </trkpt>
      <trkpt lat="46.02611" lon="3.19653">
        <ele>408.752410889</ele>
        <time>2014-04-07T14:47:14.098Z</time>
      </trkpt>
      <trkpt lat="46.02611" lon="3.19666">
        <ele>409.065948486</ele>
        <time>2014-04-07T14:47:20.809Z</time>
      </trkpt>
      <trkpt lat="46.02611" lon="3.19668">
        <ele>409.154266357</ele>
        <time>2014-04-07T14:47:20.982Z</time>
      </trkpt>
      <trkpt lat="46.0261" lon="3.19679">
        <ele>409.620330811</ele>
        <time>2014-04-07T14:47:25.997Z</time>
      </trkpt>
      <trkpt lat="46.0261" lon="3.19681">
        <ele>409.67388916</ele>
        <time>2014-04-07T14:47:26.999Z</time>
      </trkpt>
      <trkpt lat="46.02609" lon="3.19691">
        <ele>410.135406494</ele>
        <time>2014-04-07T14:47:32.055Z</time>
      </trkpt>
      <trkpt lat="46.02609" lon="3.19694">
        <ele>410.221588135</ele>
        <time>2014-04-07T14:47:33.014Z</time>
      </trkpt>
      <trkpt lat="46.02609" lon="3.19705">
        <ele>410.341430664</ele>
        <time>2014-04-07T14:47:40.146Z</time>
      </trkpt>
      <trkpt lat="46.02609" lon="3.19707">
        <ele>410.275512695</ele>
        <time>2014-04-07T14:47:41.177Z</time>
      </trkpt>
      <trkpt lat="46.02609" lon="3.19719">
        <ele>409.347015381</ele>
        <time>2014-04-07T14:47:47.568Z</time>
      </trkpt>
      <trkpt lat="46.02609" lon="3.1972">
        <ele>409.196929932</ele>
        <time>2014-04-07T14:47:48.113Z</time>
      </trkpt>
      <trkpt lat="46.02609" lon="3.19731">
        <ele>408.858428955</ele>
        <time>2014-04-07T14:47:54.188Z</time>
      </trkpt>
      <trkpt lat="46.02609" lon="3.19734">
        <ele>408.820587158</ele>
        <time>2014-04-07T14:47:55.08Z</time>
      </trkpt>
      <trkpt lat="46.0261" lon="3.19746">
        <ele>408.799682617</ele>
        <time>2014-04-07T14:48:02.107Z</time>
      </trkpt>
      <trkpt lat="46.0261" lon="3.19748">
        <ele>408.747192383</ele>
        <time>2014-04-07T14:48:02.987Z</time>
      </trkpt>
      <trkpt lat="46.02611" lon="3.1976">
        <ele>408.47277832</ele>
        <time>2014-04-07T14:48:11.25Z</time>
      </trkpt>
      <trkpt lat="46.02611" lon="3.19761">
        <ele>408.414428711</ele>
        <time>2014-04-07T14:48:12.077Z</time>
      </trkpt>
      <trkpt lat="46.02615" lon="3.19773">
        <ele>408.194488525</ele>
        <time>2014-04-07T14:48:17.261Z</time>
      </trkpt>
      <trkpt lat="46.02615" lon="3.19775">
        <ele>408.176696777</ele>
        <time>2014-04-07T14:48:18.096Z</time>
      </trkpt>
      <trkpt lat="46.02616" lon="3.19787">
        <ele>408.10055542</ele>
        <time>2014-04-07T14:48:24.358Z</time>
      </trkpt>
      <trkpt lat="46.02616" lon="3.19789">
        <ele>408.167694092</ele>
        <time>2014-04-07T14:48:25.133Z</time>
      </trkpt>
      <trkpt lat="46.02617" lon="3.19801">
        <ele>408.094390869</ele>
        <time>2014-04-07T14:48:30.122Z</time>
      </trkpt>
      <trkpt lat="46.02618" lon="3.19803">
        <ele>408.045837402</ele>
        <time>2014-04-07T14:48:31.107Z</time>
      </trkpt>
      <trkpt lat="46.02621" lon="3.19813">
        <ele>407.963775635</ele>
        <time>2014-04-07T14:48:36.992Z</time>
      </trkpt>
      <trkpt lat="46.02622" lon="3.19815">
        <ele>407.998443604</ele>
        <time>2014-04-07T14:48:37.982Z</time>
      </trkpt>
      <trkpt lat="46.02625" lon="3.19827">
        <ele>407.87298584</ele>
        <time>2014-04-07T14:48:45.046Z</time>
      </trkpt>
      <trkpt lat="46.02625" lon="3.19829">
        <ele>407.775115967</ele>
        <time>2014-04-07T14:48:46.059Z</time>
      </trkpt>
      <trkpt lat="46.02629" lon="3.1984">
        <ele>407.666259766</ele>
        <time>2014-04-07T14:48:52.211Z</time>
      </trkpt>
      <trkpt lat="46.0263" lon="3.19841">
        <ele>407.626525879</ele>
        <time>2014-04-07T14:48:53.056Z</time>
      </trkpt>
      <trkpt lat="46.02633" lon="3.19852">
        <ele>407.676239014</ele>
        <time>2014-04-07T14:48:58.072Z</time>
      </trkpt>
      <trkpt lat="46.02633" lon="3.19854">
        <ele>407.731292725</ele>
        <time>2014-04-07T14:48:58.996Z</time>
      </trkpt>
      <trkpt lat="46.02635" lon="3.19865">
        <ele>407.656646729</ele>
        <time>2014-04-07T14:49:04.285Z</time>
      </trkpt>
      <trkpt lat="46.02635" lon="3.19867">
        <ele>407.641601562</ele>
        <time>2014-04-07T14:49:05.12Z</time>
      </trkpt>
      <trkpt lat="46.02635" lon="3.19879">
        <ele>407.764373779</ele>
        <time>2014-04-07T14:49:10.018Z</time>
      </trkpt>
      <trkpt lat="46.02635" lon="3.19881">
        <ele>407.963409424</ele>
        <time>2014-04-07T14:49:11.038Z</time>
      </trkpt>
      <trkpt lat="46.02636" lon="3.19893">
        <ele>408.90057373</ele>
        <time>2014-04-07T14:49:17.269Z</time>
      </trkpt>
      <trkpt lat="46.02636" lon="3.19894">
        <ele>408.976898193</ele>
        <time>2014-04-07T14:49:17.992Z</time>
      </trkpt>
      <trkpt lat="46.02636" lon="3.19906">
        <ele>409.478637695</ele>
        <time>2014-04-07T14:49:23.233Z</time>
      </trkpt>
      <trkpt lat="46.02635" lon="3.19908">
        <ele>409.606445312</ele>
        <time>2014-04-07T14:49:24.087Z</time>
      </trkpt>
      <trkpt lat="46.02637" lon="3.19919">
        <ele>409.640075684</ele>
        <time>2014-04-07T14:49:32.176Z</time>
      </trkpt>
      <trkpt lat="46.02638" lon="3.19921">
        <ele>409.500427246</ele>
        <time>2014-04-07T14:49:33.237Z</time>
      </trkpt>
      <trkpt lat="46.02639" lon="3.19933">
        <ele>409.237915039</ele>
        <time>2014-04-07T14:49:39.121Z</time>
      </trkpt>
      <trkpt lat="46.02639" lon="3.19935">
        <ele>409.178375244</ele>
        <time>2014-04-07T14:49:40.17Z</time>
      </trkpt>
      <trkpt lat="46.02639" lon="3.19947">
        <ele>409.074279785</ele>
        <time>2014-04-07T14:49:45.206Z</time>
      </trkpt>
      <trkpt lat="46.02639" lon="3.19949">
        <ele>408.956512451</ele>
        <time>2014-04-07T14:49:46.046Z</time>
      </trkpt>
      <trkpt lat="46.02638" lon="3.19961">
        <ele>408.754638672</ele>
        <time>2014-04-07T14:49:50.333Z</time>
      </trkpt>
      <trkpt lat="46.02637" lon="3.19963">
        <ele>408.719268799</ele>
        <time>2014-04-07T14:49:51.063Z</time>
      </trkpt>
      <trkpt lat="46.02638" lon="3.19974">
        <ele>408.380462646</ele>
        <time>2014-04-07T14:49:58.147Z</time>
      </trkpt>
      <trkpt lat="46.02638" lon="3.19977">
        <ele>408.324798584</ele>
        <time>2014-04-07T14:49:59.172Z</time>
      </trkpt>
      <trkpt lat="46.0264" lon="3.19989">
        <ele>407.968322754</ele>
        <time>2014-04-07T14:50:06.147Z</time>
      </trkpt>
      <trkpt lat="46.0264" lon="3.1999">
        <ele>407.992828369</ele>
        <time>2014-04-07T14:50:07.175Z</time>
      </trkpt>
      <trkpt lat="46.02641" lon="3.2">
        <ele>407.806030273</ele>
        <time>2014-04-07T14:50:13.098Z</time>
      </trkpt>
      <trkpt lat="46.02641" lon="3.20004">
        <ele>407.685516357</ele>
        <time>2014-04-07T14:50:13.996Z</time>
      </trkpt>
      <trkpt lat="46.02641" lon="3.20016">
        <ele>407.303649902</ele>
        <time>2014-04-07T14:50:19.183Z</time>
      </trkpt>
      <trkpt lat="46.02641" lon="3.20018">
        <ele>407.121917725</ele>
        <time>2014-04-07T14:50:20.168Z</time>
      </trkpt>
      <trkpt lat="46.02641" lon="3.2003">
        <ele>406.480834961</ele>
        <time>2014-04-07T14:50:25.185Z</time>
      </trkpt>
      <trkpt lat="46.0264" lon="3.20032">
        <ele>406.450408936</ele>
        <time>2014-04-07T14:50:26.062Z</time>
      </trkpt>
      <trkpt lat="46.02639" lon="3.20043">
        <ele>406.592102051</ele>
        <time>2014-04-07T14:50:31.159Z</time>
      </trkpt>
      <trkpt lat="46.02639" lon="3.20045">
        <ele>406.562988281</ele>
        <time>2014-04-07T14:50:32.103Z</time>
      </trkpt>
      <trkpt lat="46.0264" lon="3.20057">
        <ele>406.233886719</ele>
        <time>2014-04-07T14:50:39.312Z</time>
      </trkpt>
      <trkpt lat="46.0264" lon="3.20059">
        <ele>406.268005371</ele>
        <time>2014-04-07T14:50:40.121Z</time>
      </trkpt>
      <trkpt lat="46.0264" lon="3.20071">
        <ele>406.733947754</ele>
        <time>2014-04-07T14:50:46.12Z</time>
      </trkpt>
      <trkpt lat="46.0264" lon="3.20073">
        <ele>406.830078125</ele>
        <time>2014-04-07T14:50:46.996Z</time>
      </trkpt>
      <trkpt lat="46.02642" lon="3.20085">
        <ele>407.566314697</ele>
        <time>2014-04-07T14:50:54.218Z</time>
      </trkpt>
      <trkpt lat="46.02642" lon="3.20088">
        <ele>407.630157471</ele>
        <time>2014-04-07T14:50:55.121Z</time>
      </trkpt>
      <trkpt lat="46.02641" lon="3.20101">
        <ele>407.893218994</ele>
        <time>2014-04-07T14:51:01.304Z</time>
      </trkpt>
      <trkpt lat="46.02642" lon="3.20103">
        <ele>407.923309326</ele>
        <time>2014-04-07T14:51:02.033Z</time>
      </trkpt>
      <trkpt lat="46.02641" lon="3.20112">
        <ele>407.954864502</ele>
        <time>2014-04-07T14:51:08.056Z</time>
      </trkpt>
      <trkpt lat="46.02642" lon="3.20116">
        <ele>408.003936768</ele>
        <time>2014-04-07T14:51:09.332Z</time>
      </trkpt>
      <trkpt lat="46.02642" lon="3.20126">
        <ele>408.149414062</ele>
        <time>2014-04-07T14:51:14.215Z</time>
      </trkpt>
      <trkpt lat="46.02642" lon="3.20129">
        <ele>408.129608154</ele>
        <time>2014-04-07T14:51:15.076Z</time>
      </trkpt>
      <trkpt lat="46.02643" lon="3.2014">
        <ele>407.863464355</ele>
        <time>2014-04-07T14:51:21.346Z</time>
      </trkpt>
      <trkpt lat="46.02643" lon="3.20143">
        <ele>407.80279541</ele>
        <time>2014-04-07T14:51:22.059Z</time>
      </trkpt>
      <trkpt lat="46.02643" lon="3.20153">
        <ele>407.736633301</ele>
        <time>2014-04-07T14:51:27.105Z</time>
      </trkpt>
      <trkpt lat="46.02643" lon="3.20156">
        <ele>407.710266113</ele>
        <time>2014-04-07T14:51:28.126Z</time>
      </trkpt>
      <trkpt lat="46.02644" lon="3.20169">
        <ele>407.703277588</ele>
        <time>2014-04-07T14:51:34.176Z</time>
      </trkpt>
      <trkpt lat="46.02644" lon="3.20171">
        <ele>407.750762939</ele>
        <time>2014-04-07T14:51:35.082Z</time>
      </trkpt>
      <trkpt lat="46.02644" lon="3.20183">
        <ele>408.098144531</ele>
        <time>2014-04-07T14:51:40.532Z</time>
      </trkpt>
      <trkpt lat="46.02644" lon="3.20185">
        <ele>408.196350098</ele>
        <time>2014-04-07T14:51:41.084Z</time>
      </trkpt>
      <trkpt lat="46.02645" lon="3.20196">
        <ele>408.033477783</ele>
        <time>2014-04-07T14:51:47.062Z</time>
      </trkpt>
      <trkpt lat="46.02645" lon="3.20201">
        <ele>407.921142578</ele>
        <time>2014-04-07T14:51:48.271Z</time>
      </trkpt>
      <trkpt lat="46.02645" lon="3.20214">
        <ele>407.609405518</ele>
        <time>2014-04-07T14:51:55.185Z</time>
      </trkpt>
      <trkpt lat="46.02645" lon="3.20216">
        <ele>407.455169678</ele>
        <time>2014-04-07T14:51:56.08Z</time>
      </trkpt>
      <trkpt lat="46.02645" lon="3.20227">
        <ele>406.78604126</ele>
        <time>2014-04-07T14:52:02.015Z</time>
      </trkpt>
      <trkpt lat="46.02645" lon="3.20229">
        <ele>406.669891357</ele>
        <time>2014-04-07T14:52:02.995Z</time>
      </trkpt>
      <trkpt lat="46.02643" lon="3.2024">
        <ele>406.391204834</ele>
        <time>2014-04-07T14:52:08.274Z</time>
      </trkpt>
      <trkpt lat="46.02642" lon="3.20243">
        <ele>406.315856934</ele>
        <time>2014-04-07T14:52:09.051Z</time>
      </trkpt>
      <trkpt lat="46.02642" lon="3.20255">
        <ele>406.132476807</ele>
        <time>2014-04-07T14:52:13.27Z</time>
      </trkpt>
      <trkpt lat="46.02642" lon="3.20257">
        <ele>406.162445068</ele>
        <time>2014-04-07T14:52:14.099Z</time>
      </trkpt>
      <trkpt lat="46.02644" lon="3.20269">
        <ele>406.572814941</ele>
        <time>2014-04-07T14:52:23.39Z</time>
      </trkpt>
      <trkpt lat="46.02643" lon="3.20271">
        <ele>406.674835205</ele>
        <time>2014-04-07T14:52:24.052Z</time>
      </trkpt>
      <trkpt lat="46.02639" lon="3.20282">
        <ele>406.806518555</ele>
        <time>2014-04-07T14:52:32.187Z</time>
      </trkpt>
      <trkpt lat="46.02639" lon="3.20283">
        <ele>406.810638428</ele>
        <time>2014-04-07T14:52:33.288Z</time>
      </trkpt>
      <trkpt lat="46.02635" lon="3.20295">
        <ele>406.825317383</ele>
        <time>2014-04-07T14:52:38.043Z</time>
      </trkpt>
      <trkpt lat="46.02634" lon="3.20297">
        <ele>406.778076172</ele>
        <time>2014-04-07T14:52:38.983Z</time>
      </trkpt>
      <trkpt lat="46.02631" lon="3.20308">
        <ele>406.429626465</ele>
        <time>2014-04-07T14:52:50.99Z</time>
      </trkpt>
    </trkseg>
  </trk>
</gpx>